[[{"header":{"parameterUnit":"m.s-1","parameterCategory":1,"la1":31.0,"la2":29.5877,"lo1":-88.7671,"lo2":-86.6584,"dy":0.0162,"dx":0.0185,"nx":115,"ny":88,"refTime":"2024-03-12T06:00:00:Z","depth":0,"parameterNumber":2,"parameterNumberName":"U-component_of_WINDS"},"data":[0.0,0.0,0.0,0.0,0.0,0.0,0.0,0.0,0.0,0.0,0.0,0.0,0.0,0.0,0.0,0.0,0.0,0.0,0.0,0.0,0.0,0.0,0.0,0.0,0.0,0.0,0.0,0.0,0.0,0.0,0.0,0.0,0.0,0.0,0.0,0.0,0.0,0.0,0.0,0.0,0.0,0.0,0.0,0.0,0.0,0.0,0.0,0.0,0.0,0.0,0.0,0.0,0.0,0.0,0.0,0.0,0.0,0.0,0.0,0.0,0.0,0.0,0.0,0.0,0.0,0.0,0.0,0.0,0.0,0.0,0.0,0.0,0.0,0.0,0.0,0.0,0.0,0.0,0.0,0.0,0.0,0.0,0.0,0.0,0.0,0.0,0.0,0.0,0.0,0.0,0.0,0.0,0.0,0.0,0.0,0.0,0.0,0.0,0.0,0.0,0.0,0.0,0.0,0.0,0.0,0.0,0.0,0.0,0.0,0.0,0.0,0.0,0.0,0.0,0.0,0.0,0.0,0.0,0.0,0.0,0.0,0.0,0.0,0.0,0.0,0.0,0.0,0.0,0.0,0.0,0.0,0.0,0.0,0.0,0.0,0.0,0.0,0.0,0.0,0.0,0.0,0.0,0.0,0.0,0.0,0.0,0.0,0.0,0.0,0.0,0.0,0.0,0.0,0.0,0.0,0.0,0.0,0.0,0.0,0.0,0.0,0.0,0.0,0.0,0.0,0.0,0.0,0.0,0.0,0.0,0.0,0.0,0.0,0.0,0.0,0.0,0.0,0.0,0.0,0.0,0.0,0.0,0.0,0.0,0.0,0.0,0.0,0.0,0.0,0.0,0.0,0.0,0.0,0.0,0.0,0.0,0.0,0.0,0.0,0.0,0.0,0.0,0.0,0.0,0.0,0.0,0.0,0.0,0.0,0.0,0.0,0.0,0.0,0.0,0.0,0.0,0.0,0.0,0.0,0.0,0.0,0.0,0.0,0.0,0.0,0.0,0.0,0.0,0.0,0.0,0.0,0.0,0.0,0.0,0.0,0.0,0.0,0.0,0.0,0.0,0.0,0.0,0.0,0.0,0.0,0.0,0.0,0.0,0.0,0.0,0.0,0.0,0.0,0.0,0.0,0.0,0.0,0.0,0.0,0.0,0.0,0.0,0.0,0.0,0.0,0.0,0.0,0.0,0.0,0.0,0.0,0.0,0.0,0.0,0.0,0.0,0.0,0.0,0.0,0.0,0.0,0.0,0.0,0.0,0.0,0.0,0.0,0.0,0.0,0.0,0.0,0.0,0.0,0.0,0.0,0.0,0.0,0.0,0.0,0.0,0.0,0.0,0.0,0.0,0.0,0.0,0.0,0.0,0.0,0.0,0.0,0.0,0.0,0.0,0.0,0.0,0.0,0.0,0.0,0.0,0.0,0.0,0.0,0.0,0.0,0.0,0.0,0.0,0.0,0.0,0.0,0.0,0.0,0.0,0.0,0.0,0.0,0.0,0.0,0.0,0.0,0.0,0.0,0.0,0.0,0.0,0.0,0.0,0.0,0.0,0.0,0.0,0.0,0.0,0.0,0.0,0.0,0.0,0.0,0.0,0.0,0.0,0.0,0.0,0.0,0.0,0.0,0.0,0.0,0.0,0.0,0.0,0.0,0.0,0.0,0.0,0.0,0.0,0.0,0.0,0.0,0.0,0.0,0.0,0.0,0.0,0.0,0.0,0.0,0.0,0.0,0.0,0.0,0.0,0.0,0.0,0.0,0.0,0.0,0.0,0.0,0.0,0.0,0.0,0.0,0.0,0.0,0.0,0.0,0.0,0.0,0.0,0.0,0.0,0.0,0.0,0.0,0.0,0.0,0.0,0.0,0.0,0.0,0.0,0.0,0.0,0.0,0.0,0.0,0.0,0.0,0.0,0.0,0.0,0.0,0.0,0.0,0.0,0.0,0.0,0.0,0.0,0.0,0.0,0.0,0.0,0.0,0.0,0.0,0.0,0.0,0.0,0.0,0.0,0.0,0.0,0.0,0.0,0.0,0.0,0.0,0.0,0.0,0.0,0.0,0.0,0.0,0.0,0.0,0.0,0.0,0.0,0.0,0.0,0.0,0.0,0.0,0.0,0.0,0.0,0.0,0.0,0.0,0.0,0.0,0.0,0.0,0.0,0.0,0.0,0.0,0.0,0.0,0.0,0.0,0.0,0.0,0.0,0.0,0.0,0.0,0.0,0.0,0.0,0.0,0.0,0.0,0.0,0.0,0.0,0.0,0.0,0.0,0.0,0.0,0.0,0.0,0.0,0.0,0.0,0.0,0.0,0.0,0.0,0.0,0.0,0.0,0.0,0.0,0.0,0.0,0.0,0.0,0.0,0.0,0.0,0.0,0.0,0.0,0.0,0.0,0.0,0.0,0.0,0.0,0.0,0.0,0.0,0.0,0.0,0.0,0.0,0.0,0.0,0.0,0.0,0.0,0.0,0.0,0.0,0.0,0.0,0.0,0.0,0.0,0.0,0.0,0.0,0.0,0.0,0.0,0.0,0.0,0.0,0.0,0.0,0.0,0.0,0.0,0.0,0.0,0.0,0.0,0.0,0.0,0.0,0.0,0.0,0.0,0.0,0.0,0.0,0.0,0.0,0.0,0.0,0.0,0.0,0.0,0.0,0.0,0.0,0.0,0.0,0.0,0.0,0.0,0.0,0.0,0.0,0.0,0.0,0.0,0.0,0.0,0.0,0.0,0.0,0.0,0.0,0.0,0.0,0.0,0.0,0.0,0.0,0.0,0.0,0.0,0.0,0.0,0.0,0.0,0.0,0.0,0.0,0.0,0.0,0.0,0.0,0.0,0.0,0.0,0.0,0.0,0.0,0.0,0.0,0.0,0.0,0.0,0.0,0.0,0.0,0.0,0.0,0.0,0.0,0.0,0.0,0.0,0.0,0.0,0.0,0.0,0.0,0.0,0.0,0.0,0.0,0.0,0.0,0.0,0.0,0.0,0.0,0.0,0.0,0.0,0.0,0.0,0.0,0.0,0.0,0.0,0.0,0.0,0.0,0.0,0.0,0.0,0.0,0.0,0.0,0.0,0.0,0.0,0.0,0.0,0.0,0.0,0.0,0.0,0.0,0.0,0.0,0.0,0.0,0.0,0.0,0.0,0.0,0.0,0.0,0.0,0.0,0.0,0.0,0.0,0.0,0.0,0.0,0.0,0.0,0.0,0.0,0.0,0.0,0.0,0.0,0.0,0.0,0.0,0.0,0.0,0.0,0.0,0.0,0.0,0.0,0.0,0.0,0.0,0.0,0.0,0.0,0.0,0.0,0.0,0.0,0.0,0.0,0.0,0.0,0.0,0.0,0.0,0.0,0.0,0.0,0.0,0.0,0.0,0.0,0.0,0.0,0.0,0.0,0.0,0.0,0.0,0.0,0.0,0.0,0.0,0.0,0.0,0.0,0.0,0.0,0.0,0.0,0.0,0.0,0.0,0.0,0.0,0.0,0.0,0.0,0.0,0.0,0.0,0.0,0.0,0.0,0.0,0.0,0.0,0.0,0.0,0.0,0.0,0.0,0.0,0.0,0.0,0.0,0.0,0.0,0.0,0.0,0.0,0.0,0.0,0.0,0.0,0.0,0.0,0.0,0.0,0.0,0.0,0.0,0.0,0.0,0.0,0.0,0.0,0.0,0.0,0.0,0.0,0.0,0.0,0.0,0.0,0.0,0.0,0.0,0.0,0.0,0.0,0.0,0.0,0.0,0.0,0.0,0.0,0.0,0.0,0.0,0.0,0.0,0.0,0.0,0.0,0.0,0.0,0.0,0.0,0.0,0.0,0.0,0.0,0.0,0.0,0.0,0.0,0.0,0.0,0.0,0.0,0.0,0.0,0.0,0.0,0.0,0.0,0.0,0.0,0.0,0.0,0.0,0.0,0.0,0.0,0.0,0.0,0.0,0.0,0.0,0.0,0.0,0.0,0.0,0.0,0.0,0.0,0.0,0.0,0.0,0.0,0.0,0.0,0.0,0.0,0.0,0.0,0.0,0.0,0.0,0.0,0.0,0.0,0.0,0.0,0.0,0.0,0.0,0.0,0.0,0.0,0.0,0.0,0.0,0.0,0.0,0.0,0.0,0.0,0.0,0.0,0.0,0.0,0.0,0.0,0.0,0.0,0.0,0.0,0.0,0.0,0.0,0.0,0.0,0.0,0.0,0.0,0.0,0.0,0.0,0.0,0.0,0.0,0.0,0.0,0.0,0.0,0.0,0.0,0.0,0.0,0.0,0.0,0.0,-2.7485,0.0,0.0,0.0,0.0,0.0,0.0,0.0,0.0,0.0,0.0,0.0,0.0,0.0,0.0,0.0,0.0,0.0,0.0,0.0,0.0,0.0,0.0,0.0,0.0,0.0,0.0,0.0,0.0,0.0,0.0,0.0,0.0,0.0,0.0,0.0,0.0,0.0,0.0,0.0,0.0,0.0,0.0,0.0,0.0,0.0,0.0,0.0,0.0,0.0,0.0,0.0,0.0,0.0,0.0,0.0,0.0,0.0,0.0,0.0,0.0,0.0,0.0,0.0,0.0,0.0,0.0,0.0,0.0,0.0,0.0,0.0,0.0,0.0,0.0,0.0,0.0,0.0,0.0,0.0,0.0,0.0,0.0,0.0,0.0,0.0,0.0,0.0,0.0,0.0,0.0,0.0,0.0,0.0,0.0,0.0,0.0,0.0,0.0,0.0,0.0,0.0,0.0,0.0,0.0,0.0,0.0,0.0,0.0,0.0,0.0,-2.8137,-2.8059,-2.8411,-2.8419,-2.8066,0.0,0.0,0.0,0.0,0.0,0.0,0.0,0.0,0.0,0.0,0.0,0.0,0.0,0.0,0.0,0.0,0.0,0.0,0.0,0.0,0.0,0.0,0.0,0.0,0.0,0.0,0.0,0.0,0.0,0.0,0.0,0.0,0.0,0.0,0.0,0.0,0.0,0.0,0.0,0.0,0.0,0.0,0.0,0.0,0.0,0.0,0.0,0.0,0.0,0.0,0.0,0.0,0.0,0.0,0.0,0.0,0.0,0.0,0.0,0.0,0.0,0.0,0.0,0.0,0.0,0.0,0.0,0.0,0.0,0.0,0.0,0.0,0.0,0.0,0.0,0.0,0.0,0.0,0.0,0.0,0.0,0.0,0.0,0.0,0.0,0.0,0.0,0.0,0.0,0.0,0.0,0.0,0.0,0.0,0.0,0.0,0.0,0.0,0.0,0.0,0.0,0.0,0.0,0.0,0.0,0.0,0.0,0.0,0.0,0.0,0.0,0.0,-2.8544,-2.8587,-2.8587,0.0,0.0,0.0,0.0,0.0,0.0,0.0,0.0,0.0,0.0,0.0,0.0,0.0,0.0,0.0,0.0,0.0,0.0,0.0,0.0,0.0,0.0,0.0,0.0,0.0,0.0,0.0,0.0,0.0,0.0,0.0,0.0,0.0,0.0,0.0,0.0,0.0,0.0,0.0,0.0,0.0,0.0,0.0,0.0,0.0,0.0,0.0,0.0,0.0,0.0,0.0,0.0,0.0,0.0,0.0,0.0,0.0,0.0,0.0,0.0,0.0,0.0,0.0,0.0,0.0,0.0,0.0,0.0,0.0,0.0,0.0,0.0,0.0,0.0,0.0,0.0,0.0,0.0,0.0,0.0,0.0,0.0,0.0,0.0,0.0,0.0,0.0,0.0,0.0,0.0,0.0,0.0,0.0,0.0,0.0,0.0,0.0,0.0,0.0,0.0,0.0,0.0,0.0,0.0,0.0,0.0,0.0,0.0,0.0,0.0,-2.8556,-2.9107,-2.8774,0.0,-2.8587,0.0,0.0,0.0,0.0,0.0,0.0,0.0,0.0,0.0,0.0,0.0,0.0,0.0,0.0,0.0,0.0,0.0,0.0,0.0,0.0,0.0,0.0,0.0,0.0,0.0,0.0,0.0,0.0,0.0,0.0,0.0,0.0,0.0,0.0,0.0,0.0,0.0,0.0,0.0,0.0,0.0,0.0,0.0,0.0,0.0,0.0,0.0,0.0,0.0,0.0,0.0,0.0,0.0,0.0,0.0,0.0,0.0,0.0,0.0,0.0,0.0,0.0,0.0,0.0,0.0,0.0,0.0,0.0,0.0,0.0,0.0,0.0,0.0,0.0,0.0,0.0,0.0,0.0,0.0,0.0,0.0,0.0,0.0,0.0,0.0,0.0,0.0,0.0,0.0,0.0,0.0,0.0,0.0,0.0,0.0,0.0,0.0,0.0,0.0,0.0,0.0,0.0,0.0,0.0,0.0,0.0,0.0,0.0,0.0,0.0,-2.8598,-2.8855,-2.869,-2.8424,0.0,0.0,0.0,0.0,0.0,0.0,0.0,0.0,0.0,0.0,0.0,0.0,0.0,0.0,0.0,0.0,0.0,0.0,0.0,0.0,0.0,0.0,0.0,0.0,0.0,0.0,0.0,0.0,0.0,0.0,0.0,0.0,0.0,0.0,0.0,0.0,0.0,0.0,0.0,0.0,0.0,0.0,0.0,0.0,0.0,0.0,0.0,0.0,0.0,0.0,0.0,0.0,0.0,0.0,0.0,0.0,0.0,0.0,0.0,0.0,0.0,0.0,0.0,0.0,0.0,0.0,0.0,0.0,0.0,0.0,0.0,0.0,0.0,0.0,0.0,0.0,0.0,0.0,0.0,0.0,0.0,0.0,0.0,0.0,0.0,0.0,0.0,0.0,0.0,0.0,0.0,0.0,0.0,0.0,0.0,0.0,0.0,0.0,0.0,0.0,0.0,0.0,0.0,0.0,0.0,0.0,0.0,0.0,0.0,0.0,-2.8519,-2.8519,-2.8388,-2.8489,-2.8202,-2.7488,0.0,0.0,0.0,0.0,0.0,0.0,0.0,0.0,0.0,0.0,0.0,0.0,0.0,0.0,0.0,0.0,0.0,0.0,0.0,0.0,0.0,0.0,0.0,0.0,0.0,0.0,0.0,0.0,0.0,0.0,0.0,0.0,0.0,0.0,0.0,0.0,0.0,0.0,0.0,0.0,0.0,0.0,0.0,0.0,0.0,0.0,0.0,0.0,0.0,0.0,0.0,0.0,0.0,0.0,0.0,0.0,0.0,0.0,0.0,0.0,0.0,0.0,0.0,0.0,0.0,0.0,0.0,0.0,0.0,0.0,0.0,0.0,0.0,0.0,0.0,0.0,0.0,0.0,0.0,0.0,0.0,0.0,0.0,0.0,0.0,0.0,0.0,0.0,0.0,0.0,0.0,0.0,0.0,0.0,0.0,0.0,0.0,0.0,0.0,0.0,0.0,0.0,0.0,0.0,0.0,0.0,0.0,0.0,-2.906,-2.876,-2.8315,-2.7804,-2.8235,-2.7975,0.0,0.0,0.0,0.0,0.0,0.0,0.0,0.0,0.0,0.0,0.0,0.0,0.0,0.0,0.0,0.0,0.0,0.0,0.0,0.0,0.0,0.0,0.0,0.0,0.0,0.0,0.0,0.0,0.0,0.0,0.0,0.0,0.0,0.0,0.0,0.0,0.0,0.0,0.0,0.0,0.0,0.0,0.0,0.0,0.0,0.0,0.0,0.0,0.0,0.0,0.0,0.0,0.0,0.0,0.0,0.0,0.0,0.0,0.0,0.0,0.0,0.0,0.0,0.0,0.0,0.0,0.0,0.0,0.0,0.0,0.0,0.0,0.0,0.0,0.0,0.0,0.0,0.0,0.0,0.0,0.0,0.0,0.0,0.0,0.0,0.0,0.0,0.0,0.0,0.0,0.0,0.0,0.0,0.0,0.0,0.0,0.0,0.0,0.0,0.0,0.0,0.0,0.0,0.0,0.0,0.0,0.0,0.0,0.0,-2.7462,-2.7462,-2.7745,-2.8269,-2.777,-2.7423,0.0,0.0,0.0,0.0,0.0,0.0,0.0,0.0,0.0,0.0,0.0,0.0,0.0,0.0,0.0,0.0,0.0,0.0,0.0,0.0,0.0,0.0,0.0,0.0,0.0,0.0,0.0,0.0,0.0,0.0,0.0,0.0,0.0,0.0,0.0,0.0,0.0,0.0,0.0,0.0,0.0,0.0,0.0,0.0,0.0,0.0,0.0,0.0,0.0,0.0,0.0,0.0,0.0,0.0,0.0,0.0,0.0,0.0,0.0,0.0,0.0,0.0,0.0,0.0,0.0,0.0,0.0,0.0,0.0,0.0,0.0,0.0,0.0,0.0,0.0,0.0,0.0,0.0,0.0,0.0,0.0,0.0,0.0,0.0,0.0,0.0,0.0,0.0,0.0,0.0,0.0,0.0,0.0,0.0,0.0,0.0,0.0,0.0,0.0,0.0,0.0,0.0,0.0,0.0,0.0,0.0,0.0,0.0,0.0,-2.722,0.0,-2.8216,-2.8606,-2.7827,-2.7318,0.0,0.0,0.0,0.0,0.0,0.0,0.0,0.0,0.0,0.0,0.0,0.0,0.0,0.0,0.0,0.0,0.0,0.0,0.0,0.0,0.0,0.0,0.0,0.0,0.0,0.0,0.0,0.0,0.0,0.0,0.0,0.0,0.0,0.0,0.0,0.0,0.0,0.0,0.0,0.0,0.0,0.0,0.0,0.0,0.0,0.0,0.0,0.0,0.0,0.0,0.0,0.0,0.0,0.0,0.0,0.0,0.0,0.0,0.0,0.0,0.0,0.0,0.0,0.0,0.0,0.0,0.0,0.0,0.0,0.0,0.0,0.0,0.0,0.0,0.0,0.0,0.0,0.0,0.0,0.0,0.0,0.0,0.0,0.0,0.0,0.0,0.0,0.0,0.0,0.0,0.0,0.0,0.0,0.0,0.0,0.0,0.0,0.0,0.0,0.0,0.0,0.0,0.0,0.0,0.0,0.0,0.0,0.0,-2.7098,-2.8607,-2.9753,-2.9773,-2.8681,-2.8582,-2.7766,0.0,0.0,0.0,0.0,0.0,0.0,0.0,0.0,0.0,0.0,0.0,0.0,0.0,0.0,0.0,0.0,0.0,0.0,0.0,0.0,0.0,0.0,0.0,0.0,0.0,0.0,0.0,0.0,0.0,0.0,0.0,0.0,0.0,0.0,0.0,0.0,0.0,0.0,0.0,0.0,0.0,0.0,0.0,0.0,0.0,0.0,0.0,0.0,0.0,0.0,0.0,0.0,0.0,0.0,0.0,0.0,0.0,0.0,0.0,0.0,0.0,0.0,0.0,0.0,0.0,0.0,0.0,0.0,0.0,0.0,0.0,0.0,0.0,0.0,0.0,0.0,0.0,0.0,0.0,0.0,0.0,0.0,0.0,0.0,0.0,0.0,0.0,0.0,0.0,0.0,0.0,0.0,0.0,0.0,0.0,0.0,0.0,0.0,0.0,0.0,0.0,0.0,0.0,0.0,0.0,0.0,0.0,0.0,0.0,-2.7884,-2.877,-2.9715,-3.0551,-2.8973,-2.8397,0.0,0.0,0.0,0.0,0.0,0.0,0.0,0.0,0.0,0.0,0.0,0.0,0.0,0.0,0.0,0.0,0.0,0.0,0.0,0.0,0.0,0.0,0.0,0.0,0.0,0.0,0.0,0.0,0.0,0.0,0.0,0.0,0.0,0.0,0.0,0.0,0.0,0.0,0.0,0.0,0.0,0.0,0.0,0.0,0.0,0.0,0.0,0.0,0.0,0.0,0.0,0.0,0.0,0.0,0.0,0.0,0.0,0.0,0.0,0.0,0.0,0.0,0.0,0.0,0.0,0.0,0.0,0.0,0.0,0.0,0.0,0.0,0.0,0.0,0.0,0.0,0.0,0.0,0.0,0.0,0.0,0.0,0.0,0.0,0.0,0.0,0.0,0.0,0.0,0.0,0.0,0.0,0.0,0.0,0.0,0.0,0.0,0.0,0.0,0.0,0.0,0.0,0.0,0.0,0.0,0.0,0.0,0.0,0.0,-2.9585,-3.0411,-3.1282,-3.2228,-3.0295,-2.9403,-2.9784,0.0,0.0,0.0,0.0,0.0,0.0,0.0,0.0,0.0,0.0,0.0,0.0,0.0,0.0,0.0,0.0,0.0,0.0,0.0,0.0,0.0,0.0,0.0,0.0,0.0,0.0,0.0,0.0,0.0,0.0,0.0,0.0,0.0,0.0,0.0,0.0,0.0,0.0,0.0,0.0,0.0,0.0,0.0,0.0,0.0,0.0,0.0,0.0,0.0,0.0,0.0,0.0,0.0,0.0,0.0,0.0,0.0,0.0,0.0,0.0,0.0,0.0,0.0,0.0,0.0,0.0,0.0,0.0,0.0,0.0,0.0,0.0,0.0,0.0,0.0,0.0,0.0,0.0,0.0,0.0,0.0,0.0,0.0,0.0,0.0,0.0,0.0,0.0,0.0,0.0,0.0,0.0,0.0,0.0,0.0,0.0,0.0,0.0,0.0,0.0,0.0,0.0,0.0,0.0,0.0,0.0,0.0,0.0,-3.3097,-3.4137,-3.4294,-3.3662,-3.2348,-3.0745,0.0,0.0,0.0,0.0,0.0,0.0,0.0,0.0,0.0,0.0,0.0,0.0,0.0,0.0,0.0,0.0,0.0,0.0,0.0,0.0,0.0,0.0,0.0,0.0,0.0,0.0,0.0,0.0,0.0,0.0,0.0,0.0,0.0,0.0,0.0,0.0,0.0,0.0,0.0,0.0,0.0,0.0,0.0,0.0,0.0,0.0,0.0,0.0,0.0,0.0,0.0,0.0,0.0,0.0,0.0,0.0,0.0,0.0,0.0,0.0,0.0,0.0,0.0,0.0,0.0,0.0,0.0,0.0,0.0,0.0,0.0,0.0,0.0,0.0,0.0,0.0,0.0,0.0,0.0,0.0,0.0,0.0,0.0,0.0,0.0,0.0,0.0,0.0,0.0,0.0,0.0,0.0,0.0,0.0,0.0,0.0,0.0,0.0,0.0,0.0,0.0,0.0,0.0,0.0,0.0,0.0,0.0,0.0,0.0,-3.4654,-3.5932,-3.6533,-3.6352,-3.3715,-3.2213,0.0,0.0,0.0,0.0,0.0,0.0,0.0,0.0,0.0,0.0,0.0,0.0,0.0,0.0,0.0,0.0,0.0,0.0,0.0,0.0,0.0,0.0,0.0,0.0,0.0,0.0,0.0,0.0,0.0,0.0,0.0,0.0,0.0,0.0,0.0,0.0,0.0,0.0,0.0,0.0,0.0,0.0,0.0,0.0,0.0,0.0,0.0,0.0,0.0,0.0,0.0,0.0,0.0,0.0,0.0,0.0,0.0,0.0,0.0,0.0,0.0,0.0,0.0,0.0,0.0,0.0,0.0,0.0,0.0,0.0,0.0,0.0,0.0,0.0,0.0,0.0,0.0,0.0,0.0,0.0,0.0,0.0,0.0,0.0,0.0,0.0,0.0,0.0,0.0,0.0,0.0,0.0,0.0,0.0,0.0,0.0,0.0,0.0,0.0,0.0,0.0,0.0,0.0,0.0,0.0,0.0,0.0,0.0,-3.3725,-3.5525,-3.7526,-3.8633,-3.8752,-3.5469,-3.3431,0.0,0.0,0.0,0.0,0.0,0.0,0.0,0.0,0.0,0.0,0.0,0.0,0.0,0.0,0.0,0.0,0.0,0.0,0.0,0.0,0.0,0.0,0.0,0.0,0.0,0.0,0.0,0.0,0.0,0.0,0.0,0.0,0.0,0.0,0.0,0.0,0.0,0.0,0.0,0.0,0.0,0.0,0.0,0.0,0.0,0.0,0.0,0.0,0.0,0.0,0.0,0.0,0.0,0.0,0.0,0.0,0.0,0.0,0.0,0.0,0.0,0.0,0.0,0.0,0.0,0.0,0.0,0.0,0.0,0.0,0.0,0.0,0.0,0.0,0.0,0.0,0.0,0.0,0.0,0.0,0.0,0.0,0.0,0.0,0.0,0.0,0.0,0.0,0.0,0.0,0.0,0.0,0.0,0.0,0.0,0.0,0.0,0.0,0.0,0.0,0.0,0.0,0.0,0.0,0.0,0.0,0.0,0.0,-3.4549,-3.5986,-3.8552,-4.0021,-4.012,-3.7094,-3.453,0.0,0.0,0.0,0.0,0.0,0.0,0.0,0.0,0.0,0.0,0.0,0.0,0.0,0.0,0.0,0.0,0.0,0.0,0.0,0.0,0.0,0.0,0.0,0.0,0.0,0.0,0.0,0.0,0.0,0.0,0.0,0.0,0.0,0.0,0.0,0.0,0.0,0.0,0.0,0.0,0.0,0.0,0.0,0.0,0.0,0.0,0.0,0.0,0.0,0.0,0.0,0.0,0.0,0.0,0.0,0.0,0.0,0.0,0.0,0.0,0.0,0.0,0.0,0.0,0.0,0.0,0.0,0.0,0.0,0.0,0.0,0.0,0.0,0.0,0.0,0.0,0.0,0.0,0.0,0.0,0.0,0.0,0.0,0.0,0.0,0.0,0.0,0.0,0.0,0.0,0.0,0.0,0.0,0.0,0.0,0.0,0.0,0.0,0.0,0.0,0.0,0.0,0.0,0.0,0.0,0.0,0.0,0.0,-3.4037,-3.6447,-3.7071,-3.7701,-3.8347,-3.6886,-3.5339,0.0,0.0,0.0,0.0,0.0,0.0,0.0,0.0,0.0,0.0,0.0,0.0,0.0,0.0,0.0,0.0,0.0,0.0,0.0,0.0,0.0,0.0,0.0,0.0,0.0,0.0,0.0,0.0,0.0,0.0,0.0,0.0,0.0,0.0,0.0,0.0,0.0,0.0,0.0,0.0,0.0,0.0,0.0,0.0,0.0,0.0,0.0,0.0,-3.4613,0.0,0.0,0.0,0.0,0.0,0.0,0.0,0.0,0.0,0.0,0.0,0.0,0.0,0.0,0.0,0.0,0.0,0.0,0.0,0.0,0.0,0.0,0.0,0.0,0.0,0.0,0.0,0.0,0.0,0.0,0.0,0.0,0.0,0.0,0.0,0.0,0.0,0.0,0.0,0.0,0.0,0.0,0.0,0.0,0.0,0.0,0.0,0.0,0.0,0.0,0.0,0.0,0.0,0.0,0.0,0.0,0.0,0.0,0.0,-3.3913,-3.5892,-3.6935,-3.7701,-3.8169,-3.7319,-3.5799,0.0,0.0,0.0,0.0,0.0,0.0,0.0,0.0,0.0,0.0,0.0,0.0,0.0,0.0,0.0,0.0,0.0,0.0,0.0,0.0,0.0,0.0,0.0,0.0,0.0,0.0,0.0,0.0,0.0,0.0,0.0,0.0,0.0,0.0,0.0,0.0,0.0,0.0,0.0,0.0,0.0,0.0,0.0,0.0,0.0,0.0,0.0,0.0,0.0,0.0,0.0,0.0,0.0,0.0,0.0,0.0,0.0,0.0,0.0,0.0,0.0,0.0,0.0,0.0,0.0,0.0,0.0,0.0,0.0,0.0,0.0,0.0,0.0,0.0,0.0,0.0,0.0,0.0,0.0,0.0,0.0,0.0,0.0,0.0,0.0,0.0,0.0,0.0,0.0,0.0,0.0,0.0,0.0,0.0,0.0,0.0,0.0,0.0,0.0,0.0,0.0,0.0,0.0,0.0,0.0,0.0,0.0,-3.1959,-3.3725,-3.518,-3.692,-3.7927,-3.8078,-3.7306,-3.5624,-3.2945,0.0,0.0,0.0,0.0,0.0,0.0,0.0,0.0,0.0,0.0,0.0,0.0,0.0,0.0,0.0,0.0,0.0,0.0,0.0,0.0,0.0,0.0,0.0,0.0,0.0,0.0,0.0,0.0,0.0,0.0,0.0,0.0,0.0,0.0,0.0,0.0,0.0,0.0,-3.205,-3.3152,0.0,0.0,0.0,0.0,0.0,0.0,0.0,0.0,-3.4706,0.0,0.0,0.0,0.0,0.0,0.0,0.0,0.0,0.0,0.0,0.0,0.0,0.0,0.0,0.0,0.0,0.0,0.0,0.0,0.0,0.0,0.0,0.0,0.0,0.0,0.0,0.0,0.0,0.0,0.0,0.0,0.0,0.0,0.0,0.0,0.0,0.0,0.0,0.0,0.0,0.0,0.0,0.0,0.0,0.0,0.0,0.0,0.0,0.0,0.0,0.0,0.0,0.0,0.0,0.0,0.0,-3.2411,-3.1772,-3.2753,-3.5518,-3.548,-3.5413,-3.5426,-3.4967,-3.3742,-3.176,0.0,0.0,0.0,0.0,0.0,0.0,0.0,0.0,0.0,0.0,0.0,0.0,0.0,0.0,0.0,0.0,0.0,0.0,0.0,0.0,0.0,0.0,0.0,0.0,0.0,0.0,0.0,0.0,0.0,0.0,0.0,0.0,0.0,0.0,0.0,0.0,0.0,0.0,0.0,-3.5845,-3.6276,0.0,0.0,0.0,0.0,0.0,0.0,0.0,0.0,-3.5799,0.0,0.0,0.0,0.0,0.0,0.0,0.0,0.0,0.0,0.0,0.0,0.0,0.0,0.0,0.0,0.0,0.0,0.0,0.0,0.0,0.0,0.0,0.0,0.0,0.0,0.0,0.0,0.0,0.0,0.0,0.0,0.0,0.0,0.0,0.0,0.0,0.0,0.0,0.0,0.0,0.0,0.0,0.0,0.0,0.0,0.0,0.0,0.0,0.0,0.0,0.0,0.0,0.0,0.0,0.0,-3.1849,-3.2238,-3.3238,-3.4979,-3.5168,-3.525,-3.5277,-3.4498,-3.3329,0.0,0.0,0.0,0.0,0.0,0.0,0.0,0.0,0.0,0.0,0.0,0.0,0.0,0.0,0.0,0.0,0.0,0.0,0.0,0.0,0.0,0.0,0.0,0.0,0.0,0.0,0.0,0.0,0.0,0.0,0.0,0.0,0.0,0.0,0.0,0.0,0.0,0.0,0.0,0.0,-3.6492,-3.6984,-3.8369,0.0,0.0,0.0,0.0,0.0,0.0,-3.6569,-3.5938,0.0,0.0,0.0,0.0,0.0,0.0,0.0,0.0,0.0,0.0,0.0,0.0,0.0,0.0,0.0,0.0,0.0,0.0,0.0,0.0,0.0,0.0,0.0,0.0,0.0,0.0,0.0,0.0,0.0,0.0,0.0,0.0,0.0,0.0,0.0,0.0,0.0,0.0,0.0,0.0,0.0,0.0,0.0,0.0,0.0,0.0,0.0,0.0,0.0,0.0,0.0,0.0,0.0,0.0,0.0,-3.096,-3.2581,-3.3731,-3.44,-3.5073,-3.5426,-3.5413,-3.4254,-3.312,0.0,0.0,0.0,0.0,0.0,0.0,0.0,0.0,0.0,0.0,0.0,0.0,0.0,0.0,0.0,0.0,0.0,0.0,0.0,0.0,0.0,0.0,0.0,0.0,0.0,0.0,0.0,0.0,0.0,0.0,0.0,0.0,0.0,0.0,0.0,0.0,0.0,0.0,0.0,0.0,0.0,-3.7692,-3.9262,-3.7892,0.0,0.0,0.0,0.0,-3.7738,-3.723,0.0,0.0,0.0,0.0,0.0,0.0,0.0,0.0,0.0,0.0,0.0,0.0,0.0,0.0,0.0,0.0,0.0,0.0,0.0,0.0,0.0,0.0,0.0,0.0,0.0,0.0,0.0,0.0,0.0,0.0,0.0,0.0,0.0,0.0,0.0,0.0,0.0,0.0,0.0,0.0,0.0,0.0,0.0,0.0,0.0,0.0,0.0,0.0,0.0,0.0,0.0,0.0,0.0,0.0,0.0,0.0,-3.0972,-3.2176,-3.3326,-3.4332,-3.4481,-3.4564,-3.4538,-3.3448,-3.2305,0.0,0.0,0.0,0.0,0.0,0.0,0.0,0.0,0.0,0.0,0.0,0.0,0.0,0.0,0.0,0.0,0.0,0.0,0.0,0.0,0.0,0.0,0.0,0.0,0.0,0.0,0.0,0.0,0.0,0.0,0.0,0.0,0.0,0.0,0.0,0.0,0.0,0.0,0.0,0.0,0.0,-3.9213,-3.9459,-3.8292,-3.7384,0.0,0.0,-3.9093,-3.9277,-4.0185,0.0,0.0,0.0,0.0,0.0,0.0,0.0,0.0,0.0,0.0,0.0,0.0,0.0,0.0,0.0,0.0,0.0,0.0,0.0,0.0,0.0,0.0,0.0,0.0,0.0,0.0,0.0,0.0,0.0,0.0,0.0,0.0,0.0,0.0,0.0,0.0,0.0,0.0,0.0,0.0,0.0,0.0,0.0,0.0,0.0,0.0,0.0,0.0,0.0,0.0,0.0,0.0,0.0,0.0,0.0,-2.934,-3.1011,-3.2751,-3.3901,-3.4371,-3.4397,-3.4397,-3.4397,-3.2659,-3.1496,0.0,0.0,0.0,0.0,0.0,0.0,0.0,0.0,0.0,0.0,0.0,0.0,0.0,0.0,0.0,0.0,0.0,0.0,0.0,0.0,0.0,0.0,0.0,0.0,0.0,0.0,0.0,0.0,0.0,0.0,0.0,0.0,0.0,0.0,0.0,0.0,0.0,0.0,0.0,0.0,0.0,0.0,-3.9416,-3.8692,0.0,0.0,0.0,-3.949,-3.949,0.0,0.0,0.0,0.0,0.0,0.0,0.0,0.0,0.0,0.0,0.0,0.0,0.0,0.0,0.0,0.0,0.0,0.0,0.0,0.0,0.0,0.0,0.0,0.0,0.0,0.0,0.0,0.0,0.0,0.0,0.0,0.0,0.0,0.0,0.0,0.0,0.0,0.0,0.0,0.0,0.0,0.0,0.0,0.0,0.0,0.0,0.0,0.0,0.0,0.0,0.0,0.0,0.0,0.0,0.0,0.0,0.0,-3.0999,-3.3234,-3.4397,-3.4397,-3.4397,-3.4397,-3.4371,-3.2594,0.0,0.0,0.0,0.0,0.0,0.0,0.0,0.0,0.0,0.0,0.0,0.0,0.0,0.0,0.0,0.0,0.0,0.0,0.0,0.0,0.0,0.0,0.0,0.0,0.0,0.0,0.0,-2.5066,0.0,0.0,0.0,0.0,0.0,0.0,0.0,0.0,0.0,0.0,0.0,0.0,0.0,0.0,-3.7984,-3.9305,-3.9093,-3.9213,0.0,0.0,-4.0108,-4.0262,-4.1447,-4.1124,0.0,0.0,0.0,0.0,0.0,0.0,0.0,0.0,0.0,0.0,0.0,0.0,0.0,0.0,0.0,0.0,0.0,0.0,0.0,0.0,0.0,0.0,0.0,0.0,0.0,0.0,0.0,0.0,0.0,0.0,0.0,0.0,0.0,0.0,0.0,0.0,0.0,0.0,0.0,0.0,0.0,0.0,0.0,0.0,0.0,0.0,0.0,0.0,0.0,0.0,0.0,0.0,0.0,0.0,0.0,-3.105,-3.3247,-3.4397,-3.4397,-3.4397,-3.4397,-3.4384,-3.377,-3.2633,0.0,0.0,0.0,0.0,0.0,0.0,0.0,0.0,0.0,0.0,0.0,0.0,0.0,0.0,0.0,0.0,0.0,0.0,0.0,0.0,0.0,0.0,0.0,0.0,0.0,0.0,0.0,0.0,0.0,0.0,0.0,0.0,0.0,0.0,0.0,0.0,0.0,0.0,0.0,0.0,0.0,-3.8,-3.9339,-3.9477,-3.9939,0.0,0.0,-4.1678,-4.2294,-4.3494,-4.3002,-3.9016,0.0,0.0,0.0,0.0,0.0,0.0,0.0,0.0,0.0,0.0,0.0,0.0,0.0,0.0,0.0,0.0,0.0,0.0,0.0,0.0,0.0,0.0,0.0,0.0,0.0,0.0,0.0,0.0,0.0,0.0,0.0,0.0,0.0,0.0,0.0,0.0,0.0,0.0,0.0,0.0,0.0,0.0,0.0,0.0,0.0,0.0,0.0,0.0,0.0,0.0,0.0,0.0,0.0,-2.9836,-3.0986,-3.3234,-3.4397,-3.4397,-3.4397,-3.4397,-3.4397,-3.3522,-3.2398,0.0,0.0,0.0,0.0,0.0,0.0,0.0,0.0,0.0,0.0,0.0,0.0,0.0,0.0,0.0,0.0,0.0,0.0,0.0,0.0,0.0,0.0,0.0,0.0,0.0,0.0,0.0,0.0,-2.8966,-2.9302,-2.8209,0.0,0.0,0.0,0.0,0.0,0.0,0.0,0.0,0.0,0.0,-3.7984,-3.929,-3.949,0.0,0.0,-4.1601,-4.1848,-4.2509,-4.3033,-4.2248,-3.9031,-3.8169,0.0,0.0,0.0,0.0,0.0,0.0,0.0,0.0,0.0,0.0,0.0,0.0,0.0,0.0,0.0,0.0,0.0,0.0,0.0,0.0,0.0,0.0,0.0,0.0,0.0,0.0,0.0,0.0,0.0,0.0,0.0,0.0,0.0,0.0,0.0,0.0,0.0,0.0,0.0,0.0,0.0,0.0,0.0,0.0,0.0,0.0,0.0,0.0,0.0,0.0,0.0,0.0,-2.9836,-3.1024,-3.3234,-3.4397,-3.4397,-3.4397,-3.4397,-3.4371,-3.3613,-3.2659,0.0,0.0,0.0,0.0,0.0,0.0,0.0,0.0,0.0,0.0,0.0,0.0,0.0,0.0,0.0,0.0,0.0,0.0,0.0,0.0,0.0,0.0,0.0,0.0,0.0,0.0,0.0,0.0,-2.9841,-2.9883,-2.8478,0.0,0.0,0.0,0.0,0.0,0.0,0.0,0.0,0.0,0.0,-3.8292,-3.9598,-3.9647,-4.0031,-4.1401,-4.1247,-4.134,-4.2432,-4.2432,-4.1586,-3.9462,0.0,0.0,0.0,0.0,0.0,0.0,0.0,0.0,0.0,0.0,0.0,0.0,0.0,0.0,0.0,0.0,0.0,0.0,0.0,0.0,0.0,0.0,0.0,0.0,0.0,0.0,0.0,0.0,0.0,0.0,-2.339,0.0,0.0,0.0,0.0,0.0,0.0,0.0,0.0,0.0,0.0,0.0,0.0,0.0,0.0,0.0,0.0,0.0,0.0,0.0,0.0,0.0,0.0,-2.9872,-3.1024,-3.3234,-3.4397,-3.4397,-3.4397,-3.4397,-3.4397,-3.4371,-3.3822,-3.2646,0.0,0.0,0.0,0.0,0.0,0.0,0.0,0.0,0.0,0.0,0.0,0.0,0.0,0.0,0.0,0.0,0.0,0.0,0.0,0.0,0.0,0.0,0.0,0.0,0.0,0.0,-2.6565,-2.7664,-2.8309,0.0,0.0,0.0,0.0,0.0,0.0,0.0,0.0,0.0,0.0,-3.8046,-3.8936,-4.0243,-3.989,-3.9967,-4.1386,-4.0478,-4.0293,-4.2294,-4.2032,-4.1355,0.0,0.0,0.0,0.0,0.0,0.0,0.0,0.0,0.0,0.0,0.0,0.0,0.0,0.0,0.0,0.0,0.0,0.0,0.0,0.0,0.0,0.0,0.0,0.0,0.0,0.0,0.0,-2.5459,-2.5116,0.0,0.0,0.0,0.0,0.0,0.0,0.0,0.0,0.0,0.0,0.0,-2.9434,-2.9728,0.0,0.0,0.0,0.0,0.0,0.0,0.0,0.0,0.0,0.0,0.0,0.0,-2.9836,-3.1026,-3.3234,-3.4397,-3.4397,-3.4397,-3.4397,-3.4397,-3.4397,-3.3679,-3.2163,0.0,0.0,0.0,0.0,0.0,0.0,0.0,0.0,0.0,0.0,0.0,0.0,0.0,0.0,0.0,0.0,0.0,0.0,0.0,0.0,0.0,0.0,0.0,0.0,0.0,-2.7457,0.0,0.0,0.0,0.0,0.0,0.0,0.0,0.0,0.0,0.0,0.0,-3.5257,-3.7242,-3.7707,-3.8323,-3.9677,-3.9644,-4.0016,0.0,0.0,0.0,0.0,0.0,0.0,0.0,0.0,0.0,0.0,0.0,0.0,0.0,0.0,-3.9847,-3.7584,-3.7153,-3.723,-3.7446,0.0,0.0,0.0,0.0,0.0,0.0,0.0,0.0,0.0,0.0,0.0,0.0,0.0,0.0,-2.699,0.0,-2.6683,0.0,0.0,0.0,0.0,0.0,0.0,0.0,0.0,-2.9335,-3.0304,-3.0984,-3.1306,-3.1277,0.0,-3.068,-2.9259,0.0,0.0,0.0,0.0,0.0,0.0,0.0,0.0,-3.0045,-3.1039,-3.3234,-3.4397,-3.4397,-3.4397,-3.4397,-3.4397,-3.4397,-3.3875,-3.2724,-3.2146,-3.097,0.0,0.0,0.0,0.0,0.0,0.0,0.0,0.0,0.0,0.0,0.0,0.0,0.0,0.0,0.0,0.0,0.0,0.0,0.0,0.0,0.0,0.0,0.0,-2.8463,0.0,0.0,0.0,0.0,0.0,0.0,0.0,0.0,0.0,-3.246,-3.4483,-3.6416,-3.7979,-3.8215,-3.86,-3.969,0.0,0.0,0.0,0.0,0.0,0.0,0.0,-4.0151,-4.052,-4.0785,-4.0885,-4.0616,-4.134,-4.1878,-4.1648,0.0,0.0,-3.9724,-3.9247,-3.9293,-3.9554,-3.92,-3.9,-3.9493,-3.9585,-3.9662,0.0,0.0,0.0,0.0,0.0,0.0,0.0,0.0,-2.8345,-2.8222,0.0,-2.8172,0.0,0.0,0.0,0.0,0.0,-2.8453,0.0,0.0,-3.2181,-3.3056,-3.2083,-3.2312,-3.2432,-3.2406,-3.1849,-3.1124,-3.0218,-2.9719,0.0,0.0,0.0,0.0,0.0,0.0,-3.0414,-3.1104,-3.3273,-3.4397,-3.4397,-3.4397,-3.4397,-3.4397,-3.4397,-3.4384,-3.4345,-3.338,-3.2529,-3.1849,-2.98,0.0,0.0,0.0,0.0,0.0,0.0,0.0,0.0,0.0,0.0,0.0,0.0,0.0,0.0,0.0,0.0,0.0,0.0,0.0,0.0,-2.8978,0.0,0.0,0.0,0.0,0.0,0.0,0.0,0.0,0.0,0.0,-3.4327,-3.5666,-3.728,-3.9223,0.0,0.0,0.0,0.0,-3.9721,-4.0413,-3.9431,-3.9044,-4.0351,-3.9829,-4.0034,-4.2191,0.0,0.0,-4.2544,-4.2648,-4.2494,-4.1832,-4.2823,-4.3439,-4.274,-4.1555,-4.0955,-4.1524,-4.0693,-4.0197,-4.134,-4.1678,-4.1848,-3.299,0.0,0.0,0.0,0.0,-2.9434,-2.9935,-3.1435,-3.076,-3.0244,-2.9905,-2.9905,0.0,0.0,0.0,0.0,0.0,0.0,-3.0084,-3.0815,-3.1838,-3.2571,-3.3,-3.321,-3.3418,-3.3625,-3.3429,-3.3292,-3.3182,-3.3012,-3.1091,-2.7568,0.0,0.0,0.0,0.0,-3.1222,-3.2228,-3.3652,-3.4397,-3.4397,-3.4397,-3.4397,-3.4397,-3.4397,-3.4397,-3.4397,-3.4672,-3.4364,-3.3342,-3.2841,0.0,0.0,0.0,0.0,0.0,0.0,0.0,0.0,0.0,0.0,0.0,0.0,0.0,0.0,0.0,0.0,0.0,0.0,0.0,-2.8403,-2.9869,-3.0161,0.0,0.0,0.0,0.0,0.0,0.0,0.0,0.0,0.0,-3.6293,-3.6813,-3.7711,0.0,0.0,-3.9046,-3.9674,-3.9613,-3.9721,-4.0397,-4.0166,0.0,-4.114,-4.0648,-4.068,-4.2314,-4.2898,-4.3153,-4.3294,-4.3732,-4.3956,-4.3778,-4.4071,-4.4255,-4.4048,-4.3725,-4.3479,-4.3648,-4.3387,-4.3233,-4.3618,-4.3725,-4.3756,-3.5497,-3.4761,-3.2951,-3.2561,-3.2899,-3.1622,-3.1992,-3.342,-3.2495,-3.1876,-3.1587,-3.1587,-3.0783,-2.939,-2.8963,0.0,0.0,0.0,-3.1009,-3.2064,-3.223,-3.268,-3.33,-3.3484,-3.3725,-3.3949,-3.3937,-3.4105,-3.4397,-3.4079,-3.2476,-2.9631,0.0,0.0,-2.9493,-3.0921,-3.1993,-3.2698,-3.3822,-3.4397,-3.4397,-3.4397,-3.4397,-3.4397,-3.4397,-3.4397,-3.4397,-3.4909,-3.4848,-3.4139,-3.4135,-3.2872,0.0,0.0,0.0,0.0,0.0,0.0,0.0,0.0,0.0,0.0,0.0,-2.6651,0.0,0.0,0.0,0.0,-2.8638,-2.9288,-3.0283,-3.0717,0.0,0.0,0.0,0.0,0.0,0.0,0.0,-3.3345,-3.521,-3.6739,-3.759,-3.7743,-3.8314,-3.9714,-3.9305,-3.9121,-3.9797,0.0,-4.0028,-4.0428,-4.0489,-4.0735,-4.1494,-4.1572,-4.2001,-4.3202,-4.3694,-4.3978,-4.4009,-4.4363,-4.4594,-4.461,-4.461,-4.461,-4.461,-4.461,-4.461,-4.461,-4.461,-4.461,-4.461,-4.461,-4.461,-3.7165,-3.7938,-3.4852,-3.4068,-3.4732,-3.3538,-3.3619,-3.4579,-3.3569,-3.3124,-3.3124,-3.3124,-3.2503,-3.1474,-3.0495,0.0,-3.1524,-3.1524,-3.2077,-3.3124,-3.3124,-3.3124,-3.3124,-3.327,-3.3484,-3.367,-3.3683,-3.3924,-3.433,-3.3641,-3.3083,-3.2777,-3.2764,-3.2215,-3.1235,-3.2202,-3.2777,-3.2842,-3.3875,-3.4397,-3.4397,-3.4397,-3.4397,-3.4397,-3.4397,-3.4397,-3.4397,-3.4397,-3.4439,-3.4483,-3.4244,-3.3473,-3.2065,0.0,0.0,0.0,0.0,0.0,0.0,0.0,0.0,0.0,0.0,0.0,0.0,0.0,0.0,0.0,-3.0791,0.0,-3.3074,-3.1796,0.0,0.0,0.0,-3.1254,-3.2571,-3.3706,-3.4626,-3.5354,0.0,0.0,-3.8227,-3.8492,-3.9048,-4.0343,-3.9951,-3.9782,-4.0397,-4.0474,-4.0489,-4.0489,-4.0489,-4.0751,-4.1494,-4.2428,-4.3389,-4.4286,-4.461,-4.4564,-4.4526,-4.4579,-4.461,-4.461,-4.461,-4.461,-4.461,-4.461,-4.461,-4.461,-4.461,-4.461,-4.461,-4.461,-4.461,-3.6589,-3.6733,-3.6734,-3.675,-3.6598,-3.4145,-3.3608,-3.4397,-3.3484,-3.3124,-3.3124,-3.3124,-3.296,-3.2696,-3.2403,-3.2483,-3.2679,-3.2667,-3.286,-3.3124,-3.3124,-3.3124,-3.3124,-3.3167,-3.3283,-3.3484,-3.3471,-3.3696,-3.4147,-3.3988,-3.3721,-3.3404,-3.3378,-3.3012,-3.2346,-3.3025,-3.3574,-3.3992,-3.4267,-3.4397,-3.4397,-3.4397,-3.4397,-3.4397,-3.4397,-3.4397,-3.4397,-3.4397,-3.4716,-3.5386,-3.5912,-3.544,-3.3761,-3.2064,0.0,0.0,0.0,0.0,0.0,0.0,0.0,0.0,0.0,-2.7729,-2.6489,0.0,-2.9087,0.0,-3.2527,-3.4048,-3.3805,-3.4506,0.0,0.0,-3.3687,-3.3851,-3.4489,-3.4747,-3.4943,-3.4941,-3.6584,-3.782,-3.8113,-3.9223,-4.0132,-4.0459,-4.0351,-4.032,-4.0474,-4.0489,-4.0489,-4.0489,-4.0489,-4.0751,-4.1509,-4.2669,-4.3753,-4.4502,-4.4594,-4.461,-4.461,-4.461,-4.461,-4.461,-4.461,-4.461,-4.461,-4.461,-4.461,-4.461,-4.461,-4.461,-4.461,-4.461,-4.4648,-3.6174,-3.6335,-3.647,-3.6722,-3.6921,-3.5439,-3.4855,-3.4909,-3.405,-3.3454,-3.3124,-3.3124,-3.3124,-3.3124,-3.3124,-3.3124,-3.3124,-3.3124,-3.3124,-3.3124,-3.3124,-3.3124,-3.3124,-3.3124,-3.3197,-3.3386,-3.3386,-3.3654,-3.4076,-3.4076,-3.4046,-3.3953,-3.3953,-3.3783,-3.3456,-3.3273,-3.3339,-3.3626,-3.3914,-3.4149,-3.4397,-3.4397,-3.4149,-3.3666,-3.3639,-3.3404,-3.2908,-3.2881,-3.3107,-3.3591,-3.4361,-3.4344,-3.3309,-3.201,-3.0485,0.0,0.0,0.0,0.0,0.0,0.0,0.0,0.0,0.0,0.0,0.0,-2.9947,-3.0514,-3.3013,-3.429,-3.3669,-3.4372,-3.4809,-3.4538,-3.4615,-3.4989,-3.585,-3.5934,-3.5985,-3.6245,-3.7334,-3.825,-3.8583,-3.9391,-4.0111,-4.0455,-4.0489,-4.0489,-4.0489,-4.0489,-4.0489,-4.0489,-4.0489,-4.0735,-4.1478,-4.2746,-4.3716,-4.4086,-4.4409,-4.461,-4.461,-4.461,-4.461,-4.461,-4.461,-4.461,-4.461,-4.461,-4.461,-4.461,-4.461,-4.461,-4.461,-4.4685,-4.4761,-3.5783,-3.619,-3.5354,-3.5461,-3.6248,-3.6745,-3.6436,-3.5467,-3.4592,-3.3823,-3.3124,-3.3124,-3.3124,-3.3124,-3.3124,-3.3124,-3.3124,-3.3124,-3.3124,-3.3124,-3.3124,-3.3124,-3.3124,-3.3124,-3.321,-3.3368,-3.3356,-3.3598,-3.4034,-3.4034,-3.4121,-3.4306,-3.4293,-3.4254,-3.4136,-3.3182,-3.2751,-3.2908,-3.3365,-3.3822,-3.428,-3.4297,-3.3788,-3.2791,-3.2804,-3.2381,-3.1325,-3.1272,-3.1235,-3.1161,-3.1992,-3.2444,-3.24,-3.1481,-3.0789,0.0,-2.8707,0.0,0.0,0.0,0.0,0.0,0.0,0.0,0.0,-3.1123,-3.128,-3.1357,-3.3098,-3.4011,-3.3482,-3.3629,-3.4101,-3.4944,-3.5172,-3.5664,-3.6788,-3.6897,-3.7116,-3.7724,-3.7875,-3.8213,-3.8782,-3.9139,-3.9585,-4.0181,-4.042,-4.0489,-4.0489,-4.0489,-4.0489,-4.0489,-4.0489,-4.0786,-4.1524,-4.2617,-4.3485,-4.3639,-4.4178,-4.4594,-4.461,-4.461,-4.461,-4.461,-4.461,-4.461,-4.461,-4.461,-4.461,-4.461,-4.461,-4.461,-4.4648,-4.4761,-4.4927,-3.517,-3.5066,-3.5366,-3.5129,-3.4764,-3.6478,-3.6217,-3.4592,-3.3738,-3.324,-3.3124,-3.3124,-3.3124,-3.3124,-3.3124,-3.3124,-3.3124,-3.3124,-3.3124,-3.3124,-3.3124,-3.3124,-3.3124,-3.3124,-3.3111,-3.3154,-3.3167,-3.3356,-3.3755,-3.3755,-3.3759,-3.3757,-3.3744,-3.3496,-3.3038,0.0,0.0,0.0,-3.3757,-3.3639,-3.3759,-3.3834,-3.3545,-3.2847,-3.342,0.0,-3.2668,-3.2627,-3.2354,-3.1873,-3.3087,0.0,0.0,0.0,0.0,0.0,0.0,0.0,0.0,0.0,0.0,0.0,-3.0467,-3.0361,-3.1459,-3.2804,-3.3558,-3.3397,-3.4913,-3.5722,-3.5271,-3.6388,-3.6968,-3.657,-3.7072,-3.7344,-3.7,-3.6897,-3.6741,-3.6203,-3.6741,-3.7193,-3.7448,-3.845,-3.9305,-3.9585,-4.0076,-4.0455,-4.0489,-4.0489,-4.0489,-4.0489,-4.0489,-4.0751,-4.1494,-4.2279,-4.3017,-4.3531,-4.4178,-4.4564,-4.461,-4.461,-4.461,-4.461,-4.461,-4.461,-4.461,-4.461,-4.461,-4.461,-4.461,-4.4648,-4.4799,-4.4874,-4.4986,-3.5082,0.0,-3.5188,-3.5107,0.0,-3.5561,-3.5185,-3.4126,-3.4288,-3.3882,-3.3124,-3.3124,-3.3124,-3.3124,-3.3124,-3.3124,-3.3124,-3.3124,-3.3124,-3.3124,-3.3124,-3.3124,-3.3124,-3.3124,-3.3154,-3.324,-3.324,-3.3484,-3.3894,-3.3907,-3.3933,-3.4005,-3.3979,-3.3835,-3.3548,-3.3535,-3.3692,-3.4005,-3.3718,-3.3718,-3.4007,-3.4513,-3.4301,-3.3406,-3.4164,0.0,0.0,0.0,0.0,0.0,0.0,0.0,0.0,-3.4438,0.0,-3.5448,-3.4608,-3.41,-3.4235,-3.4013,-3.409,-3.4673,-3.4292,-3.3822,-3.334,-3.5032,-3.6122,-3.5986,-3.6767,-3.7137,-3.694,-3.7625,-3.7951,-3.7548,-3.7852,-3.7762,-3.7078,-3.6897,-3.6584,-3.5911,-3.6057,-3.6427,-3.6844,-3.7539,-3.845,-3.9175,-3.9657,-4.0041,-4.042,-4.0489,-4.0489,-4.0489,-4.0489,-4.0612,-4.1063,-4.1986,-4.2679,-4.311,-4.3925,-4.4533,-4.461,-4.461,-4.461,-4.461,-4.461,-4.461,-4.461,-4.461,-4.461,-4.4723,-4.4739,-4.4836,-4.5114,-4.5039,-4.4949,-3.5115,-3.5063,-3.4868,-3.4961,-3.512,-3.4541,-3.4067,-3.3742,0.0,0.0,0.0,-3.3074,-3.3124,-3.3124,-3.3124,-3.3124,-3.3124,-3.3124,-3.3124,-3.3124,-3.3124,-3.3124,-3.3124,-3.3124,-3.3227,-3.3398,-3.3441,-3.3696,-3.4076,-3.4076,-3.4202,-3.4356,-3.4397,-3.4397,-3.4397,-3.4397,-3.4175,-3.3744,-3.3639,-3.3809,-3.4269,-3.5144,-3.5063,-3.3957,-3.4885,-3.4953,-3.3908,-3.3865,-3.3782,-3.3679,-3.3796,-3.4151,-3.4777,-3.5129,-3.5581,-3.6211,-3.6685,-3.7074,-3.7327,-3.7491,-3.7609,-3.7789,-3.7974,-3.7287,-3.5479,-3.7143,-3.8302,-3.8248,-3.8279,-3.825,-3.8101,-3.8086,-3.8086,-3.8086,-3.8086,-3.7838,-3.7232,-3.6961,-3.6624,-3.6017,-3.5831,-3.5937,-3.6545,-3.6858,-3.7333,-3.8524,-3.8942,-3.9391,-4.0095,-4.0385,-4.0489,-4.0489,-4.0505,-4.0536,-4.0843,-4.1735,-4.2571,-4.2879,-4.3833,-4.4564,-4.461,-4.461,-4.461,-4.461,-4.461,-4.461,-4.461,-4.461,-4.4648,-4.4799,-4.4874,-4.4986,-4.5262,-4.5151,-4.5002,-3.4783,-3.4501,-3.4481,-3.4122,-3.3571,-3.4015,-3.3696,-3.2883,-3.2729,-3.2525,-3.2365,-3.2855,-3.3124,-3.3124,-3.3124,-3.3124,-3.3124,-3.3124,-3.3124,-3.3124,-3.3124,-3.3124,-3.3124,-3.3283,-3.3356,-3.3386,-3.3543,-3.381,-3.4076,-3.4118,-3.4189,-3.4356,-3.4397,-3.4397,-3.4397,-3.4397,-3.4358,-3.428,-3.3835,-3.3626,-3.3746,-3.4692,-3.4813,-3.4214,-3.5543,-3.5986,-3.5258,-3.521,-3.4968,-3.4438,-3.4887,-3.5488,-3.6126,-3.6881,-3.7831,-3.8998,-3.9329,-3.949,-3.9516,-3.8886,-3.8297,-3.7907,-3.8583,-3.848,-3.7149,-3.8297,-3.9046,-3.881,-3.9003,-3.8818,-3.8213,-3.8175,-3.8198,-3.8138,-3.8086,-3.8026,-3.7927,-3.7295,-3.6858,-3.6663,-3.6084,-3.571,-3.5937,-3.6466,-3.6936,-3.7295,-3.8063,-3.862,-3.9427,-4.006,-4.0455,-4.0489,-4.0489,-4.0751,-4.1309,-4.2027,-4.2765,-4.3393,-4.4048,-4.4518,-4.461,-4.461,-4.461,-4.461,-4.461,-4.461,-4.461,-4.461,-4.4648,-4.4685,-4.4799,-4.4964,-4.5077,-4.5114,-4.5294,-3.4698,-3.4549,-3.4448,-3.4182,-3.3839,-3.3727,-3.3409,-3.2905,-3.2215,-3.1881,-3.1775,-3.2051,-3.2328,-3.2604,-3.2616,-3.278,-3.3124,-3.3124,-3.3124,-3.3124,-3.3124,-3.3124,-3.3124,-3.321,-3.3356,-3.3556,-3.367,-3.3882,-3.4243,-3.4243,-3.4314,-3.4397,-3.4397,-3.4397,-3.4397,-3.4397,-3.4397,-3.4384,-3.4149,-3.4031,-3.406,-3.5384,-3.5939,-3.5644,-3.7191,-3.7943,-3.7644,-3.7629,-3.7476,-3.7168,-3.7456,-3.7744,-3.8017,-3.8602,-3.9169,-3.9687,-4.0051,-4.0226,-4.0172,-3.9864,-3.9535,-3.9305,-3.9692,-3.9703,-3.9074,-3.9617,-3.9895,-3.9766,-3.9889,-3.9799,-3.9427,-3.9391,-3.9391,-3.9412,-3.9052,-3.8745,-3.8598,-3.7639,-3.6897,-3.6819,-3.6217,-3.5723,-3.571,-3.6017,-3.648,-3.6883,-3.789,-3.8855,-3.9262,-4.0325,-4.092,-4.0612,-4.0812,-4.1201,-4.1566,-4.2062,-4.2748,-4.3451,-4.3754,-4.4113,-4.4442,-4.461,-4.461,-4.461,-4.461,-4.461,-4.461,-4.461,-4.4685,-4.4889,-4.4964,-4.5114,-4.5315,-4.5463,-4.5552,-3.4664,-3.4631,-3.4481,-3.4298,-3.4079,-3.3485,-3.3003,-3.2618,-3.1856,-3.1331,-3.1103,-3.1273,-3.1625,-3.2001,-3.2039,-3.234,-3.283,-3.288,-3.2998,-3.3124,-3.3124,-3.3124,-3.3154,-3.3197,-3.3441,-3.3755,-3.3852,-3.405,-3.4356,-3.4397,-3.4397,-3.4397,-3.4397,-3.4397,-3.4397,-3.4397,-3.4397,-3.4397,-3.4397,-3.4397,-3.4439,-3.6029,-3.688,-3.7011,-3.8494,-3.9388,-3.9388,-3.9388,-3.9388,-3.9388,-3.9388,-3.9388,-3.9424,-3.9747,-3.9839,-3.9768,-4.0176,-4.042,-4.0366,-4.0436,-4.0489,-4.0489,-4.0489,-4.0489,-4.0489,-4.0489,-4.0489,-4.0489,-4.047,-4.0455,-4.042,-4.0455,-4.042,-4.0231,-3.9692,-3.916,-3.8928,-3.789,-3.7078,-3.6883,-3.6362,-3.5937,-3.575,-3.571,-3.5937,-3.6624,-3.7866,-3.8752,-3.9069,-4.0308,-4.1026,-4.1,-4.1321,-4.1894,-4.1996,-4.2152,-4.2643,-4.341,-4.3423,-4.3633,-4.4135,-4.4419,-4.4572,-4.461,-4.461,-4.461,-4.461,-4.461,-4.4723,-4.5017,-4.5145,-4.5331,-4.5662,-4.5735,-4.5735,-3.4597,-3.4448,-3.4414,-3.3962,-3.3367,-3.3262,-3.2492,-3.1341,-3.1035,-3.0572,-3.0263,-3.0947,-3.1427,-3.1449,-3.1461,-3.1804,-3.2277,-3.229,-3.2579,-3.3018,-3.3124,-3.3197,-3.3356,-3.3556,-3.381,-3.4034,-3.4189,-3.4314,-3.4397,-3.4397,-3.4397,-3.4397,-3.4397,-3.4397,-3.4397,-3.4397,-3.4397,-3.4397,-3.4397,-3.4397,-3.4481,-3.6029,-3.6894,-3.6919,-3.8509,-3.9388,-3.9388,-3.9388,-3.9388,-3.9388,-3.9388,-3.9388,-3.9424,-3.9625,-3.9732,-3.9717,-4.0086,-4.0381,-4.047,-4.0489,-4.0489,-4.0489,-4.0489,-4.0489,-4.0489,-4.0489,-4.0489,-4.0489,-4.0489,-4.0489,-4.0489,-4.0489,-4.0216,-3.9606,-3.9391,-3.9052,-3.8413,-3.8101,-3.7724,-3.6975,-3.678,-3.652,-3.5871,-3.571,-3.575,-3.5911,-3.685,-3.7681,-3.8157,-3.9618,-4.0808,-4.1152,-4.1884,-4.2631,-4.3008,-4.2728,-4.2566,-4.3069,-4.3249,-4.3284,-4.3521,-4.4097,-4.461,-4.4572,-4.461,-4.461,-4.461,-4.461,-4.4685,-4.4927,-4.5129,-4.5331,-4.5698,-4.5807,-4.5771,-3.4481,-3.438,-3.438,-3.4216,-3.3928,-3.3928,-3.3555,-3.2946,-3.2456,-3.211,-3.1813,-3.1821,-3.15,-3.0962,-3.139,-3.1656,-3.1738,-3.2064,-3.234,-3.2591,-3.2918,-3.3197,-3.3386,-3.3471,-3.3738,-3.4076,-3.4202,-3.4259,-3.4397,-3.4397,-3.4397,-3.4397,-3.4397,-3.4397,-3.4397,-3.4397,-3.4634,-3.5155,-3.5196,-3.5386,-3.5869,-3.6529,-3.7165,-3.7744,-3.8811,-3.9388,-3.9388,-3.9388,-3.9388,-3.9388,-3.9388,-3.9388,-3.9388,-3.9589,-3.9717,-3.9717,-4.0086,-4.0366,-4.0505,-4.0489,-4.0489,-4.0489,-4.0489,-4.0489,-4.0489,-4.0489,-4.0489,-4.0489,-4.0489,-4.0489,-4.0489,-4.0489,-4.0196,-3.9499,-3.9305,-3.8979,-3.8213,-3.8086,-3.7776,-3.7039,-3.6897,-3.6584,-3.5911,-3.571,-3.571,-3.5845,-3.6678,-3.7464,-3.7889,-3.9438,-4.0647,-4.1057,-4.174,-4.2333,-4.2687,-4.1956,-4.1791,-4.2161,-4.2029,-4.185,-4.3126,-4.3482,-4.3966,-4.4496,-4.4572,-4.461,-4.461,-4.461,-4.4648,-4.4874,-4.5188,-4.5478,-4.5735,-4.5807,-4.5807,-3.4922,-3.4922,-3.4922,-3.4936,-3.4936,-3.4936,-3.4799,-3.4562,-3.3995,-3.3626,-3.337,-3.2872,-3.2019,-3.1098,-3.1345,-3.1344,-3.1279,-3.1738,-3.2077,-3.2265,-3.2877,-3.3283,-3.3471,-3.3569,-3.3823,-3.4118,-3.4202,-3.4243,-3.4397,-3.4675,-3.4758,-3.4744,-3.4744,-3.4758,-3.4758,-3.4758,-3.5073,-3.5669,-3.5896,-3.6439,-3.7141,-3.7256,-3.7577,-3.8188,-3.8973,-3.9388,-3.9388,-3.9388,-3.9388,-3.9388,-3.9388,-3.9388,-3.9388,-3.9568,-3.9646,-3.9803,-4.0086,-4.0366,-4.0489,-4.0489,-4.0489,-4.0489,-4.0489,-4.0489,-4.0489,-4.0489,-4.0489,-4.0489,-4.0301,-4.0181,-4.0489,-4.0301,-3.9849,-3.9088,-3.8818,-3.8376,-3.7838,-3.7762,-3.751,-3.7,-3.6897,-3.6584,-3.5897,-3.571,-3.571,-3.5845,-3.6672,-3.7574,-3.7918,-3.9315,-4.0598,-4.0814,-4.1301,-4.177,-4.2054,-4.1406,-4.1085,-4.1169,-4.1071,-4.1309,-4.267,-4.3006,-4.36,-4.4381,-4.4496,-4.461,-4.461,-4.461,-4.4685,-4.4964,-4.5241,-4.5552,-4.5771,-4.5807,-4.5807,-3.6228,-3.6185,-3.6199,-3.6156,-3.6199,-3.617,-3.5798,-3.5192,-3.5102,-3.4697,-3.4111,-3.4088,-3.3266,-3.1937,-3.1516,-3.0881,-3.0738,-3.1251,-3.1766,-3.2315,-3.2992,-3.3484,-3.3725,-3.3937,-3.4147,-3.4356,-3.4356,-3.4397,-3.4522,-3.5182,-3.5629,-3.5629,-3.5629,-3.5615,-3.5629,-3.5615,-3.5655,-3.5936,-3.6517,-3.7256,-3.8023,-3.815,-3.8165,-3.8315,-3.901,-3.9388,-3.9388,-3.9388,-3.9388,-3.9388,-3.9388,-3.9388,-3.9409,-3.9424,-3.9604,-3.996,-4.0172,-4.0381,-4.0489,-4.0489,-4.0489,-4.0489,-4.0489,-4.0489,-4.0489,-4.0489,-4.0489,-4.0489,-3.992,-3.9814,-4.0231,-3.9849,-3.9124,-3.831,-3.7587,-3.7271,-3.7,-3.7141,-3.6975,-3.6858,-3.678,-3.648,-3.579,-3.571,-3.575,-3.5873,-3.6307,-3.696,-3.7728,-3.888,-3.9873,-4.0379,-4.0675,-4.0958,-4.167,-4.1028,-4.0575,-4.0617,-4.0617,-4.0887,-4.1838,-4.2725,-4.3576,-4.4289,-4.4496,-4.461,-4.461,-4.4648,-4.4814,-4.5017,-4.5257,-4.5531,-4.5735,-4.5771,-4.5807,-3.6286,-3.6286,-3.6286,-3.6286,-3.6286,-3.6286,-3.6122,-3.5928,-3.5892,-3.5733,-3.5508,-3.554,-3.4955,-3.3991,-3.3771,-3.2654,-3.1124,-3.128,-3.1934,-3.281,-3.3248,-3.3611,-3.3949,-3.4076,-3.4189,-3.4356,-3.4397,-3.4675,-3.5237,-3.5534,-3.5976,-3.6385,-3.6464,-3.6464,-3.6464,-3.6464,-3.6727,-3.7246,-3.7606,-3.8136,-3.8848,-3.8958,-3.8958,-3.8958,-3.9228,-3.9388,-3.9388,-3.9388,-3.9388,-3.9388,-3.9388,-3.9445,-3.9589,-3.9711,-3.9889,-4.0172,-4.0277,-4.0366,-4.0489,-4.0489,-4.0489,-4.0489,-4.0489,-4.0489,-4.0489,-4.0489,-4.0489,-4.042,-4.0281,-4.0076,-3.9692,-3.9463,-3.8979,-3.8287,-3.8264,-3.7866,-3.7256,-3.7319,-3.7281,-3.6427,-3.6123,-3.5977,-3.5831,-3.571,-3.5873,-3.6266,-3.6767,-3.735,-3.8016,-3.8876,-3.9589,-3.9711,-3.9793,-4.0071,-4.0944,-4.0317,-3.9779,-3.9793,-3.9911,-4.0674,-4.1561,-4.2114,-4.2845,-4.4251,-4.4572,-4.461,-4.461,-4.461,-4.4776,-4.5092,-4.5331,-4.5494,-4.575,-4.5787,-4.5807,-3.6925,-3.6925,-3.6925,-3.691,-3.6925,-3.6925,-3.691,-3.6925,-3.691,-3.6925,-3.6896,-3.6722,-3.6244,-3.5608,-3.5393,-3.4463,-3.2839,-3.2685,-3.2949,-3.3613,-3.4163,-3.4607,-3.4827,-3.4716,-3.4827,-3.5169,-3.521,-3.5413,-3.5736,-3.6269,-3.6805,-3.7295,-3.7333,-3.7333,-3.7333,-3.7347,-3.7615,-3.8113,-3.8427,-3.8885,-3.9352,-3.9388,-3.9388,-3.9388,-3.9388,-3.9388,-3.9388,-3.9388,-3.9388,-3.9424,-3.9445,-3.9589,-3.9768,-3.9996,-4.0137,-4.0277,-4.0331,-4.0401,-4.0489,-4.0489,-4.0489,-4.0489,-4.0489,-4.0489,-4.0489,-4.0489,-4.037,-4.0216,-4.0111,-3.9814,-3.9175,-3.8891,-3.8598,-3.7875,-3.7988,-3.7852,-3.7039,-3.7141,-3.6752,-3.6017,-3.575,-3.571,-3.571,-3.571,-3.5995,-3.6524,-3.7106,-3.7702,-3.8342,-3.8912,-3.9305,-3.9305,-3.9349,-3.9587,-4.0201,-4.0027,-4.0027,-4.0027,-3.9763,-4.0474,-4.1226,-4.1701,-4.2563,-4.3966,-4.461,-4.461,-4.461,-4.461,-4.4814,-4.5092,-4.5257,-4.5383,-4.5589,-4.5823,-4.5807,-3.8159,-3.8101,-3.8188,-3.8072,-3.8043,-3.8028,-3.813,-3.8057,-3.8086,-3.7999,-3.7883,-3.7535,-3.7038,-3.6473,-3.6065,-3.5725,-3.5682,-3.5304,-3.4923,-3.4703,-3.5778,-3.6371,-3.6385,-3.5816,-3.5843,-3.6503,-3.6738,-3.6425,-3.6016,-3.7246,-3.8037,-3.8165,-3.8202,-3.8188,-3.8202,-3.8188,-3.8202,-3.8427,-3.8958,-3.9352,-3.9388,-3.9388,-3.9388,-3.9388,-3.9388,-3.9388,-3.9388,-3.9388,-3.9388,-3.9424,-3.9589,-3.9783,-3.996,-4.0172,-4.0312,-4.0331,-4.0401,-4.0505,-4.0489,-4.0489,-4.0489,-4.0489,-4.0489,-4.0489,-4.0489,-4.0489,-4.0231,-3.9743,-3.9514,-3.9124,-3.8399,-3.8198,-3.7951,-3.7039,-3.6727,-3.648,-3.6677,-3.6217,-3.575,-3.571,-3.571,-3.571,-3.5723,-3.5805,-3.609,-3.6659,-3.7256,-3.7824,-3.8464,-3.9007,-3.9264,-3.9305,-3.9469,-3.9749,-3.9867,-3.9984,-4.0346,-4.0546,-4.0172,-4.0315,-4.1141,-4.1769,-4.2548,-4.381,-4.4534,-4.4572,-4.461,-4.461,-4.4814,-4.5055,-4.5182,-4.5331,-4.5589,-4.5807,-4.5807,-3.8202,-3.8202,-3.8202,-3.8202,-3.8202,-3.8202,-3.8202,-3.8202,-3.8202,-3.8202,-3.8211,-3.8162,-3.8023,-3.7891,-3.7761,-3.7623,-3.7481,-3.7645,-3.7306,-3.651,-3.6553,-3.6724,-3.6699,-3.6082,-3.583,-3.6056,-3.6082,-3.661,-3.7376,-3.7947,-3.8427,-3.8922,-3.901,-3.9046,-3.8995,-3.9046,-3.9031,-3.9031,-3.9265,-3.9388,-3.9388,-3.9388,-3.9388,-3.9388,-3.9388,-3.9388,-3.9388,-3.9388,-3.9388,-3.9388,-3.9445,-3.964,-3.996,-4.0277,-4.0436,-4.042,-4.0455,-4.0489,-4.0489,-4.0489,-4.0489,-4.0489,-4.0489,-4.0489,-4.0489,-4.0489,-4.037,-4.0111,-4.0111,-3.9621,-3.8436,-3.8086,-3.7951,-3.7738,-3.7025,-3.652,-3.6663,-3.6163,-3.579,-3.571,-3.571,-3.571,-3.5805,-3.5981,-3.651,-3.7107,-3.7675,-3.8315,-3.8884,-3.9142,-3.9292,-3.9305,-3.9675,-3.9984,-3.9984,-4.0287,-4.0745,-4.0887,-4.0617,-4.0674,-4.138,-4.2017,-4.279,-4.3521,-4.4212,-4.4534,-4.4572,-4.4648,-4.4814,-4.5017,-4.5182,-4.5442,-4.5698,-4.5807,-4.5807,-3.8202,-3.8202,-3.8202,-3.8202,-3.8202,-3.8202,-3.8202,-3.8202,-3.8202,-3.8202,-3.824,-3.8389,-3.8538,-3.8649,-3.8833,-3.8794,-3.8627,-3.9013,-3.8809,-3.8084,-3.7814,-3.7701,-3.7791,-3.7333,-3.6674,-3.636,-3.6791,-3.7424,-3.8165,-3.8516,-3.8885,-3.9352,-3.9388,-3.9388,-3.9388,-3.9388,-3.9388,-3.9388,-3.9388,-3.9388,-3.9388,-3.9388,-3.9388,-3.9388,-3.9388,-3.9388,-3.9388,-3.9388,-3.9388,-3.9424,-3.9532,-3.9818,-4.0156,-4.0385,-4.0489,-4.0489,-4.0489,-4.0489,-4.0489,-4.0489,-4.0489,-4.0489,-4.0489,-4.0489,-4.0489,-4.0489,-4.042,-4.0111,-4.0301,-3.9834,-3.8436,-3.8086,-3.7988,-3.7663,-3.6869,-3.6466,-3.6375,-3.6031,-3.575,-3.571,-3.571,-3.571,-3.5832,-3.6239,-3.6822,-3.7404,-3.8,-3.864,-3.9102,-3.9292,-3.9305,-3.9513,-3.9998,-4.0158,-4.0114,-4.0532,-4.1127,-4.1197,-4.1071,-4.1449,-4.2029,-4.2467,-4.3086,-4.3771,-4.4458,-4.4572,-4.461,-4.461,-4.4701,-4.4942,-4.522,-4.5442,-4.5677,-4.5771,-4.5807,-3.8202,-3.8202,-3.8202,-3.8202,-3.8202,-3.8202,-3.8202,-3.8202,-3.8202,-3.8202,-3.824,-3.8441,-3.8612,-3.8797,-3.9017,-3.9184,-3.9373,-3.9343,-3.9337,-3.9241,-3.9141,-3.9053,-3.887,-3.876,-3.8084,-3.7372,-3.8323,-3.876,-3.8464,-3.8995,-3.9388,-3.9388,-3.9388,-3.9388,-3.9388,-3.9388,-3.9388,-3.9388,-3.9388,-3.9388,-3.9388,-3.9388,-3.9388,-3.9388,-3.9388,-3.9388,-3.9388,-3.9388,-3.9388,-3.946,-3.9747,-4.0066,-4.0366,-4.0455,-4.0489,-4.0489,-4.0489,-4.0489,-4.0489,-4.0489,-4.0489,-4.0489,-4.0489,-4.0489,-4.0489,-4.0489,-4.0266,-3.9763,-4.0146,-3.9884,-3.862,-3.825,-3.789,-3.7,-3.6322,-3.5871,-3.575,-3.5723,-3.571,-3.571,-3.571,-3.571,-3.5764,-3.628,-3.6931,-3.7418,-3.8068,-3.8776,-3.9115,-3.9305,-3.9305,-3.9631,-4.0071,-4.0041,-3.9954,-4.0958,-4.1561,-4.1589,-4.1616,-4.207,-4.2412,-4.275,-4.3126,-4.3849,-4.4496,-4.4572,-4.4648,-4.4685,-4.4852,-4.5129,-4.5331,-4.5457,-4.5604,-4.575,-4.5807,-3.8202,-3.8202,-3.8202,-3.8202,-3.8202,-3.8202,-3.8202,-3.8202,-3.8202,-3.8202,-3.8277,-3.8575,-3.876,-3.8819,-3.9177,-3.9337,-3.9388,-3.9388,-3.9388,-3.9388,-3.9388,-3.8995,-3.8627,-3.8553,-3.8337,-3.7985,-3.8389,-3.8686,-3.9083,-3.9265,-3.9388,-3.9388,-3.9388,-3.9388,-3.9388,-3.9388,-3.9388,-3.9388,-3.9388,-3.9388,-3.9388,-3.9388,-3.9388,-3.9388,-3.9388,-3.9388,-3.9388,-3.9388,-3.9388,-3.9424,-3.9783,-4.0031,-4.0172,-4.0366,-4.0489,-4.0489,-4.0489,-4.0489,-4.0489,-4.0489,-4.0489,-4.0489,-4.0489,-4.0489,-4.0489,-4.0489,-4.037,-4.0231,-4.042,-4.0111,-3.9196,-3.8928,-3.8302,-3.7092,-3.6322,-3.5831,-3.571,-3.571,-3.571,-3.571,-3.571,-3.5723,-3.5954,-3.655,-3.7255,-3.7634,-3.8355,-3.9061,-3.9251,-3.9305,-3.9305,-3.9587,-3.9867,-3.9793,-4.0099,-4.1184,-4.1852,-4.1976,-4.2167,-4.2589,-4.279,-4.2871,-4.3165,-4.3576,-4.4366,-4.4648,-4.4761,-4.4836,-4.5077,-4.5331,-4.5405,-4.5515,-4.5662,-4.5807,-4.5807,-3.8202,-3.8202,-3.8202,-3.8202,-3.8202,-3.8202,-3.8202,-3.8202,-3.8202,-3.824,-3.8389,-3.8634,-3.8855,-3.8995,-3.9265,-3.9388,-3.9388,-3.9388,-3.9388,-3.9388,-3.9388,-3.9156,-3.8811,-3.8701,-3.8701,-3.8686,-3.8701,-3.8958,-3.9316,-3.9388,-3.9388,-3.9388,-3.9388,-3.9388,-3.9388,-3.9388,-3.9388,-3.9388,-3.9388,-3.9388,-3.9388,-3.9388,-3.9388,-3.9388,-3.9388,-3.9388,-3.9388,-3.9496,-3.9568,-3.9676,-3.9889,-4.0066,-4.0207,-4.0385,-4.0489,-4.0489,-4.0489,-4.0489,-4.0489,-4.0489,-4.0489,-4.0489,-4.0489,-4.0489,-4.0489,-4.0489,-4.0489,-4.0489,-4.0489,-4.0091,-3.9442,-3.9015,-3.8376,-3.7601,-3.6986,-3.6427,-3.5831,-3.571,-3.571,-3.571,-3.5723,-3.5845,-3.6049,-3.6958,-3.7485,-3.7946,-3.8695,-3.9102,-3.9305,-3.9305,-3.9455,-3.9823,-4.0417,-4.0645,-4.0845,-4.1738,-4.2478,-4.2559,-4.2951,-4.3324,-4.3364,-4.3324,-4.3615,-4.3966,-4.4442,-4.4761,-4.4874,-4.4986,-4.5167,-4.5368,-4.5442,-4.5589,-4.5735,-4.5807,-4.5807,-3.8225,-3.824,-3.8277,-3.824,-3.824,-3.8277,-3.8315,-3.8277,-3.8315,-3.8389,-3.8538,-3.876,-3.8943,-3.9104,-3.9301,-3.9388,-3.9388,-3.9388,-3.9388,-3.9388,-3.9388,-3.9316,-3.928,-3.9228,-3.928,-3.9265,-3.9388,-3.9352,-3.9388,-3.9388,-3.9388,-3.9388,-3.9388,-3.9388,-3.9388,-3.9388,-3.9388,-3.9388,-3.9388,-3.9388,-3.9388,-3.9388,-3.9388,-3.9388,-3.9388,-3.9424,-3.9496,-3.9625,-3.9768,-4.0031,-4.0031,-4.0172,-4.042,-4.047,-4.0489,-4.0489,-4.0489,-4.0489,-4.0489,-4.0489,-4.0489,-4.0489,-4.0489,-4.0489,-4.0489,-4.0489,-4.0489,-4.0489,-4.0489,-4.0196,-3.9657,-3.8855,-3.8524,-3.8302,-3.8175,-3.7472,-3.6387,-3.5897,-3.5777,-3.571,-3.571,-3.5995,-3.6537,-3.7148,-3.7702,-3.8165,-3.8817,-3.9169,-3.9424,-3.9618,-3.9911,-4.0317,-4.1,-4.1825,-4.2041,-4.2361,-4.2902,-4.3343,-4.3834,-4.4174,-4.4159,-4.4212,-4.4419,-4.4663,-4.4761,-4.4874,-4.5039,-4.5151,-4.5331,-4.5442,-4.5589,-4.5662,-4.575,-4.5787,-4.5807,-3.8575,-3.8441,-3.8612,-3.8575,-3.8478,-3.8612,-3.8671,-3.8671,-3.8671,-3.8686,-3.8797,-3.8943,-3.9053,-3.9141,-3.9316,-3.9388,-3.9388,-3.9388,-3.9388,-3.9388,-3.9388,-3.9388,-3.9388,-3.9388,-3.9388,-3.9388,-3.9388,-3.9388,-3.9388,-3.9388,-3.9388,-3.9388,-3.9388,-3.9388,-3.9388,-3.9388,-3.9388,-3.9388,-3.9388,-3.9388,-3.9388,-3.9388,-3.9424,-3.9424,-3.9424,-3.9496,-3.961,-3.9696,-3.9874,-4.0137,-4.0242,-4.0261,-4.0366,-4.047,-4.0489,-4.0489,-4.0489,-4.0489,-4.0489,-4.0489,-4.0489,-4.0489,-4.0489,-4.0489,-4.0489,-4.0489,-4.0489,-4.0489,-4.0489,-4.037,-4.0146,-4.0076,-3.9621,-3.9196,-3.9015,-3.8672,-3.7738,-3.7,-3.6441,-3.5977,-3.5804,-3.594,-3.6537,-3.7161,-3.7758,-3.8342,-3.886,-3.9224,-3.9631,-4.0041,-4.0532,-4.1113,-4.1616,-4.236,-4.2761,-4.3006,-4.3431,-4.3843,-4.4274,-4.4648,-4.4648,-4.4648,-4.4701,-4.4761,-4.4874,-4.5024,-4.5188,-4.5352,-4.5515,-4.5625,-4.5735,-4.575,-4.5787,-4.5807,-4.5807,-3.8708,-3.8649,-3.8745,-3.876,-3.8701,-3.876,-3.8782,-3.8782,-3.8782,-3.887,-3.8943,-3.9053,-3.9141,-3.9213,-3.9337,-3.9388,-3.9388,-3.9388,-3.9388,-3.9388,-3.9388,-3.9388,-3.9388,-3.9388,-3.9388,-3.9388,-3.9388,-3.9388,-3.9388,-3.9388,-3.9388,-3.9388,-3.9388,-3.9388,-3.9388,-3.9388,-3.9388,-3.9388,-3.9388,-3.9388,-3.9388,-3.9388,-3.946,-3.9517,-3.9553,-3.9625,-3.9818,-3.9945,-4.0086,-4.0261,-4.0366,-4.0401,-4.0401,-4.0455,-4.0489,-4.0489,-4.0489,-4.0489,-4.0489,-4.0489,-4.0489,-4.0489,-4.0489,-4.0489,-4.0489,-4.0489,-4.0489,-4.0489,-4.0489,-4.0489,-4.0489,-4.0489,-4.0181,-4.0025,-3.9849,-3.9499,-3.8745,-3.7965,-3.7372,-3.683,-3.6584,-3.6927,-3.7331,-3.7744,-3.8458,-3.936,-3.9697,-4.0114,-4.0816,-4.1226,-4.1589,-4.2044,-4.2371,-4.2831,-4.3309,-4.3672,-4.3982,-4.4259,-4.4442,-4.4685,-4.4761,-4.4761,-4.4776,-4.4874,-4.5024,-4.5225,-4.5389,-4.5552,-4.5625,-4.5698,-4.5771,-4.5807,-4.5807,-4.5807,-4.5807,-3.8855,-3.8855,-3.8855,-3.8855,-3.8855,-3.8855,-3.8892,-3.8907,-3.8907,-3.9017,-3.9104,-3.9156,-3.9265,-3.9388,-3.9388,-3.9388,-3.9388,-3.9388,-3.9388,-3.9388,-3.9388,-3.9388,-3.9388,-3.9388,-3.9388,-3.9388,-3.9388,-3.9388,-3.9388,-3.9388,-3.9388,-3.9388,-3.9388,-3.9388,-3.9388,-3.9388,-3.9388,-3.9388,-3.9388,-3.9388,-3.9388,-3.9388,-3.9496,-3.9661,-3.9732,-3.9854,-4.0031,-4.0172,-4.0312,-4.0347,-4.0436,-4.0489,-4.0489,-4.0489,-4.0489,-4.0489,-4.0489,-4.0489,-4.0489,-4.0489,-4.0489,-4.0489,-4.0489,-4.0489,-4.0489,-4.0489,-4.0489,-4.0489,-4.0489,-4.0489,-4.0489,-4.0489,-4.0489,-4.042,-4.0455,-4.0181,-3.96,-3.8914,-3.8715,-3.7904,-3.7691,-3.7918,-3.8368,-3.8822,-3.9578,-4.028,-4.059,-4.1014,-4.1713,-4.2237,-4.2508,-4.2871,-4.315,-4.3442,-4.3873,-4.3989,-4.4335,-4.4465,-4.461,-4.4723,-4.4836,-4.4927,-4.4964,-4.5077,-4.5225,-4.5426,-4.5552,-4.5662,-4.5735,-4.5807,-4.5807,-4.5807,-4.5807,-4.5807,-4.5807,-3.9177,-3.9053,-3.9213,-3.9213,-3.9104,-3.9228,-3.9265,-3.9301,-3.9265,-3.9301,-3.9337,-3.9337,-3.9337,-3.9388,-3.9388,-3.9388,-3.9388,-3.9388,-3.9388,-3.9388,-3.9388,-3.9388,-3.9388,-3.9388,-3.9388,-3.9388,-3.9388,-3.9388,-3.9388,-3.9388,-3.9388,-3.9388,-3.9388,-3.9388,-3.9388,-3.9388,-3.9388,-3.9388,-3.9388,-3.9388,-3.9388,-3.9409,-3.9517,-3.9717,-3.9874,-4.0066,-4.0207,-4.0277,-4.0347,-4.047,-4.0505,-4.0489,-4.0489,-4.0489,-4.0489,-4.0489,-4.0489,-4.0489,-4.0489,-4.0489,-4.0489,-4.0489,-4.0489,-4.0489,-4.0489,-4.0489,-4.0489,-4.0489,-4.0489,-4.0489,-4.0489,-4.0489,-4.0489,-4.0489,-4.0566,-4.0497,-4.0399,-4.0441,-4.0072,-3.9017,-3.8882,-3.9049,-3.956,-4.0017,-4.0576,-4.1202,-4.1612,-4.1891,-4.2371,-4.2845,-4.3165,-4.3521,-4.3888,-4.4159,-4.448,-4.4442,-4.4518,-4.4518,-4.4648,-4.4761,-4.4874,-4.5039,-4.5167,-4.5315,-4.5426,-4.5552,-4.5662,-4.5771,-4.5771,-4.5807,-4.5807,-4.5807,-4.5807,-4.5807,-4.5807,-3.9337,-3.9265,-3.9388,-3.9352,-3.9265,-3.9337,-3.9388,-3.9388,-3.9388,-3.9388,-3.9388,-3.9388,-3.9388,-3.9388,-3.9388,-3.9388,-3.9388,-3.9388,-3.9388,-3.9388,-3.9388,-3.9388,-3.9388,-3.9388,-3.9388,-3.9388,-3.9388,-3.9388,-3.9388,-3.9388,-3.9388,-3.9388,-3.9388,-3.9388,-3.9388,-3.9388,-3.9388,-3.9388,-3.9388,-3.9388,-3.9424,-3.9481,-3.9661,-3.9854,-4.0066,-4.0242,-4.0366,-4.0401,-4.0436,-4.0505,-4.0489,-4.0489,-4.0489,-4.0489,-4.0489,-4.0489,-4.0489,-4.0489,-4.0489,-4.0489,-4.0489,-4.0489,-4.0489,-4.0489,-4.0489,-4.0489,-4.0489,-4.0489,-4.0489,-4.0489,-4.0489,-4.052,-4.0489,-4.0566,-4.0797,-4.1047,-4.1217,-4.174,-4.1191,-4.0337,-4.0434,-4.0666,-4.0945,-4.137,-4.1671,-4.2129,-4.257,-4.2871,-4.3111,-4.3442,-4.381,-4.3966,-4.4289,-4.4366,-4.461,-4.461,-4.4648,-4.4648,-4.4723,-4.4836,-4.5002,-4.5204,-4.5405,-4.5589,-4.5662,-4.5677,-4.575,-4.5807,-4.5807,-4.5807,-4.5807,-4.5807,-4.5807,-4.5807,-4.5807,-3.9388,-3.9388,-3.9388,-3.9388,-3.9388,-3.9388,-3.9388,-3.9388,-3.9388,-3.9388,-3.9388,-3.9388,-3.9388,-3.9388,-3.9388,-3.9388,-3.9388,-3.9388,-3.9388,-3.9388,-3.9388,-3.9388,-3.9388,-3.9388,-3.9388,-3.9388,-3.9388,-3.9388,-3.9388,-3.9388,-3.9388,-3.9388,-3.9388,-3.9388,-3.9388,-3.9388,-3.9388,-3.9388,-3.9388,-3.9409,-3.9481,-3.9696,-3.9874,-4.0031,-4.0242,-4.0401,-4.0455,-4.0489,-4.047,-4.0489,-4.0489,-4.0489,-4.0489,-4.0489,-4.0489,-4.0489,-4.0489,-4.0489,-4.0489,-4.0489,-4.0489,-4.0489,-4.0489,-4.0489,-4.0489,-4.0489,-4.0489,-4.0489,-4.0489,-4.0489,-4.052,-4.0659,-4.0735,-4.0905,-4.1386,-4.1848,-4.1971,-4.2309,-4.2694,-4.2239,-4.2205,-4.2161,-4.2316,-4.2707,-4.3004,-4.3118,-4.356,-4.3639,-4.3888,-4.4082,-4.4328,-4.4404,-4.4518,-4.4518,-4.461,-4.461,-4.4663,-4.4792,-4.4852,-4.4911,-4.5151,-4.5368,-4.5552,-4.5698,-4.5771,-4.5787,-4.5823,-4.5807,-4.5807,-4.5807,-4.5807,-4.5807,-4.5807,-4.588,-4.59,-3.9388,-3.9388,-3.9388,-3.9388,-3.9388,-3.9388,-3.9388,-3.9388,-3.9388,-3.9388,-3.9388,-3.9388,-3.9388,-3.9388,-3.9388,-3.9388,-3.9388,-3.9388,-3.9388,-3.9388,-3.9388,-3.9388,-3.9388,-3.9388,-3.9388,-3.9388,-3.9388,-3.9388,-3.9388,-3.9388,-3.9388,-3.9388,-3.9388,-3.9388,-3.9388,-3.9388,-3.9388,-3.9388,-3.9388,-3.9496,-3.9696,-4.0016,-4.0191,-4.0277,-4.0366,-4.047,-4.0489,-4.0489,-4.0489,-4.0489,-4.0489,-4.0489,-4.0489,-4.0489,-4.0489,-4.0489,-4.0489,-4.0489,-4.0489,-4.0489,-4.0489,-4.0489,-4.0489,-4.0489,-4.0489,-4.0505,-4.0505,-4.0489,-4.0536,-4.0674,-4.0843,-4.1135,-4.1386,-4.1694,-4.2063,-4.2402,-4.2602,-4.3048,-4.3402,-4.3556,-4.3266,-4.331,-4.3425,-4.3899,-4.4305,-4.4373,-4.4442,-4.4496,-4.4534,-4.4572,-4.461,-4.461,-4.4685,-4.4685,-4.4723,-4.4685,-4.4776,-4.492,-4.5017,-4.5077,-4.5278,-4.5478,-4.5589,-4.5735,-4.5771,-4.5807,-4.5807,-4.5807,-4.5807,-4.5807,-4.5807,-4.5807,-4.5807,-4.5916,-4.6136,-3.9388,-3.9388,-3.9388,-3.9388,-3.9388,-3.9388,-3.9388,-3.9388,-3.9388,-3.9388,-3.9388,-3.9388,-3.9388,-3.9388,-3.9388,-3.9388,-3.9388,-3.9388,-3.9388,-3.9388,-3.9388,-3.9388,-3.9388,-3.9388,-3.9388,-3.9388,-3.9388,-3.9388,-3.9388,-3.9388,-3.9388,-3.9388,-3.9388,-3.9388,-3.9388,-3.9388,-3.9388,-3.9424,-3.9517,-3.9676,-3.9889,-4.0137,-4.0327,-4.0327,-4.0436,-4.0505,-4.0489,-4.0489,-4.0489,-4.0489,-4.0489,-4.0489,-4.0489,-4.0489,-4.0489,-4.0489,-4.0489,-4.0489,-4.0489,-4.0489,-4.0489,-4.0489,-4.0489,-4.0489,-4.0489,-4.0536,-4.0735,-4.1089,-4.114,-4.1278,-4.1571,-4.1971,-4.2094,-4.2355,-4.2771,-4.3002,-4.3294,-4.3802,-4.4172,-4.4279,-4.4326,-4.4209,-4.4117,-4.4295,-4.4465,-4.4465,-4.4518,-4.4534,-4.4572,-4.4572,-4.461,-4.461,-4.4685,-4.4799,-4.4852,-4.4889,-4.498,-4.5108,-4.5257,-4.5331,-4.5442,-4.5589,-4.5698,-4.5735,-4.5771,-4.5807,-4.5807,-4.5807,-4.5807,-4.5807,-4.5807,-4.5972,-4.612,-4.6442,-4.6689,-3.9388,-3.9388,-3.9388,-3.9388,-3.9388,-3.9388,-3.9388,-3.9388,-3.9388,-3.9388,-3.9388,-3.9388,-3.9388,-3.9388,-3.9388,-3.9388,-3.9388,-3.9388,-3.9388,-3.9388,-3.9388,-3.9388,-3.9388,-3.9388,-3.9388,-3.9388,-3.9388,-3.9388,-3.9388,-3.9388,-3.9388,-3.9388,-3.9388,-3.9388,-3.9388,-3.9424,-3.9424,-3.9517,-3.9768,-3.9945,-4.0101,-4.0242,-4.0347,-4.0366,-4.0436,-4.0489,-4.0489,-4.0489,-4.0489,-4.0489,-4.0489,-4.0489,-4.0489,-4.0489,-4.0489,-4.0489,-4.0489,-4.0489,-4.0489,-4.0489,-4.0489,-4.0489,-4.0505,-4.0486,-4.0523,-4.0589,-4.0931,-4.1592,-4.1817,-4.2109,-4.2479,-4.2679,-4.2833,-4.3048,-4.3417,-4.3685,-4.3901,-4.424,-4.4456,-4.4471,-4.4502,-4.4533,-4.4486,-4.4533,-4.4556,-4.4572,-4.461,-4.461,-4.461,-4.4648,-4.4685,-4.4723,-4.4852,-4.4964,-4.5002,-4.5092,-4.5182,-4.5309,-4.5457,-4.5515,-4.5589,-4.5662,-4.5771,-4.5807,-4.5807,-4.5807,-4.5807,-4.5807,-4.5807,-4.588,-4.5972,-4.6317,-4.6601,-4.6949,-4.7356,-3.9388,-3.9388,-3.9388,-3.9388,-3.9388,-3.9388,-3.9388,-3.9388,-3.9388,-3.9388,-3.9388,-3.9388,-3.9388,-3.9388,-3.9388,-3.9388,-3.9388,-3.9388,-3.9388,-3.9388,-3.9388,-3.9388,-3.9388,-3.9388,-3.9388,-3.9388,-3.9388,-3.9388,-3.9424,-3.946,-3.9424,-3.9388,-3.946,-3.9424,-3.946,-3.9496,-3.9604,-3.9732,-4.0016,-4.0191,-4.0277,-4.0401,-4.047,-4.047,-4.0489,-4.0489,-4.0489,-4.0489,-4.0489,-4.0489,-4.0489,-4.0489,-4.0489,-4.0489,-4.0505,-4.0659,-4.0674,-4.072,-4.0797,-4.0735,-4.0582,-4.0536,-4.0643,-4.0773,-4.0786,-4.1234,-4.1602,-4.196,-4.2329,-4.2617,-4.2879,-4.3094,-4.3501,-4.3685,-4.391,-4.4148,-4.4286,-4.4379,-4.4564,-4.4594,-4.461,-4.461,-4.461,-4.461,-4.461,-4.461,-4.461,-4.461,-4.4685,-4.4723,-4.4836,-4.4911,-4.5055,-4.5167,-4.5167,-4.5257,-4.5368,-4.5442,-4.5568,-4.5662,-4.5735,-4.5771,-4.5807,-4.5807,-4.5807,-4.5807,-4.5844,-4.5956,-4.6064,-4.6028,-4.6227,-4.6828,-4.7439,-4.7917,-4.8303,-3.9388,-3.9388,-3.9388,-3.9388,-3.9388,-3.9388,-3.9388,-3.9388,-3.9388,-3.9388,-3.9388,-3.9388,-3.9388,-3.9388,-3.9388,-3.9388,-3.9388,-3.9388,-3.9388,-3.9388,-3.9388,-3.9388,-3.9388,-3.9388,-3.9388,-3.9388,-3.9388,-3.9388,-3.9388,-3.9532,-3.9589,-3.9589,-3.9625,-3.9676,-3.9711,-3.9747,-3.9889,-4.0031,-4.0191,-4.0331,-4.0436,-4.047,-4.0489,-4.0489,-4.0489,-4.0489,-4.0489,-4.0489,-4.0489,-4.0489,-4.0489,-4.052,-4.0566,-4.0566,-4.0766,-4.1109,-4.117,-4.134,-4.154,-4.1447,-4.137,-4.1771,-4.1797,-4.1648,-4.1393,-4.1909,-4.2345,-4.2698,-4.299,-4.3279,-4.3833,-4.4071,-4.4255,-4.4302,-4.4379,-4.4548,-4.461,-4.461,-4.461,-4.461,-4.461,-4.461,-4.461,-4.461,-4.461,-4.461,-4.461,-4.4648,-4.4761,-4.4889,-4.5002,-4.5114,-4.5278,-4.5368,-4.5368,-4.5478,-4.5589,-4.5625,-4.5677,-4.5735,-4.5771,-4.5807,-4.5807,-4.5807,-4.5844,-4.5916,-4.6028,-4.6246,-4.6337,-4.6372,-4.6896,-4.7605,-4.8256,-4.8869,-4.9131,-3.9388,-3.9388,-3.9388,-3.9388,-3.9388,-3.9388,-3.9388,-3.9388,-3.9388,-3.9388,-3.9388,-3.9388,-3.9388,-3.9388,-3.9388,-3.9388,-3.9388,-3.9388,-3.9388,-3.9388,-3.9388,-3.9388,-3.9388,-3.9388,-3.9388,-3.9409,-3.9496,-3.9496,-3.9532,-3.9696,-3.9803,-3.9874,-3.9859,-3.996,-3.996,-4.0066,-4.0172,-4.0277,-4.0366,-4.0401,-4.0489,-4.0489,-4.0489,-4.0489,-4.0489,-4.0489,-4.0489,-4.0489,-4.0489,-4.0489,-4.052,-4.0628,-4.0735,-4.092,-4.1247,-4.1632,-4.194,-4.2155,-4.2309,-4.2294,-4.2125,-4.2355,-4.2463,-4.2324,-4.2343,-4.26,-4.3057,-4.358,-4.3833,-4.4101,-4.461,-4.4533,-4.4502,-4.4471,-4.4486,-4.461,-4.461,-4.461,-4.461,-4.461,-4.461,-4.4685,-4.4648,-4.4648,-4.4685,-4.4723,-4.4852,-4.4852,-4.4836,-4.5002,-4.5204,-4.5315,-4.5463,-4.5552,-4.5589,-4.5625,-4.5698,-4.5698,-4.575,-4.5787,-4.5807,-4.5844,-4.5844,-4.5844,-4.5916,-4.6044,-4.6442,-4.6949,-4.6949,-4.6828,-4.7539,-4.8351,-4.8934,-4.9483,-4.9619,-3.9424,-3.9388,-3.9388,-3.9388,-3.9388,-3.9388,-3.9388,-3.9388,-3.9388,-3.9388,-3.9388,-3.9388,-3.9388,-3.9388,-3.9388,-3.9388,-3.9388,-3.9388,-3.9388,-3.9388,-3.9388,-3.9388,-3.9424,-3.9424,-3.946,-3.946,-3.9589,-3.9696,-3.9696,-3.9889,-4.0066,-4.0191,-4.0207,-4.0172,-4.0031,-4.0207,-4.0277,-4.0296,-4.042,-4.0455,-4.0489,-4.0489,-4.0489,-4.0489,-4.0489,-4.0489,-4.0489,-4.0674,-4.072,-4.0705,-4.0843,-4.1089,-4.1509,-4.1555,-4.1909,-4.2494,-4.2571,-4.2633,-4.2663,-4.2633,-4.2771,-4.2894,-4.3079,-4.2928,-4.2842,-4.3192,-4.3741,-4.4187,-4.4372,-4.4486,-4.461,-4.461,-4.461,-4.461,-4.461,-4.461,-4.461,-4.461,-4.461,-4.4685,-4.4761,-4.4836,-4.4761,-4.4723,-4.4761,-4.4852,-4.5017,-4.5092,-4.5039,-4.5151,-4.5352,-4.5515,-4.5609,-4.5662,-4.5698,-4.5735,-4.5771,-4.5807,-4.5844,-4.588,-4.5972,-4.6064,-4.6028,-4.5972,-4.6333,-4.6775,-4.7322,-4.7852,-4.7836,-4.7901,-4.8383,-4.907,-4.9619,-4.9935,-4.9964,-3.9844,-3.9409,-3.9388,-3.9388,-3.9388,-3.9388,-3.9388,-3.9388,-3.9388,-3.9388,-3.9388,-3.9388,-3.9388,-3.9388,-3.9388,-3.9388,-3.9388,-3.9388,-3.9388,-3.9388,-3.9388,-3.9388,-3.9424,-3.9517,-3.9589,-3.9661,-3.9768,-3.9889,-3.994,-4.0117,-4.0207,-4.0312,-4.0366,-4.0401,-4.0366,-4.0385,-4.0436,-4.042,-4.0489,-4.0489,-4.0489,-4.0489,-4.0505,-4.052,-4.0551,-4.0582,-4.0674,-4.0997,-4.1232,-4.1258,-4.1478,-4.1925,-4.2217,-4.2263,-4.2571,-4.3079,-4.3264,-4.3494,-4.3756,-4.3941,-4.3963,-4.3917,-4.3802,-4.3765,-4.3958,-4.4088,-4.4387,-4.4495,-4.4594,-4.461,-4.461,-4.461,-4.461,-4.461,-4.461,-4.461,-4.461,-4.461,-4.4625,-4.4761,-4.4874,-4.5002,-4.5039,-4.5039,-4.5039,-4.5092,-4.522,-4.5294,-4.5278,-4.5352,-4.5463,-4.5609,-4.5719,-4.5771,-4.5807,-4.5807,-4.5916,-4.5972,-4.5992,-4.6028,-4.6156,-4.6388,-4.6687,-4.6878,-4.7203,-4.7572,-4.8031,-4.8495,-4.8855,-4.9118,-4.9316,-4.9453,-4.9801,-4.9964,-4.9964,-4.0443,-3.9773,-3.9788,-3.9625,-3.9424,-3.9388,-3.9388,-3.9388,-3.9388,-3.9388,-3.9388,-3.9388,-3.9388,-3.9388,-3.9388,-3.9388,-3.9388,-3.9388,-3.9388,-3.9388,-3.9388,-3.9388,-3.946,-3.9553,-3.9589,-3.9732,-3.9874,-3.9996,-4.0101,-4.0261,-4.0366,-4.0401,-4.0455,-4.0455,-4.0455,-4.0489,-4.0489,-4.0489,-4.0489,-4.0489,-4.0489,-4.0536,-4.0659,-4.0863,-4.097,-4.0997,-4.1274,-4.1632,-4.1971,-4.2109,-4.2355,-4.2756,-4.2848,-4.3002,-4.3279,-4.3747,-4.4009,-4.4194,-4.4425,-4.4479,-4.444,-4.4471,-4.461,-4.461,-4.461,-4.4533,-4.4533,-4.4594,-4.461,-4.461,-4.461,-4.461,-4.461,-4.461,-4.461,-4.461,-4.4723,-4.4723,-4.4814,-4.4911,-4.5114,-4.5204,-4.5315,-4.5352,-4.5389,-4.5405,-4.5442,-4.5478,-4.5515,-4.5552,-4.5609,-4.5719,-4.5792,-4.5844,-4.5844,-4.5807,-4.5936,-4.612,-4.6156,-4.6175,-4.6671,-4.6965,-4.7389,-4.7787,-4.7998,-4.8288,-4.8668,-4.9073,-4.9364,-4.959,-4.9755,-4.9889,-5.0011,-5.0011,-5.0011,-4.1127,-4.0581,-4.0512,-4.0076,-3.9517,-3.9445,-3.9388,-3.9388,-3.9388,-3.9388,-3.9388,-3.9388,-3.9388,-3.9388,-3.9388,-3.9388,-3.9388,-3.9388,-3.9388,-3.9424,-3.946,-3.9424,-3.9445,-3.9517,-3.9732,-3.9803,-3.9945,-4.0191,-4.0296,-4.0401,-4.0455,-4.0455,-4.0489,-4.0597,-4.0643,-4.0705,-4.0705,-4.0735,-4.0735,-4.0843,-4.0966,-4.0858,-4.1217,-4.1463,-4.1632,-4.1863,-4.2171,-4.2509,-4.2617,-4.2694,-4.2771,-4.3125,-4.3387,-4.3624,-4.4055,-4.4363,-4.4533,-4.4564,-4.4579,-4.461,-4.461,-4.461,-4.461,-4.461,-4.461,-4.461,-4.461,-4.461,-4.461,-4.461,-4.461,-4.461,-4.461,-4.461,-4.4648,-4.4723,-4.4874,-4.4964,-4.5002,-4.5167,-4.5352,-4.5515,-4.5589,-4.5677,-4.5589,-4.5625,-4.5625,-4.5589,-4.5625,-4.5698,-4.5735,-4.5755,-4.5828,-4.588,-4.588,-4.5936,-4.6156,-4.6442,-4.6317,-4.6372,-4.6931,-4.7622,-4.8015,-4.84,-4.8683,-4.8978,-4.9303,-4.9577,-4.9801,-5.0011,-5.0011,-5.0011,-5.0011,-5.0011,-5.0011,-4.1852,-4.116,-4.0718,-4.0389,-4.0111,-3.961,-3.9388,-3.9388,-3.9388,-3.9388,-3.9388,-3.9388,-3.9388,-3.9388,-3.9388,-3.9388,-3.9388,-3.9388,-3.9388,-3.9424,-3.9532,-3.9589,-3.9696,-3.9839,-4.0016,-4.0121,-4.0261,-4.0331,-4.0436,-4.0489,-4.0489,-4.0489,-4.0582,-4.0832,-4.1109,-4.1294,-4.1309,-4.1309,-4.1324,-4.1494,-4.172,-4.1832,-4.2094,-4.2232,-4.2309,-4.254,-4.274,-4.314,-4.3248,-4.331,-4.3756,-4.4156,-4.4255,-4.4317,-4.4502,-4.4533,-4.4594,-4.4594,-4.461,-4.461,-4.461,-4.461,-4.461,-4.461,-4.461,-4.461,-4.461,-4.461,-4.461,-4.461,-4.461,-4.461,-4.4685,-4.4723,-4.4761,-4.4927,-4.5039,-4.5114,-4.5204,-4.5389,-4.5589,-4.5662,-4.5787,-4.5787,-4.5698,-4.5771,-4.5771,-4.5735,-4.5735,-4.5771,-4.5771,-4.5844,-4.5936,-4.6008,-4.61,-4.6156,-4.6477,-4.6689,-4.6671,-4.6965,-4.7933,-4.8526,-4.8762,-4.8995,-4.9286,-4.956,-4.983,-5.0011,-5.0011,-5.0011,-5.0011,-5.0011,-5.0011,-5.0011,-5.0011,-4.2843,-4.1884,-4.1194,-4.0615,-4.0021,-3.9574,-3.9388,-3.9388,-3.9388,-3.9388,-3.9388,-3.9388,-3.9388,-3.9388,-3.9388,-3.9388,-3.9388,-3.9388,-3.9409,-3.9604,-3.9676,-3.9732,-3.991,-4.0066,-4.0172,-4.0312,-4.0366,-4.0401,-4.047,-4.0505,-4.0489,-4.0536,-4.0724,-4.1186,-4.1524,-4.1832,-4.2186,-4.2202,-4.2232,-4.2309,-4.2494,-4.2694,-4.274,-4.2956,-4.2987,-4.3094,-4.334,-4.3802,-4.3932,-4.3994,-4.4502,-4.4594,-4.461,-4.4594,-4.4579,-4.461,-4.461,-4.461,-4.461,-4.461,-4.461,-4.461,-4.461,-4.461,-4.461,-4.461,-4.461,-4.461,-4.461,-4.461,-4.461,-4.4648,-4.4761,-4.4874,-4.5002,-4.5129,-4.5204,-4.5294,-4.5442,-4.5589,-4.5698,-4.5771,-4.5823,-4.5807,-4.5807,-4.5807,-4.5807,-4.5771,-4.5771,-4.5771,-4.5807,-4.5807,-4.5956,-4.612,-4.6246,-4.6477,-4.6931,-4.7204,-4.7288,-4.7803,-4.8838,-4.9131,-4.9087,-4.9424,-4.986,-5.0011,-5.0011,-5.0011,-5.0011,-5.0011,-5.0011,-5.0011,-5.0011,-5.0011,-5.0011,-4.389,-4.2617,-4.1819,-4.0668,-3.9496,-3.9424,-3.9388,-3.9388,-3.9388,-3.9388,-3.9388,-3.9388,-3.9388,-3.9424,-3.946,-3.946,-3.9496,-3.9532,-3.9625,-3.9732,-3.9803,-3.991,-3.9996,-4.0066,-4.0277,-4.0312,-4.0331,-4.042,-4.0486,-4.0643,-4.0782,-4.0643,-4.134,-4.1832,-4.2109,-4.2463,-4.2894,-4.334,-4.314,-4.3002,-4.294,-4.294,-4.3033,-4.3578,-4.3747,-4.3886,-4.4348,-4.4579,-4.461,-4.461,-4.461,-4.461,-4.461,-4.461,-4.461,-4.461,-4.461,-4.461,-4.461,-4.461,-4.461,-4.461,-4.461,-4.461,-4.461,-4.461,-4.461,-4.461,-4.4648,-4.4685,-4.4723,-4.4852,-4.4964,-4.5077,-4.5204,-4.5315,-4.5478,-4.5515,-4.5589,-4.5698,-4.5735,-4.5807,-4.5807,-4.5807,-4.5807,-4.5807,-4.5807,-4.5807,-4.5807,-4.5807,-4.5844,-4.5916,-4.6388,-4.6617,-4.6512,-4.6793,-4.7406,-4.7704,-4.7868,-4.8431,-4.9376,-4.9453,-4.9269,-4.9619,-5.0011,-5.0011,-5.0011,-5.0011,-5.0011,-5.0011,-5.0011,-5.0011,-5.0011,-5.0011,-5.0011,-4.4167,-4.3251,-4.2013,-4.0718,-3.9481,-3.9388,-3.9388,-3.9388,-3.9388,-3.9424,-3.9388,-3.9424,-3.9424,-3.946,-3.9589,-3.9625,-3.9661,-3.9762,-3.9854,-3.9945,-4.0016,-4.0086,-4.0226,-4.0296,-4.0401,-4.0436,-4.0455,-4.0501,-4.0689,-4.1016,-4.1355,-4.1432,-4.2032,-4.2494,-4.2894,-4.3248,-4.367,-4.4194,-4.4048,-4.3864,-4.3895,-4.4033,-4.4271,-4.4332,-4.4379,-4.4348,-4.461,-4.461,-4.461,-4.461,-4.461,-4.461,-4.461,-4.461,-4.461,-4.461,-4.461,-4.461,-4.461,-4.461,-4.461,-4.461,-4.461,-4.461,-4.461,-4.461,-4.461,-4.4648,-4.4723,-4.4761,-4.4874,-4.5039,-4.5167,-4.5278,-4.5389,-4.5552,-4.5698,-4.5698,-4.575,-4.5787,-4.5807,-4.5807,-4.5807,-4.5807,-4.5807,-4.5807,-4.5807,-4.5807,-4.5844,-4.5844,-4.5972,-4.6191,-4.7084,-4.7304,-4.7067,-4.7272,-4.7917,-4.8334,-4.8541,-4.9178,-4.9889,-4.9755,-4.9619,-4.9801,-5.0011,-5.0011,-5.0011,-5.0011,-5.0011,-5.0011,-5.0011,-5.0011,-5.0011,-5.0011,-5.0011,-4.4572,-4.3482,-4.2078,-4.0668,-3.9553,-3.9388,-3.9445,-3.9517,-3.9445,-3.9481,-3.964,-3.9589,-3.9517,-3.9568,-3.9747,-3.9854,-3.9839,-3.994,-4.0031,-4.0137,-4.0226,-4.0296,-4.0401,-4.0455,-4.0455,-4.0505,-4.052,-4.0628,-4.1032,-4.1309,-4.1648,-4.2078,-4.2694,-4.3217,-4.367,-4.387,-4.4194,-4.4579,-4.461,-4.461,-4.461,-4.461,-4.461,-4.461,-4.461,-4.461,-4.461,-4.461,-4.461,-4.461,-4.461,-4.461,-4.461,-4.461,-4.461,-4.461,-4.461,-4.461,-4.461,-4.461,-4.461,-4.461,-4.461,-4.461,-4.4761,-4.4761,-4.4761,-4.4799,-4.4799,-4.4874,-4.5039,-4.5204,-4.5315,-4.5442,-4.5552,-4.5698,-4.5735,-4.5771,-4.5787,-4.5787,-4.5807,-4.5807,-4.5807,-4.5807,-4.5807,-4.5807,-4.5807,-4.5916,-4.5916,-4.6227,-4.6262,-4.6477,-4.7389,-4.7787,-4.7572,-4.7901,-4.8555,-4.8914,-4.9161,-4.9543,-4.9935,-4.9964,-4.9964,-5.0011,-5.0011,-5.0011,-5.0011,-5.0011,-5.0011,-5.0011,-5.0011,-5.0011,-5.0011,-5.0011,-5.0011,-4.4797,-4.3256,-4.2045,-4.0703,-3.9517,-3.946,-3.9553,-3.9661,-3.9568,-3.9676,-3.9925,-3.9839,-3.9768,-3.9818,-3.9925,-3.9996,-4.0066,-4.0137,-4.0191,-4.0261,-4.0331,-4.0401,-4.047,-4.0489,-4.0597,-4.0705,-4.0782,-4.1247,-4.1724,-4.2017,-4.2402,-4.2817,-4.3248,-4.3747,-4.3917,-4.4209,-4.461,-4.461,-4.461,-4.461,-4.461,-4.461,-4.461,-4.461,-4.461,-4.461,-4.461,-4.461,-4.461,-4.461,-4.461,-4.461,-4.461,-4.461,-4.461,-4.461,-4.461,-4.461,-4.461,-4.461,-4.461,-4.4648,-4.4625,-4.4739,-4.4889,-4.4964,-4.4964,-4.5002,-4.4986,-4.5077,-4.5241,-4.5405,-4.5478,-4.5552,-4.5698,-4.5771,-4.5807,-4.5807,-4.5807,-4.5807,-4.5807,-4.5807,-4.5844,-4.5844,-4.588,-4.588,-4.5936,-4.6008,-4.6207,-4.674,-4.7051,-4.7221,-4.7737,-4.7966,-4.8015,-4.8543,-4.9192,-4.9299,-4.9543,-4.9801,-5.0011,-5.0011,-5.0011,-5.0011,-5.0011,-5.0011,-5.0011,-5.0011,-5.0011,-5.0011,-5.0011,-5.0011,-5.0011,-5.0011,-5.0011,-4.4264,-4.1884,-4.1754,-4.0839,-3.9589,-3.9732,-3.9818,-3.9717,-3.9854,-3.994,-4.0031,-4.0137,-4.0137,-3.9975,-4.0137,-4.0242,-4.0242,-4.0296,-4.0385,-4.047,-4.0436,-4.047,-4.0551,-4.0659,-4.0924,-4.114,-4.1401,-4.1817,-4.234,-4.2848,-4.3254,-4.347,-4.4071,-4.4363,-4.4394,-4.461,-4.461,-4.461,-4.461,-4.461,-4.461,-4.461,-4.461,-4.461,-4.461,-4.461,-4.461,-4.461,-4.461,-4.461,-4.461,-4.461,-4.461,-4.461,-4.461,-4.461,-4.461,-4.4648,-4.4648,-4.4685,-4.4739,-4.4836,-4.4852,-4.4927,-4.5039,-4.5129,-4.5204,-4.5368,-4.5352,-4.5352,-4.5515,-4.5625,-4.5698,-4.5698,-4.5771,-4.5807,-4.5807,-4.5807,-4.5807,-4.5807,-4.5807,-4.588,-4.5936,-4.6028,-4.6227,-4.6317,-4.6601,-4.6705,-4.7118,-4.7489,-4.7852,-4.8046,-4.8239,-4.8509,-4.8745,-4.9212,-4.9696,-4.9801,-4.983,-4.9935,-5.0011,-5.0011,-5.0011,-5.0011,-5.0011,-5.0011,-5.0011,-5.0011,-5.0011,-5.0011,-5.0011,-5.0011,-5.0011,-5.0011,-5.0011]},{"header":{"parameterUnit":"m.s-1","parameterCategory":1,"la1":31.0,"la2":29.5877,"lo1":-88.7671,"lo2":-86.6584,"dy":0.0162,"dx":0.0185,"nx":115,"ny":88,"refTime":"2024-03-12T06:00:00:Z","depth":0,"parameterNumber":3,"parameterNumberName":"V-component_of_WINDS"},"data":[0.0,0.0,0.0,0.0,0.0,0.0,0.0,0.0,0.0,0.0,0.0,0.0,0.0,0.0,0.0,0.0,0.0,0.0,0.0,0.0,0.0,0.0,0.0,0.0,0.0,0.0,0.0,0.0,0.0,0.0,0.0,0.0,0.0,0.0,0.0,0.0,0.0,0.0,0.0,0.0,0.0,0.0,0.0,0.0,0.0,0.0,0.0,0.0,0.0,0.0,0.0,0.0,0.0,0.0,0.0,0.0,0.0,0.0,0.0,0.0,0.0,0.0,0.0,0.0,0.0,0.0,0.0,0.0,0.0,0.0,0.0,0.0,0.0,0.0,0.0,0.0,0.0,0.0,0.0,0.0,0.0,0.0,0.0,0.0,0.0,0.0,0.0,0.0,0.0,0.0,0.0,0.0,0.0,0.0,0.0,0.0,0.0,0.0,0.0,0.0,0.0,0.0,0.0,0.0,0.0,0.0,0.0,0.0,0.0,0.0,0.0,0.0,0.0,0.0,0.0,0.0,0.0,0.0,0.0,0.0,0.0,0.0,0.0,0.0,0.0,0.0,0.0,0.0,0.0,0.0,0.0,0.0,0.0,0.0,0.0,0.0,0.0,0.0,0.0,0.0,0.0,0.0,0.0,0.0,0.0,0.0,0.0,0.0,0.0,0.0,0.0,0.0,0.0,0.0,0.0,0.0,0.0,0.0,0.0,0.0,0.0,0.0,0.0,0.0,0.0,0.0,0.0,0.0,0.0,0.0,0.0,0.0,0.0,0.0,0.0,0.0,0.0,0.0,0.0,0.0,0.0,0.0,0.0,0.0,0.0,0.0,0.0,0.0,0.0,0.0,0.0,0.0,0.0,0.0,0.0,0.0,0.0,0.0,0.0,0.0,0.0,0.0,0.0,0.0,0.0,0.0,0.0,0.0,0.0,0.0,0.0,0.0,0.0,0.0,0.0,0.0,0.0,0.0,0.0,0.0,0.0,0.0,0.0,0.0,0.0,0.0,0.0,0.0,0.0,0.0,0.0,0.0,0.0,0.0,0.0,0.0,0.0,0.0,0.0,0.0,0.0,0.0,0.0,0.0,0.0,0.0,0.0,0.0,0.0,0.0,0.0,0.0,0.0,0.0,0.0,0.0,0.0,0.0,0.0,0.0,0.0,0.0,0.0,0.0,0.0,0.0,0.0,0.0,0.0,0.0,0.0,0.0,0.0,0.0,0.0,0.0,0.0,0.0,0.0,0.0,0.0,0.0,0.0,0.0,0.0,0.0,0.0,0.0,0.0,0.0,0.0,0.0,0.0,0.0,0.0,0.0,0.0,0.0,0.0,0.0,0.0,0.0,0.0,0.0,0.0,0.0,0.0,0.0,0.0,0.0,0.0,0.0,0.0,0.0,0.0,0.0,0.0,0.0,0.0,0.0,0.0,0.0,0.0,0.0,0.0,0.0,0.0,0.0,0.0,0.0,0.0,0.0,0.0,0.0,0.0,0.0,0.0,0.0,0.0,0.0,0.0,0.0,0.0,0.0,0.0,0.0,0.0,0.0,0.0,0.0,0.0,0.0,0.0,0.0,0.0,0.0,0.0,0.0,0.0,0.0,0.0,0.0,0.0,0.0,0.0,0.0,0.0,0.0,0.0,0.0,0.0,0.0,0.0,0.0,0.0,0.0,0.0,0.0,0.0,0.0,0.0,0.0,0.0,0.0,0.0,0.0,0.0,0.0,0.0,0.0,0.0,0.0,0.0,0.0,0.0,0.0,0.0,0.0,0.0,0.0,0.0,0.0,0.0,0.0,0.0,0.0,0.0,0.0,0.0,0.0,0.0,0.0,0.0,0.0,0.0,0.0,0.0,0.0,0.0,0.0,0.0,0.0,0.0,0.0,0.0,0.0,0.0,0.0,0.0,0.0,0.0,0.0,0.0,0.0,0.0,0.0,0.0,0.0,0.0,0.0,0.0,0.0,0.0,0.0,0.0,0.0,0.0,0.0,0.0,0.0,0.0,0.0,0.0,0.0,0.0,0.0,0.0,0.0,0.0,0.0,0.0,0.0,0.0,0.0,0.0,0.0,0.0,0.0,0.0,0.0,0.0,0.0,0.0,0.0,0.0,0.0,0.0,0.0,0.0,0.0,0.0,0.0,0.0,0.0,0.0,0.0,0.0,0.0,0.0,0.0,0.0,0.0,0.0,0.0,0.0,0.0,0.0,0.0,0.0,0.0,0.0,0.0,0.0,0.0,0.0,0.0,0.0,0.0,0.0,0.0,0.0,0.0,0.0,0.0,0.0,0.0,0.0,0.0,0.0,0.0,0.0,0.0,0.0,0.0,0.0,0.0,0.0,0.0,0.0,0.0,0.0,0.0,0.0,0.0,0.0,0.0,0.0,0.0,0.0,0.0,0.0,0.0,0.0,0.0,0.0,0.0,0.0,0.0,0.0,0.0,0.0,0.0,0.0,0.0,0.0,0.0,0.0,0.0,0.0,0.0,0.0,0.0,0.0,0.0,0.0,0.0,0.0,0.0,0.0,0.0,0.0,0.0,0.0,0.0,0.0,0.0,0.0,0.0,0.0,0.0,0.0,0.0,0.0,0.0,0.0,0.0,0.0,0.0,0.0,0.0,0.0,0.0,0.0,0.0,0.0,0.0,0.0,0.0,0.0,0.0,0.0,0.0,0.0,0.0,0.0,0.0,0.0,0.0,0.0,0.0,0.0,0.0,0.0,0.0,0.0,0.0,0.0,0.0,0.0,0.0,0.0,0.0,0.0,0.0,0.0,0.0,0.0,0.0,0.0,0.0,0.0,0.0,0.0,0.0,0.0,0.0,0.0,0.0,0.0,0.0,0.0,0.0,0.0,0.0,0.0,0.0,0.0,0.0,0.0,0.0,0.0,0.0,0.0,0.0,0.0,0.0,0.0,0.0,0.0,0.0,0.0,0.0,0.0,0.0,0.0,0.0,0.0,0.0,0.0,0.0,0.0,0.0,0.0,0.0,0.0,0.0,0.0,0.0,0.0,0.0,0.0,0.0,0.0,0.0,0.0,0.0,0.0,0.0,0.0,0.0,0.0,0.0,0.0,0.0,0.0,0.0,0.0,0.0,0.0,0.0,0.0,0.0,0.0,0.0,0.0,0.0,0.0,0.0,0.0,0.0,0.0,0.0,0.0,0.0,0.0,0.0,0.0,0.0,0.0,0.0,0.0,0.0,0.0,0.0,0.0,0.0,0.0,0.0,0.0,0.0,0.0,0.0,0.0,0.0,0.0,0.0,0.0,0.0,0.0,0.0,0.0,0.0,0.0,0.0,0.0,0.0,0.0,0.0,0.0,0.0,0.0,0.0,0.0,0.0,0.0,0.0,0.0,0.0,0.0,0.0,0.0,0.0,0.0,0.0,0.0,0.0,0.0,0.0,0.0,0.0,0.0,0.0,0.0,0.0,0.0,0.0,0.0,0.0,0.0,0.0,0.0,0.0,0.0,0.0,0.0,0.0,0.0,0.0,0.0,0.0,0.0,0.0,0.0,0.0,0.0,0.0,0.0,0.0,0.0,0.0,0.0,0.0,0.0,0.0,0.0,0.0,0.0,0.0,0.0,0.0,0.0,0.0,0.0,0.0,0.0,0.0,0.0,0.0,0.0,0.0,0.0,0.0,0.0,0.0,0.0,0.0,0.0,0.0,0.0,0.0,0.0,0.0,0.0,0.0,0.0,0.0,0.0,0.0,0.0,0.0,0.0,0.0,0.0,0.0,0.0,0.0,0.0,0.0,0.0,0.0,0.0,0.0,0.0,0.0,0.0,0.0,0.0,0.0,0.0,0.0,0.0,0.0,0.0,0.0,0.0,0.0,0.0,0.0,0.0,0.0,0.0,0.0,0.0,0.0,0.0,0.0,0.0,0.0,0.0,0.0,0.0,0.0,0.0,0.0,0.0,0.0,0.0,0.0,0.0,0.0,0.0,0.0,0.0,0.0,0.0,0.0,0.0,0.0,0.0,0.0,0.0,0.0,0.0,0.0,0.0,0.0,0.0,0.0,0.0,0.0,0.0,0.0,0.0,0.0,0.0,0.0,0.0,0.0,0.0,0.0,0.0,0.0,0.0,0.0,0.0,0.0,0.0,0.0,0.0,0.0,0.0,0.0,0.0,0.0,0.0,0.0,0.0,0.0,0.0,0.0,0.0,0.0,0.0,0.0,0.0,0.0,0.0,0.0,0.0,0.0,0.0,0.0,0.0,0.0,0.0,0.0,0.0,0.0,0.0,0.0,0.0,0.0,0.0,0.0,0.0,0.0,-2.89,0.0,0.0,0.0,0.0,0.0,0.0,0.0,0.0,0.0,0.0,0.0,0.0,0.0,0.0,0.0,0.0,0.0,0.0,0.0,0.0,0.0,0.0,0.0,0.0,0.0,0.0,0.0,0.0,0.0,0.0,0.0,0.0,0.0,0.0,0.0,0.0,0.0,0.0,0.0,0.0,0.0,0.0,0.0,0.0,0.0,0.0,0.0,0.0,0.0,0.0,0.0,0.0,0.0,0.0,0.0,0.0,0.0,0.0,0.0,0.0,0.0,0.0,0.0,0.0,0.0,0.0,0.0,0.0,0.0,0.0,0.0,0.0,0.0,0.0,0.0,0.0,0.0,0.0,0.0,0.0,0.0,0.0,0.0,0.0,0.0,0.0,0.0,0.0,0.0,0.0,0.0,0.0,0.0,0.0,0.0,0.0,0.0,0.0,0.0,0.0,0.0,0.0,0.0,0.0,0.0,0.0,0.0,0.0,0.0,0.0,-2.9976,-3.0023,-2.9744,-2.9493,-2.9318,0.0,0.0,0.0,0.0,0.0,0.0,0.0,0.0,0.0,0.0,0.0,0.0,0.0,0.0,0.0,0.0,0.0,0.0,0.0,0.0,0.0,0.0,0.0,0.0,0.0,0.0,0.0,0.0,0.0,0.0,0.0,0.0,0.0,0.0,0.0,0.0,0.0,0.0,0.0,0.0,0.0,0.0,0.0,0.0,0.0,0.0,0.0,0.0,0.0,0.0,0.0,0.0,0.0,0.0,0.0,0.0,0.0,0.0,0.0,0.0,0.0,0.0,0.0,0.0,0.0,0.0,0.0,0.0,0.0,0.0,0.0,0.0,0.0,0.0,0.0,0.0,0.0,0.0,0.0,0.0,0.0,0.0,0.0,0.0,0.0,0.0,0.0,0.0,0.0,0.0,0.0,0.0,0.0,0.0,0.0,0.0,0.0,0.0,0.0,0.0,0.0,0.0,0.0,0.0,0.0,0.0,0.0,0.0,0.0,0.0,0.0,0.0,-2.9752,-2.9602,-2.9602,0.0,0.0,0.0,0.0,0.0,0.0,0.0,0.0,0.0,0.0,0.0,0.0,0.0,0.0,0.0,0.0,0.0,0.0,0.0,0.0,0.0,0.0,0.0,0.0,0.0,0.0,0.0,0.0,0.0,0.0,0.0,0.0,0.0,0.0,0.0,0.0,0.0,0.0,0.0,0.0,0.0,0.0,0.0,0.0,0.0,0.0,0.0,0.0,0.0,0.0,0.0,0.0,0.0,0.0,0.0,0.0,0.0,0.0,0.0,0.0,0.0,0.0,0.0,0.0,0.0,0.0,0.0,0.0,0.0,0.0,0.0,0.0,0.0,0.0,0.0,0.0,0.0,0.0,0.0,0.0,0.0,0.0,0.0,0.0,0.0,0.0,0.0,0.0,0.0,0.0,0.0,0.0,0.0,0.0,0.0,0.0,0.0,0.0,0.0,0.0,0.0,0.0,0.0,0.0,0.0,0.0,0.0,0.0,0.0,0.0,-3.0092,-3.0672,-2.9992,0.0,-2.9602,0.0,0.0,0.0,0.0,0.0,0.0,0.0,0.0,0.0,0.0,0.0,0.0,0.0,0.0,0.0,0.0,0.0,0.0,0.0,0.0,0.0,0.0,0.0,0.0,0.0,0.0,0.0,0.0,0.0,0.0,0.0,0.0,0.0,0.0,0.0,0.0,0.0,0.0,0.0,0.0,0.0,0.0,0.0,0.0,0.0,0.0,0.0,0.0,0.0,0.0,0.0,0.0,0.0,0.0,0.0,0.0,0.0,0.0,0.0,0.0,0.0,0.0,0.0,0.0,0.0,0.0,0.0,0.0,0.0,0.0,0.0,0.0,0.0,0.0,0.0,0.0,0.0,0.0,0.0,0.0,0.0,0.0,0.0,0.0,0.0,0.0,0.0,0.0,0.0,0.0,0.0,0.0,0.0,0.0,0.0,0.0,0.0,0.0,0.0,0.0,0.0,0.0,0.0,0.0,0.0,0.0,0.0,0.0,0.0,0.0,-2.9809,-3.0076,-2.9774,-2.9434,0.0,0.0,0.0,0.0,0.0,0.0,0.0,0.0,0.0,0.0,0.0,0.0,0.0,0.0,0.0,0.0,0.0,0.0,0.0,0.0,0.0,0.0,0.0,0.0,0.0,0.0,0.0,0.0,0.0,0.0,0.0,0.0,0.0,0.0,0.0,0.0,0.0,0.0,0.0,0.0,0.0,0.0,0.0,0.0,0.0,0.0,0.0,0.0,0.0,0.0,0.0,0.0,0.0,0.0,0.0,0.0,0.0,0.0,0.0,0.0,0.0,0.0,0.0,0.0,0.0,0.0,0.0,0.0,0.0,0.0,0.0,0.0,0.0,0.0,0.0,0.0,0.0,0.0,0.0,0.0,0.0,0.0,0.0,0.0,0.0,0.0,0.0,0.0,0.0,0.0,0.0,0.0,0.0,0.0,0.0,0.0,0.0,0.0,0.0,0.0,0.0,0.0,0.0,0.0,0.0,0.0,0.0,0.0,0.0,0.0,-2.9857,-2.9532,-2.9333,-2.9181,-2.8887,-2.8464,0.0,0.0,0.0,0.0,0.0,0.0,0.0,0.0,0.0,0.0,0.0,0.0,0.0,0.0,0.0,0.0,0.0,0.0,0.0,0.0,0.0,0.0,0.0,0.0,0.0,0.0,0.0,0.0,0.0,0.0,0.0,0.0,0.0,0.0,0.0,0.0,0.0,0.0,0.0,0.0,0.0,0.0,0.0,0.0,0.0,0.0,0.0,0.0,0.0,0.0,0.0,0.0,0.0,0.0,0.0,0.0,0.0,0.0,0.0,0.0,0.0,0.0,0.0,0.0,0.0,0.0,0.0,0.0,0.0,0.0,0.0,0.0,0.0,0.0,0.0,0.0,0.0,0.0,0.0,0.0,0.0,0.0,0.0,0.0,0.0,0.0,0.0,0.0,0.0,0.0,0.0,0.0,0.0,0.0,0.0,0.0,0.0,0.0,0.0,0.0,0.0,0.0,0.0,0.0,0.0,0.0,0.0,0.0,-3.069,-2.9978,-2.9321,-2.8729,-2.8112,-2.7792,0.0,0.0,0.0,0.0,0.0,0.0,0.0,0.0,0.0,0.0,0.0,0.0,0.0,0.0,0.0,0.0,0.0,0.0,0.0,0.0,0.0,0.0,0.0,0.0,0.0,0.0,0.0,0.0,0.0,0.0,0.0,0.0,0.0,0.0,0.0,0.0,0.0,0.0,0.0,0.0,0.0,0.0,0.0,0.0,0.0,0.0,0.0,0.0,0.0,0.0,0.0,0.0,0.0,0.0,0.0,0.0,0.0,0.0,0.0,0.0,0.0,0.0,0.0,0.0,0.0,0.0,0.0,0.0,0.0,0.0,0.0,0.0,0.0,0.0,0.0,0.0,0.0,0.0,0.0,0.0,0.0,0.0,0.0,0.0,0.0,0.0,0.0,0.0,0.0,0.0,0.0,0.0,0.0,0.0,0.0,0.0,0.0,0.0,0.0,0.0,0.0,0.0,0.0,0.0,0.0,0.0,0.0,0.0,0.0,-2.9002,-2.8625,-2.8296,-2.8023,-2.7831,-2.7543,0.0,0.0,0.0,0.0,0.0,0.0,0.0,0.0,0.0,0.0,0.0,0.0,0.0,0.0,0.0,0.0,0.0,0.0,0.0,0.0,0.0,0.0,0.0,0.0,0.0,0.0,0.0,0.0,0.0,0.0,0.0,0.0,0.0,0.0,0.0,0.0,0.0,0.0,0.0,0.0,0.0,0.0,0.0,0.0,0.0,0.0,0.0,0.0,0.0,0.0,0.0,0.0,0.0,0.0,0.0,0.0,0.0,0.0,0.0,0.0,0.0,0.0,0.0,0.0,0.0,0.0,0.0,0.0,0.0,0.0,0.0,0.0,0.0,0.0,0.0,0.0,0.0,0.0,0.0,0.0,0.0,0.0,0.0,0.0,0.0,0.0,0.0,0.0,0.0,0.0,0.0,0.0,0.0,0.0,0.0,0.0,0.0,0.0,0.0,0.0,0.0,0.0,0.0,0.0,0.0,0.0,0.0,0.0,0.0,-2.7881,0.0,-2.707,-2.7028,-2.7107,-2.6845,0.0,0.0,0.0,0.0,0.0,0.0,0.0,0.0,0.0,0.0,0.0,0.0,0.0,0.0,0.0,0.0,0.0,0.0,0.0,0.0,0.0,0.0,0.0,0.0,0.0,0.0,0.0,0.0,0.0,0.0,0.0,0.0,0.0,0.0,0.0,0.0,0.0,0.0,0.0,0.0,0.0,0.0,0.0,0.0,0.0,0.0,0.0,0.0,0.0,0.0,0.0,0.0,0.0,0.0,0.0,0.0,0.0,0.0,0.0,0.0,0.0,0.0,0.0,0.0,0.0,0.0,0.0,0.0,0.0,0.0,0.0,0.0,0.0,0.0,0.0,0.0,0.0,0.0,0.0,0.0,0.0,0.0,0.0,0.0,0.0,0.0,0.0,0.0,0.0,0.0,0.0,0.0,0.0,0.0,0.0,0.0,0.0,0.0,0.0,0.0,0.0,0.0,0.0,0.0,0.0,0.0,0.0,0.0,-2.7999,-2.7565,-2.6324,-2.5767,-2.5824,-2.5905,-2.561,0.0,0.0,0.0,0.0,0.0,0.0,0.0,0.0,0.0,0.0,0.0,0.0,0.0,0.0,0.0,0.0,0.0,0.0,0.0,0.0,0.0,0.0,0.0,0.0,0.0,0.0,0.0,0.0,0.0,0.0,0.0,0.0,0.0,0.0,0.0,0.0,0.0,0.0,0.0,0.0,0.0,0.0,0.0,0.0,0.0,0.0,0.0,0.0,0.0,0.0,0.0,0.0,0.0,0.0,0.0,0.0,0.0,0.0,0.0,0.0,0.0,0.0,0.0,0.0,0.0,0.0,0.0,0.0,0.0,0.0,0.0,0.0,0.0,0.0,0.0,0.0,0.0,0.0,0.0,0.0,0.0,0.0,0.0,0.0,0.0,0.0,0.0,0.0,0.0,0.0,0.0,0.0,0.0,0.0,0.0,0.0,0.0,0.0,0.0,0.0,0.0,0.0,0.0,0.0,0.0,0.0,0.0,0.0,0.0,-2.7104,-2.6133,-2.5774,-2.6151,-2.6317,-2.6481,0.0,0.0,0.0,0.0,0.0,0.0,0.0,0.0,0.0,0.0,0.0,0.0,0.0,0.0,0.0,0.0,0.0,0.0,0.0,0.0,0.0,0.0,0.0,0.0,0.0,0.0,0.0,0.0,0.0,0.0,0.0,0.0,0.0,0.0,0.0,0.0,0.0,0.0,0.0,0.0,0.0,0.0,0.0,0.0,0.0,0.0,0.0,0.0,0.0,0.0,0.0,0.0,0.0,0.0,0.0,0.0,0.0,0.0,0.0,0.0,0.0,0.0,0.0,0.0,0.0,0.0,0.0,0.0,0.0,0.0,0.0,0.0,0.0,0.0,0.0,0.0,0.0,0.0,0.0,0.0,0.0,0.0,0.0,0.0,0.0,0.0,0.0,0.0,0.0,0.0,0.0,0.0,0.0,0.0,0.0,0.0,0.0,0.0,0.0,0.0,0.0,0.0,0.0,0.0,0.0,0.0,0.0,0.0,0.0,-2.7468,-2.6552,-2.6133,-2.6214,-2.6861,-2.7061,-2.6759,0.0,0.0,0.0,0.0,0.0,0.0,0.0,0.0,0.0,0.0,0.0,0.0,0.0,0.0,0.0,0.0,0.0,0.0,0.0,0.0,0.0,0.0,0.0,0.0,0.0,0.0,0.0,0.0,0.0,0.0,0.0,0.0,0.0,0.0,0.0,0.0,0.0,0.0,0.0,0.0,0.0,0.0,0.0,0.0,0.0,0.0,0.0,0.0,0.0,0.0,0.0,0.0,0.0,0.0,0.0,0.0,0.0,0.0,0.0,0.0,0.0,0.0,0.0,0.0,0.0,0.0,0.0,0.0,0.0,0.0,0.0,0.0,0.0,0.0,0.0,0.0,0.0,0.0,0.0,0.0,0.0,0.0,0.0,0.0,0.0,0.0,0.0,0.0,0.0,0.0,0.0,0.0,0.0,0.0,0.0,0.0,0.0,0.0,0.0,0.0,0.0,0.0,0.0,0.0,0.0,0.0,0.0,0.0,-2.8582,-2.7643,-2.6914,-2.6359,-2.7506,-2.7501,0.0,0.0,0.0,0.0,0.0,0.0,0.0,0.0,0.0,0.0,0.0,0.0,0.0,0.0,0.0,0.0,0.0,0.0,0.0,0.0,0.0,0.0,0.0,0.0,0.0,0.0,0.0,0.0,0.0,0.0,0.0,0.0,0.0,0.0,0.0,0.0,0.0,0.0,0.0,0.0,0.0,0.0,0.0,0.0,0.0,0.0,0.0,0.0,0.0,0.0,0.0,0.0,0.0,0.0,0.0,0.0,0.0,0.0,0.0,0.0,0.0,0.0,0.0,0.0,0.0,0.0,0.0,0.0,0.0,0.0,0.0,0.0,0.0,0.0,0.0,0.0,0.0,0.0,0.0,0.0,0.0,0.0,0.0,0.0,0.0,0.0,0.0,0.0,0.0,0.0,0.0,0.0,0.0,0.0,0.0,0.0,0.0,0.0,0.0,0.0,0.0,0.0,0.0,0.0,0.0,0.0,0.0,0.0,0.0,-2.9467,-2.995,-2.965,-2.853,-2.8732,-2.8877,0.0,0.0,0.0,0.0,0.0,0.0,0.0,0.0,0.0,0.0,0.0,0.0,0.0,0.0,0.0,0.0,0.0,0.0,0.0,0.0,0.0,0.0,0.0,0.0,0.0,0.0,0.0,0.0,0.0,0.0,0.0,0.0,0.0,0.0,0.0,0.0,0.0,0.0,0.0,0.0,0.0,0.0,0.0,0.0,0.0,0.0,0.0,0.0,0.0,0.0,0.0,0.0,0.0,0.0,0.0,0.0,0.0,0.0,0.0,0.0,0.0,0.0,0.0,0.0,0.0,0.0,0.0,0.0,0.0,0.0,0.0,0.0,0.0,0.0,0.0,0.0,0.0,0.0,0.0,0.0,0.0,0.0,0.0,0.0,0.0,0.0,0.0,0.0,0.0,0.0,0.0,0.0,0.0,0.0,0.0,0.0,0.0,0.0,0.0,0.0,0.0,0.0,0.0,0.0,0.0,0.0,0.0,0.0,-3.0233,-3.0341,-3.121,-3.1215,-3.0344,-3.0227,-3.0035,0.0,0.0,0.0,0.0,0.0,0.0,0.0,0.0,0.0,0.0,0.0,0.0,0.0,0.0,0.0,0.0,0.0,0.0,0.0,0.0,0.0,0.0,0.0,0.0,0.0,0.0,0.0,0.0,0.0,0.0,0.0,0.0,0.0,0.0,0.0,0.0,0.0,0.0,0.0,0.0,0.0,0.0,0.0,0.0,0.0,0.0,0.0,0.0,0.0,0.0,0.0,0.0,0.0,0.0,0.0,0.0,0.0,0.0,0.0,0.0,0.0,0.0,0.0,0.0,0.0,0.0,0.0,0.0,0.0,0.0,0.0,0.0,0.0,0.0,0.0,0.0,0.0,0.0,0.0,0.0,0.0,0.0,0.0,0.0,0.0,0.0,0.0,0.0,0.0,0.0,0.0,0.0,0.0,0.0,0.0,0.0,0.0,0.0,0.0,0.0,0.0,0.0,0.0,0.0,0.0,0.0,0.0,0.0,-3.1245,-3.1213,-3.1992,-3.2264,-3.1984,-3.1752,-3.0887,0.0,0.0,0.0,0.0,0.0,0.0,0.0,0.0,0.0,0.0,0.0,0.0,0.0,0.0,0.0,0.0,0.0,0.0,0.0,0.0,0.0,0.0,0.0,0.0,0.0,0.0,0.0,0.0,0.0,0.0,0.0,0.0,0.0,0.0,0.0,0.0,0.0,0.0,0.0,0.0,0.0,0.0,0.0,0.0,0.0,0.0,0.0,0.0,0.0,0.0,0.0,0.0,0.0,0.0,0.0,0.0,0.0,0.0,0.0,0.0,0.0,0.0,0.0,0.0,0.0,0.0,0.0,0.0,0.0,0.0,0.0,0.0,0.0,0.0,0.0,0.0,0.0,0.0,0.0,0.0,0.0,0.0,0.0,0.0,0.0,0.0,0.0,0.0,0.0,0.0,0.0,0.0,0.0,0.0,0.0,0.0,0.0,0.0,0.0,0.0,0.0,0.0,0.0,0.0,0.0,0.0,0.0,0.0,-3.2229,-3.1963,-3.4044,-3.4774,-3.4001,-3.1994,-3.0855,0.0,0.0,0.0,0.0,0.0,0.0,0.0,0.0,0.0,0.0,0.0,0.0,0.0,0.0,0.0,0.0,0.0,0.0,0.0,0.0,0.0,0.0,0.0,0.0,0.0,0.0,0.0,0.0,0.0,0.0,0.0,0.0,0.0,0.0,0.0,0.0,0.0,0.0,0.0,0.0,0.0,0.0,0.0,0.0,0.0,0.0,0.0,0.0,-2.6982,0.0,0.0,0.0,0.0,0.0,0.0,0.0,0.0,0.0,0.0,0.0,0.0,0.0,0.0,0.0,0.0,0.0,0.0,0.0,0.0,0.0,0.0,0.0,0.0,0.0,0.0,0.0,0.0,0.0,0.0,0.0,0.0,0.0,0.0,0.0,0.0,0.0,0.0,0.0,0.0,0.0,0.0,0.0,0.0,0.0,0.0,0.0,0.0,0.0,0.0,0.0,0.0,0.0,0.0,0.0,0.0,0.0,0.0,0.0,-3.3399,-3.3764,-3.4593,-3.4774,-3.4142,-3.2656,-3.1811,0.0,0.0,0.0,0.0,0.0,0.0,0.0,0.0,0.0,0.0,0.0,0.0,0.0,0.0,0.0,0.0,0.0,0.0,0.0,0.0,0.0,0.0,0.0,0.0,0.0,0.0,0.0,0.0,0.0,0.0,0.0,0.0,0.0,0.0,0.0,0.0,0.0,0.0,0.0,0.0,0.0,0.0,0.0,0.0,0.0,0.0,0.0,0.0,0.0,0.0,0.0,0.0,0.0,0.0,0.0,0.0,0.0,0.0,0.0,0.0,0.0,0.0,0.0,0.0,0.0,0.0,0.0,0.0,0.0,0.0,0.0,0.0,0.0,0.0,0.0,0.0,0.0,0.0,0.0,0.0,0.0,0.0,0.0,0.0,0.0,0.0,0.0,0.0,0.0,0.0,0.0,0.0,0.0,0.0,0.0,0.0,0.0,0.0,0.0,0.0,0.0,0.0,0.0,0.0,0.0,0.0,0.0,-3.3458,-3.4468,-3.5722,-3.5036,-3.4526,-3.4361,-3.3961,-3.3365,-3.2516,0.0,0.0,0.0,0.0,0.0,0.0,0.0,0.0,0.0,0.0,0.0,0.0,0.0,0.0,0.0,0.0,0.0,0.0,0.0,0.0,0.0,0.0,0.0,0.0,0.0,0.0,0.0,0.0,0.0,0.0,0.0,0.0,0.0,0.0,0.0,0.0,0.0,0.0,-2.5153,-2.5901,0.0,0.0,0.0,0.0,0.0,0.0,0.0,0.0,-2.7115,0.0,0.0,0.0,0.0,0.0,0.0,0.0,0.0,0.0,0.0,0.0,0.0,0.0,0.0,0.0,0.0,0.0,0.0,0.0,0.0,0.0,0.0,0.0,0.0,0.0,0.0,0.0,0.0,0.0,0.0,0.0,0.0,0.0,0.0,0.0,0.0,0.0,0.0,0.0,0.0,0.0,0.0,0.0,0.0,0.0,0.0,0.0,0.0,0.0,0.0,0.0,0.0,0.0,0.0,0.0,0.0,-3.3783,-3.4145,-3.5046,-3.662,-3.7063,-3.7236,-3.7169,-3.6527,-3.5402,-3.3836,0.0,0.0,0.0,0.0,0.0,0.0,0.0,0.0,0.0,0.0,0.0,0.0,0.0,0.0,0.0,0.0,0.0,0.0,0.0,0.0,0.0,0.0,0.0,0.0,0.0,0.0,0.0,0.0,0.0,0.0,0.0,0.0,0.0,0.0,0.0,0.0,0.0,0.0,0.0,-2.8005,-2.8342,0.0,0.0,0.0,0.0,0.0,0.0,0.0,0.0,-2.7969,0.0,0.0,0.0,0.0,0.0,0.0,0.0,0.0,0.0,0.0,0.0,0.0,0.0,0.0,0.0,0.0,0.0,0.0,0.0,0.0,0.0,0.0,0.0,0.0,0.0,0.0,0.0,0.0,0.0,0.0,0.0,0.0,0.0,0.0,0.0,0.0,0.0,0.0,0.0,0.0,0.0,0.0,0.0,0.0,0.0,0.0,0.0,0.0,0.0,0.0,0.0,0.0,0.0,0.0,0.0,-3.4154,-3.5336,-3.6432,-3.751,-3.7467,-3.739,-3.7337,-3.6354,-3.5121,0.0,0.0,0.0,0.0,0.0,0.0,0.0,0.0,0.0,0.0,0.0,0.0,0.0,0.0,0.0,0.0,0.0,0.0,0.0,0.0,0.0,0.0,0.0,0.0,0.0,0.0,0.0,0.0,0.0,0.0,0.0,0.0,0.0,0.0,0.0,0.0,0.0,0.0,0.0,0.0,-2.851,-2.8895,-2.9977,0.0,0.0,0.0,0.0,0.0,0.0,-2.857,-2.8077,0.0,0.0,0.0,0.0,0.0,0.0,0.0,0.0,0.0,0.0,0.0,0.0,0.0,0.0,0.0,0.0,0.0,0.0,0.0,0.0,0.0,0.0,0.0,0.0,0.0,0.0,0.0,0.0,0.0,0.0,0.0,0.0,0.0,0.0,0.0,0.0,0.0,0.0,0.0,0.0,0.0,0.0,0.0,0.0,0.0,0.0,0.0,0.0,0.0,0.0,0.0,0.0,0.0,0.0,0.0,-3.4385,-3.6185,-3.7462,-3.8121,-3.7529,-3.7169,-3.7155,-3.5939,-3.4673,0.0,0.0,0.0,0.0,0.0,0.0,0.0,0.0,0.0,0.0,0.0,0.0,0.0,0.0,0.0,0.0,0.0,0.0,0.0,0.0,0.0,0.0,0.0,0.0,0.0,0.0,0.0,0.0,0.0,0.0,0.0,0.0,0.0,0.0,0.0,0.0,0.0,0.0,0.0,0.0,0.0,-2.9448,-3.0675,-2.9605,0.0,0.0,0.0,0.0,-2.9484,-2.9088,0.0,0.0,0.0,0.0,0.0,0.0,0.0,0.0,0.0,0.0,0.0,0.0,0.0,0.0,0.0,0.0,0.0,0.0,0.0,0.0,0.0,0.0,0.0,0.0,0.0,0.0,0.0,0.0,0.0,0.0,0.0,0.0,0.0,0.0,0.0,0.0,0.0,0.0,0.0,0.0,0.0,0.0,0.0,0.0,0.0,0.0,0.0,0.0,0.0,0.0,0.0,0.0,0.0,0.0,0.0,0.0,-3.4322,-3.5735,-3.7012,-3.813,-3.8127,-3.8052,-3.8023,-3.6823,-3.5565,0.0,0.0,0.0,0.0,0.0,0.0,0.0,0.0,0.0,0.0,0.0,0.0,0.0,0.0,0.0,0.0,0.0,0.0,0.0,0.0,0.0,0.0,0.0,0.0,0.0,0.0,0.0,0.0,0.0,0.0,0.0,0.0,0.0,0.0,0.0,0.0,0.0,0.0,0.0,0.0,0.0,-3.0706,-3.0898,-2.9917,-2.9208,0.0,0.0,-3.0543,-3.0687,-3.1396,0.0,0.0,0.0,0.0,0.0,0.0,0.0,0.0,0.0,0.0,0.0,0.0,0.0,0.0,0.0,0.0,0.0,0.0,0.0,0.0,0.0,0.0,0.0,0.0,0.0,0.0,0.0,0.0,0.0,0.0,0.0,0.0,0.0,0.0,0.0,0.0,0.0,0.0,0.0,0.0,0.0,0.0,0.0,0.0,0.0,0.0,0.0,0.0,0.0,0.0,0.0,0.0,0.0,0.0,0.0,-3.2585,-3.4366,-3.6373,-3.7651,-3.8173,-3.8202,-3.8202,-3.8202,-3.6272,-3.498,0.0,0.0,0.0,0.0,0.0,0.0,0.0,0.0,0.0,0.0,0.0,0.0,0.0,0.0,0.0,0.0,0.0,0.0,0.0,0.0,0.0,0.0,0.0,0.0,0.0,0.0,0.0,0.0,0.0,0.0,0.0,0.0,0.0,0.0,0.0,0.0,0.0,0.0,0.0,0.0,0.0,0.0,-3.0795,-3.023,0.0,0.0,0.0,-3.0922,-3.0922,0.0,0.0,0.0,0.0,0.0,0.0,0.0,0.0,0.0,0.0,0.0,0.0,0.0,0.0,0.0,0.0,0.0,0.0,0.0,0.0,0.0,0.0,0.0,0.0,0.0,0.0,0.0,0.0,0.0,0.0,0.0,0.0,0.0,0.0,0.0,0.0,0.0,0.0,0.0,0.0,0.0,0.0,0.0,0.0,0.0,0.0,0.0,0.0,0.0,0.0,0.0,0.0,0.0,0.0,0.0,0.0,0.0,-3.4428,-3.691,-3.8202,-3.8202,-3.8202,-3.8202,-3.8173,-3.6199,0.0,0.0,0.0,0.0,0.0,0.0,0.0,0.0,0.0,0.0,0.0,0.0,0.0,0.0,0.0,0.0,0.0,0.0,0.0,0.0,0.0,0.0,0.0,0.0,0.0,0.0,0.0,-2.6939,0.0,0.0,0.0,0.0,0.0,0.0,0.0,0.0,0.0,0.0,0.0,0.0,0.0,0.0,-2.9677,-3.0778,-3.0543,-3.0706,0.0,0.0,-3.1336,-3.1456,-3.2382,-3.213,0.0,0.0,0.0,0.0,0.0,0.0,0.0,0.0,0.0,0.0,0.0,0.0,0.0,0.0,0.0,0.0,0.0,0.0,0.0,0.0,0.0,0.0,0.0,0.0,0.0,0.0,0.0,0.0,0.0,0.0,0.0,0.0,0.0,0.0,0.0,0.0,0.0,0.0,0.0,0.0,0.0,0.0,0.0,0.0,0.0,0.0,0.0,0.0,0.0,0.0,0.0,0.0,0.0,0.0,0.0,-3.4409,-3.6925,-3.8202,-3.8202,-3.8202,-3.8202,-3.8188,-3.7506,-3.6243,0.0,0.0,0.0,0.0,0.0,0.0,0.0,0.0,0.0,0.0,0.0,0.0,0.0,0.0,0.0,0.0,0.0,0.0,0.0,0.0,0.0,0.0,0.0,0.0,0.0,0.0,0.0,0.0,0.0,0.0,0.0,0.0,0.0,0.0,0.0,0.0,0.0,0.0,0.0,0.0,0.0,-2.9689,-3.0735,-3.0843,-3.1204,0.0,0.0,-3.2563,-3.3044,-3.3982,-3.3597,-3.0482,0.0,0.0,0.0,0.0,0.0,0.0,0.0,0.0,0.0,0.0,0.0,0.0,0.0,0.0,0.0,0.0,0.0,0.0,0.0,0.0,0.0,0.0,0.0,0.0,0.0,0.0,0.0,0.0,0.0,0.0,0.0,0.0,0.0,0.0,0.0,0.0,0.0,0.0,0.0,0.0,0.0,0.0,0.0,0.0,0.0,0.0,0.0,0.0,0.0,0.0,0.0,0.0,0.0,-3.3137,-3.4414,-3.691,-3.8202,-3.8202,-3.8202,-3.8202,-3.8202,-3.723,-3.5981,0.0,0.0,0.0,0.0,0.0,0.0,0.0,0.0,0.0,0.0,0.0,0.0,0.0,0.0,0.0,0.0,0.0,0.0,0.0,0.0,0.0,0.0,0.0,0.0,0.0,0.0,0.0,0.0,-3.0591,-3.0676,-2.9532,0.0,0.0,0.0,0.0,0.0,0.0,0.0,0.0,0.0,0.0,-2.9677,-3.0766,-3.0922,0.0,0.0,-3.2503,-3.2695,-3.3212,-3.3621,-3.3008,-3.0494,-2.9821,0.0,0.0,0.0,0.0,0.0,0.0,0.0,0.0,0.0,0.0,0.0,0.0,0.0,0.0,0.0,0.0,0.0,0.0,0.0,0.0,0.0,0.0,0.0,0.0,0.0,0.0,0.0,0.0,0.0,0.0,0.0,0.0,0.0,0.0,0.0,0.0,0.0,0.0,0.0,0.0,0.0,0.0,0.0,0.0,0.0,0.0,0.0,0.0,0.0,0.0,0.0,0.0,-3.3137,-3.438,-3.691,-3.8202,-3.8202,-3.8202,-3.8202,-3.8173,-3.7331,-3.6272,0.0,0.0,0.0,0.0,0.0,0.0,0.0,0.0,0.0,0.0,0.0,0.0,0.0,0.0,0.0,0.0,0.0,0.0,0.0,0.0,0.0,0.0,0.0,0.0,0.0,0.0,0.0,0.0,-3.1241,-3.1012,-2.949,0.0,0.0,0.0,0.0,0.0,0.0,0.0,0.0,0.0,0.0,-2.9917,-3.1007,-3.0975,-3.1276,-3.2346,-3.2226,-3.2298,-3.3152,-3.3152,-3.2491,-3.0831,0.0,0.0,0.0,0.0,0.0,0.0,0.0,0.0,0.0,0.0,0.0,0.0,0.0,0.0,0.0,0.0,0.0,0.0,0.0,0.0,0.0,0.0,0.0,0.0,0.0,0.0,0.0,0.0,0.0,0.0,-2.7386,0.0,0.0,0.0,0.0,0.0,0.0,0.0,0.0,0.0,0.0,0.0,0.0,0.0,0.0,0.0,0.0,0.0,0.0,0.0,0.0,0.0,0.0,-3.3104,-3.438,-3.691,-3.8202,-3.8202,-3.8202,-3.8202,-3.8202,-3.8173,-3.7564,-3.6257,0.0,0.0,0.0,0.0,0.0,0.0,0.0,0.0,0.0,0.0,0.0,0.0,0.0,0.0,0.0,0.0,0.0,0.0,0.0,0.0,0.0,0.0,0.0,0.0,0.0,0.0,-2.8425,-2.9215,-2.9572,0.0,0.0,0.0,0.0,0.0,0.0,0.0,0.0,0.0,0.0,-2.9725,-3.0489,-3.1512,-3.1235,-3.1296,-3.2334,-3.1625,-3.148,-3.3044,-3.2839,-3.231,0.0,0.0,0.0,0.0,0.0,0.0,0.0,0.0,0.0,0.0,0.0,0.0,0.0,0.0,0.0,0.0,0.0,0.0,0.0,0.0,0.0,0.0,0.0,0.0,0.0,0.0,0.0,-2.9678,-2.9277,0.0,0.0,0.0,0.0,0.0,0.0,0.0,0.0,0.0,0.0,0.0,-3.3416,-3.3234,0.0,0.0,0.0,0.0,0.0,0.0,0.0,0.0,0.0,0.0,0.0,0.0,-3.3137,-3.4457,-3.691,-3.8202,-3.8202,-3.8202,-3.8202,-3.8202,-3.8202,-3.7404,-3.572,0.0,0.0,0.0,0.0,0.0,0.0,0.0,0.0,0.0,0.0,0.0,0.0,0.0,0.0,0.0,0.0,0.0,0.0,0.0,0.0,0.0,0.0,0.0,0.0,0.0,-2.9061,0.0,0.0,0.0,0.0,0.0,0.0,0.0,0.0,0.0,0.0,0.0,-2.9388,-2.9294,-2.946,-2.9941,-3.0999,-3.1043,-3.1264,0.0,0.0,0.0,0.0,0.0,0.0,0.0,0.0,0.0,0.0,0.0,0.0,0.0,0.0,-3.1132,-2.9364,-2.9027,-2.9088,-2.9256,0.0,0.0,0.0,0.0,0.0,0.0,0.0,0.0,0.0,0.0,0.0,0.0,0.0,0.0,-3.1812,0.0,-3.138,0.0,0.0,0.0,0.0,0.0,0.0,0.0,0.0,-3.397,-3.4784,-3.5564,-3.5307,-3.4966,0.0,-3.4374,-3.271,0.0,0.0,0.0,0.0,0.0,0.0,0.0,0.0,-3.3369,-3.4472,-3.691,-3.8202,-3.8202,-3.8202,-3.8202,-3.8202,-3.8202,-3.7622,-3.6424,-3.4624,-3.3211,0.0,0.0,0.0,0.0,0.0,0.0,0.0,0.0,0.0,0.0,0.0,0.0,0.0,0.0,0.0,0.0,0.0,0.0,0.0,0.0,0.0,0.0,0.0,-2.9668,0.0,0.0,0.0,0.0,0.0,0.0,0.0,0.0,0.0,-2.9099,-2.9516,-2.9886,-2.9873,-2.9857,-3.0158,-3.1079,0.0,0.0,0.0,0.0,0.0,0.0,0.0,-3.1724,-3.1729,-3.1579,-3.1514,-3.1733,-3.2298,-3.2719,-3.2539,0.0,0.0,-3.1036,-3.0663,-3.0699,-3.0903,-3.0627,-3.047,-3.0855,-3.0927,-3.0987,0.0,0.0,0.0,0.0,0.0,0.0,0.0,0.0,-3.3556,-3.3634,0.0,-3.3574,0.0,0.0,0.0,0.0,0.0,-3.3388,0.0,0.0,-3.7266,-3.8111,-3.6989,-3.6764,-3.6658,-3.6629,-3.6078,-3.5025,-3.3634,-3.3006,0.0,0.0,0.0,0.0,0.0,0.0,-3.3852,-3.4545,-3.6954,-3.8202,-3.8202,-3.8202,-3.8202,-3.8202,-3.8202,-3.8188,-3.8144,-3.691,-3.5969,-3.5372,-3.288,0.0,0.0,0.0,0.0,0.0,0.0,0.0,0.0,0.0,0.0,0.0,0.0,0.0,0.0,0.0,0.0,0.0,0.0,0.0,0.0,-3.0337,0.0,0.0,0.0,0.0,0.0,0.0,0.0,0.0,0.0,0.0,-3.0908,-3.0597,-3.0527,-3.0851,0.0,0.0,0.0,0.0,-3.1103,-3.1645,-3.0807,-3.0573,-3.1597,-3.1753,-3.2059,-3.3112,0.0,0.0,-3.3389,-3.332,-3.32,-3.2683,-3.3382,-3.3862,-3.3392,-3.2466,-3.1997,-3.2442,-3.1793,-3.1476,-3.2298,-3.2563,-3.2695,-3.1034,0.0,0.0,0.0,0.0,-3.3416,-3.4664,-3.5375,-3.6015,-3.6043,-3.5639,-3.5639,0.0,0.0,0.0,0.0,0.0,0.0,-3.5615,-3.6481,-3.7278,-3.7884,-3.8468,-3.8288,-3.8106,-3.7923,-3.7784,-3.7383,-3.6852,-3.6664,-3.453,-3.0685,0.0,0.0,0.0,0.0,-3.4675,-3.5793,-3.7375,-3.8202,-3.8202,-3.8202,-3.8202,-3.8202,-3.8202,-3.8202,-3.8202,-3.7263,-3.6212,-3.5135,-3.342,0.0,0.0,0.0,0.0,0.0,0.0,0.0,0.0,0.0,0.0,0.0,0.0,0.0,0.0,0.0,0.0,0.0,0.0,0.0,-2.967,-3.0998,-3.1232,0.0,0.0,0.0,0.0,0.0,0.0,0.0,0.0,0.0,-3.2607,-3.172,-3.1017,0.0,0.0,-3.0506,-3.1067,-3.1019,-3.1103,-3.1633,-3.1452,0.0,-3.2142,-3.2261,-3.2503,-3.3208,-3.3666,-3.3943,-3.3825,-3.409,-3.4342,-3.4126,-3.4354,-3.4498,-3.4414,-3.4162,-3.397,-3.4102,-3.3897,-3.3777,-3.4078,-3.4162,-3.4186,-3.1268,-3.1505,-3.2593,-3.2846,-3.2756,-3.4813,-3.616,-3.6954,-3.7795,-3.7988,-3.7644,-3.7644,-3.6686,-3.5026,-3.4517,0.0,0.0,0.0,-3.6956,-3.8212,-3.8072,-3.8433,-3.9162,-3.9031,-3.8797,-3.8627,-3.8612,-3.8464,-3.8202,-3.8015,-3.6227,-3.298,0.0,0.0,-3.2684,-3.4341,-3.5532,-3.6315,-3.7564,-3.8202,-3.8202,-3.8202,-3.8202,-3.8202,-3.8202,-3.8202,-3.8202,-3.7682,-3.7044,-3.629,-3.4585,-3.3088,0.0,0.0,0.0,0.0,0.0,0.0,0.0,0.0,0.0,0.0,0.0,-2.9276,0.0,0.0,0.0,0.0,-3.031,-3.0662,-3.1359,-3.1808,0.0,0.0,0.0,0.0,0.0,0.0,0.0,-3.2554,-3.2548,-3.2576,-3.2821,-3.2165,-3.1514,-3.1238,-3.0778,-3.0633,-3.1163,0.0,-3.1344,-3.1657,-3.1705,-3.1898,-3.2418,-3.2699,-3.3037,-3.3753,-3.4138,-3.4282,-3.4306,-3.4583,-3.4763,-3.4775,-3.4775,-3.4775,-3.4775,-3.4775,-3.4775,-3.4775,-3.4775,-3.4775,-3.4775,-3.4775,-3.4775,-3.1185,-3.2117,-3.2216,-3.3043,-3.4431,-3.573,-3.6931,-3.7985,-3.8958,-3.9388,-3.9388,-3.9388,-3.8736,-3.7509,-3.6342,0.0,-3.7569,-3.7569,-3.8227,-3.9388,-3.9388,-3.9388,-3.9388,-3.9213,-3.9031,-3.8819,-3.8833,-3.8598,-3.8211,-3.7857,-3.7229,-3.6402,-3.6388,-3.5778,-3.469,-3.5764,-3.6402,-3.6475,-3.7622,-3.8202,-3.8202,-3.8202,-3.8202,-3.8202,-3.8202,-3.8202,-3.8202,-3.8202,-3.8165,-3.8046,-3.6164,-3.5119,-3.507,0.0,0.0,0.0,0.0,0.0,0.0,0.0,0.0,0.0,0.0,0.0,0.0,0.0,0.0,0.0,-3.2305,0.0,-3.4175,-3.2639,0.0,0.0,0.0,-3.1391,-3.1248,-3.2266,-3.2715,-3.2043,0.0,0.0,-3.229,-3.2156,-3.1974,-3.1733,-3.1284,-3.1151,-3.1633,-3.1693,-3.1705,-3.1705,-3.1705,-3.191,-3.2418,-3.2999,-3.3671,-3.4522,-3.4775,-3.4739,-3.4787,-3.4751,-3.4775,-3.4775,-3.4775,-3.4775,-3.4775,-3.4775,-3.4775,-3.4775,-3.4775,-3.4775,-3.4775,-3.4775,-3.4775,-3.0838,-3.1303,-3.2286,-3.3528,-3.5035,-3.7509,-3.8407,-3.8202,-3.9031,-3.9388,-3.9388,-3.9388,-3.9194,-3.888,-3.8616,-3.8626,-3.8945,-3.8931,-3.9074,-3.9388,-3.9388,-3.9388,-3.9388,-3.9352,-3.9228,-3.9031,-3.9017,-3.8848,-3.8427,-3.8332,-3.7864,-3.7099,-3.707,-3.6664,-3.5923,-3.6678,-3.7288,-3.7752,-3.8057,-3.8202,-3.8202,-3.8202,-3.8202,-3.8202,-3.8202,-3.8202,-3.8202,-3.8202,-3.7886,-3.7208,-3.6069,-3.4826,-3.3468,-3.1099,0.0,0.0,0.0,0.0,0.0,0.0,0.0,0.0,0.0,-3.0063,-2.7311,0.0,-3.0718,0.0,-3.2244,-3.39,-3.4854,-3.3322,0.0,0.0,-3.169,-3.1429,-3.2944,-3.3409,-3.3965,-3.4941,-3.434,-3.3829,-3.3794,-3.2621,-3.178,-3.1681,-3.1597,-3.1573,-3.1693,-3.1705,-3.1705,-3.1705,-3.1705,-3.191,-3.243,-3.3262,-3.403,-3.4691,-3.4763,-3.4775,-3.4775,-3.4775,-3.4775,-3.4775,-3.4775,-3.4775,-3.4775,-3.4775,-3.4775,-3.4775,-3.4775,-3.4775,-3.4775,-3.4775,-3.4726,-3.0421,-3.0896,-3.2054,-3.3356,-3.4808,-3.6859,-3.7706,-3.7682,-3.8486,-3.9083,-3.9388,-3.9388,-3.9388,-3.9388,-3.9388,-3.9388,-3.9388,-3.9388,-3.9388,-3.9388,-3.9388,-3.9388,-3.9388,-3.9388,-3.9301,-3.909,-3.909,-3.8885,-3.8516,-3.8516,-3.8229,-3.7709,-3.7709,-3.752,-3.7157,-3.6954,-3.7027,-3.7346,-3.7665,-3.7926,-3.8202,-3.8202,-3.7926,-3.7389,-3.736,-3.7099,-3.6548,-3.6519,-3.6288,-3.5787,-3.4966,-3.4046,-3.3092,-3.0845,-2.9247,0.0,0.0,0.0,0.0,0.0,0.0,0.0,0.0,0.0,0.0,0.0,-3.1626,-3.1051,-3.3085,-3.4515,-3.4713,-3.3851,-3.3542,-3.4238,-3.3574,-3.3495,-3.4545,-3.4626,-3.4826,-3.5232,-3.4738,-3.4139,-3.3762,-3.2907,-3.212,-3.1749,-3.1705,-3.1705,-3.1705,-3.1705,-3.1705,-3.1705,-3.1705,-3.1898,-3.2406,-3.3322,-3.4078,-3.4366,-3.4619,-3.4775,-3.4775,-3.4775,-3.4775,-3.4775,-3.4775,-3.4775,-3.4775,-3.4775,-3.4775,-3.4775,-3.4775,-3.4775,-3.4775,-3.4677,-3.458,-3.0159,-3.0705,-3.1694,-3.2852,-3.4098,-3.5022,-3.6041,-3.713,-3.8,-3.8738,-3.9388,-3.9388,-3.9388,-3.9388,-3.9388,-3.9388,-3.9388,-3.9388,-3.9388,-3.9388,-3.9388,-3.9388,-3.9388,-3.9388,-3.9316,-3.9156,-3.9141,-3.8907,-3.8553,-3.8553,-3.8397,-3.8101,-3.8086,-3.8043,-3.7912,-3.6852,-3.6373,-3.6548,-3.7056,-3.7564,-3.8072,-3.7924,-3.7279,-3.61,-3.5956,-3.5337,-3.4185,-3.4128,-3.4162,-3.423,-3.3346,-3.3016,-3.3332,-3.0801,-2.9154,0.0,-2.7064,0.0,0.0,0.0,0.0,0.0,0.0,0.0,0.0,-3.2583,-3.2676,-3.2899,-3.4125,-3.4762,-3.4596,-3.4371,-3.4701,-3.5871,-3.5948,-3.582,-3.5682,-3.5709,-3.5454,-3.4719,-3.4555,-3.4181,-3.3564,-3.3207,-3.2704,-3.2033,-3.1793,-3.1705,-3.1705,-3.1705,-3.1705,-3.1705,-3.1705,-3.1865,-3.2442,-3.3296,-3.3898,-3.4018,-3.4438,-3.4763,-3.4775,-3.4775,-3.4775,-3.4775,-3.4775,-3.4775,-3.4775,-3.4775,-3.4775,-3.4775,-3.4775,-3.4775,-3.4726,-3.458,-3.4396,-3.0305,-3.0752,-3.1358,-3.2261,-3.3279,-3.3794,-3.5512,-3.8,-3.8811,-3.9265,-3.9388,-3.9388,-3.9388,-3.9388,-3.9388,-3.9388,-3.9388,-3.9388,-3.9388,-3.9388,-3.9388,-3.9388,-3.9388,-3.9388,-3.9373,-3.9337,-3.9352,-3.9141,-3.8745,-3.8745,-3.8326,-3.7491,-3.7476,-3.7201,-3.6693,0.0,0.0,0.0,-3.7491,-3.736,-3.7411,-3.6362,-3.5427,-3.4689,-3.4083,0.0,-3.2739,-3.2698,-3.2995,-3.3514,-3.2232,0.0,0.0,0.0,0.0,0.0,0.0,0.0,0.0,0.0,0.0,0.0,-3.2317,-3.2416,-3.2013,-3.1541,-3.2195,-3.4433,-3.3715,-3.3973,-3.6207,-3.514,-3.4701,-3.5625,-3.5103,-3.49,-3.5575,-3.5709,-3.587,-3.6441,-3.587,-3.5372,-3.5074,-3.3943,-3.298,-3.2704,-3.2164,-3.1749,-3.1705,-3.1705,-3.1705,-3.1705,-3.1705,-3.191,-3.2418,-3.3032,-3.3609,-3.3934,-3.4438,-3.4739,-3.4775,-3.4775,-3.4775,-3.4775,-3.4775,-3.4775,-3.4775,-3.4775,-3.4775,-3.4775,-3.4775,-3.4726,-3.4531,-3.4433,-3.4286,-3.0228,0.0,-3.0791,-3.1472,0.0,-3.2945,-3.4501,-3.6756,-3.7748,-3.8634,-3.9388,-3.9388,-3.9388,-3.9388,-3.9388,-3.9388,-3.9388,-3.9388,-3.9388,-3.9388,-3.9388,-3.9388,-3.9388,-3.9388,-3.9337,-3.9265,-3.9265,-3.9031,-3.8649,-3.8664,-3.8355,-3.7767,-3.7738,-3.7578,-3.7259,-3.7244,-3.7418,-3.7767,-3.7447,-3.7447,-3.7686,-3.6608,-3.5597,-3.4669,-3.3867,0.0,0.0,0.0,0.0,0.0,0.0,0.0,0.0,-3.0872,0.0,-3.0611,-2.982,-2.9839,-3.0893,-3.1167,-3.1859,-3.312,-3.3625,-3.3601,-3.2978,-3.2739,-3.3172,-3.46,-3.3913,-3.403,-3.544,-3.4856,-3.4472,-3.4938,-3.4609,-3.4678,-3.5494,-3.5709,-3.603,-3.6783,-3.6612,-3.6189,-3.5736,-3.5006,-3.3943,-3.3164,-3.2618,-3.2208,-3.1793,-3.1705,-3.1705,-3.1705,-3.1705,-3.1801,-3.2082,-3.2803,-3.3344,-3.3681,-3.4318,-3.4715,-3.4775,-3.4775,-3.4775,-3.4775,-3.4775,-3.4775,-3.4775,-3.4775,-3.4775,-3.4628,-3.464,-3.4482,-3.415,-3.4249,-3.4335,-3.019,-3.0279,-3.0444,-3.0931,-3.1691,-3.2493,-3.3771,-3.5402,0.0,0.0,0.0,-3.9328,-3.9388,-3.9388,-3.9388,-3.9388,-3.9388,-3.9388,-3.9388,-3.9388,-3.9388,-3.9388,-3.9388,-3.9388,-3.925,-3.9104,-3.9068,-3.8848,-3.8516,-3.8516,-3.8404,-3.824,-3.8202,-3.8202,-3.8202,-3.8202,-3.7955,-3.7476,-3.736,-3.7549,-3.7976,-3.6953,-3.5837,-3.4706,-3.3688,-3.2595,-3.1482,-3.1442,-3.1502,-3.1613,-3.1516,-3.1362,-3.1108,-3.074,-3.0456,-3.0317,-2.9773,-3.0223,-3.2021,-3.1949,-3.2621,-3.4476,-3.4417,-3.4242,-3.4113,-3.411,-3.4111,-3.4288,-3.4165,-3.4139,-3.4306,-3.4293,-3.4293,-3.4293,-3.4293,-3.4596,-3.5332,-3.5615,-3.599,-3.6652,-3.6861,-3.673,-3.607,-3.5749,-3.5196,-3.3859,-3.3407,-3.2907,-3.2108,-3.1837,-3.1705,-3.1705,-3.1717,-3.1741,-3.1982,-3.268,-3.326,-3.3501,-3.4246,-3.4739,-3.4775,-3.4775,-3.4775,-3.4775,-3.4775,-3.4775,-3.4775,-3.4775,-3.4726,-3.4531,-3.4433,-3.4286,-3.3953,-3.4101,-3.4298,-3.0571,-3.0861,-3.0911,-3.1336,-3.2067,-3.2705,-3.414,-3.6122,-3.7567,-3.8335,-3.8571,-3.9155,-3.9388,-3.9388,-3.9388,-3.9388,-3.9388,-3.9388,-3.9388,-3.9388,-3.9388,-3.9388,-3.9388,-3.9228,-3.9141,-3.909,-3.8929,-3.8723,-3.8516,-3.8478,-3.8389,-3.824,-3.8202,-3.8202,-3.8202,-3.8202,-3.8159,-3.8072,-3.7578,-3.7346,-3.7396,-3.538,-3.3987,-3.3258,-3.1863,-3.0735,-3.0113,-3.0139,-3.033,-3.0872,-3.0394,-3.0714,-3.2031,-3.143,-3.1394,-3.2219,-3.2062,-3.205,-3.2358,-3.2992,-3.3733,-3.4432,-3.3762,-3.3524,-3.419,-3.3585,-3.3496,-3.4185,-3.3607,-3.3522,-3.4181,-3.4223,-3.4168,-3.4264,-3.4293,-3.4389,-3.4526,-3.5237,-3.5749,-3.595,-3.6559,-3.6978,-3.673,-3.6149,-3.5669,-3.5237,-3.4347,-3.372,-3.2864,-3.2152,-3.1749,-3.1705,-3.1705,-3.191,-3.2274,-3.2909,-3.3487,-3.3826,-3.4414,-3.486,-3.4775,-3.4775,-3.4775,-3.4775,-3.4775,-3.4775,-3.4775,-3.4775,-3.4726,-3.4677,-3.4531,-3.4347,-3.42,-3.415,-3.3977,-3.0698,-3.0836,-3.0949,-3.1185,-3.1556,-3.2216,-3.3047,-3.4148,-3.5936,-3.7164,-3.7868,-3.8197,-3.8527,-3.8856,-3.8871,-3.9065,-3.9388,-3.9388,-3.9388,-3.9388,-3.9388,-3.9388,-3.9388,-3.9316,-3.9141,-3.8943,-3.8819,-3.8634,-3.8366,-3.8366,-3.8277,-3.8202,-3.8202,-3.8202,-3.8202,-3.8202,-3.8202,-3.8188,-3.7926,-3.7796,-3.7744,-3.585,-3.4706,-3.4421,-3.2832,-3.1838,-3.1587,-3.1574,-3.1726,-3.2026,-3.1779,-3.1953,-3.2686,-3.2176,-3.2073,-3.2643,-3.2288,-3.2069,-3.2169,-3.2426,-3.2735,-3.298,-3.2575,-3.2438,-3.286,-3.2513,-3.245,-3.2854,-3.2519,-3.2444,-3.2864,-3.2907,-3.2907,-3.2852,-3.328,-3.3606,-3.3775,-3.4869,-3.5709,-3.579,-3.6455,-3.6993,-3.6978,-3.6652,-3.6163,-3.5696,-3.4568,-3.3479,-3.3091,-3.2509,-3.2042,-3.1801,-3.1958,-3.219,-3.2548,-3.3683,-3.4232,-3.41,-3.4882,-3.5246,-3.4957,-3.4775,-3.4775,-3.4775,-3.4775,-3.4775,-3.4775,-3.4775,-3.4677,-3.4445,-3.4347,-3.415,-3.3915,-3.3717,-3.363,-3.0736,-3.0773,-3.0911,-3.1086,-3.1296,-3.1846,-3.229,-3.2761,-3.4387,-3.5805,-3.6903,-3.727,-3.7689,-3.8138,-3.8182,-3.8542,-3.9125,-3.9185,-3.9239,-3.9388,-3.9388,-3.9388,-3.9337,-3.9301,-3.9068,-3.8745,-3.8686,-3.8486,-3.824,-3.8202,-3.8202,-3.8202,-3.8202,-3.8202,-3.8202,-3.8202,-3.8202,-3.8202,-3.8202,-3.8202,-3.8165,-3.6503,-3.5615,-3.5507,-3.3982,-3.3124,-3.3124,-3.3124,-3.3124,-3.3124,-3.3124,-3.3124,-3.3081,-3.2692,-3.255,-3.2636,-3.2101,-3.1793,-3.1893,-3.1805,-3.1705,-3.1705,-3.1705,-3.1705,-3.1705,-3.1705,-3.1705,-3.1705,-3.1761,-3.1749,-3.1793,-3.1749,-3.1793,-3.2001,-3.2575,-3.3152,-3.3395,-3.4568,-3.5494,-3.5696,-3.6282,-3.673,-3.694,-3.6978,-3.673,-3.599,-3.4622,-3.3687,-3.3739,-3.3301,-3.2633,-3.254,-3.2575,-3.2731,-3.2885,-3.4287,-3.5074,-3.453,-3.5478,-3.5808,-3.5343,-3.5017,-3.4823,-3.4775,-3.4775,-3.4775,-3.4775,-3.4775,-3.4628,-3.431,-3.4174,-3.3927,-3.3481,-3.3381,-3.3381,-3.0811,-3.0949,-3.0986,-3.1394,-3.1942,-3.2051,-3.2777,-3.3905,-3.4317,-3.4861,-3.5669,-3.6881,-3.737,-3.7479,-3.7494,-3.7819,-3.8467,-3.8482,-3.8826,-3.9349,-3.9388,-3.9301,-3.9141,-3.8943,-3.8723,-3.8553,-3.8389,-3.8277,-3.8202,-3.8202,-3.8202,-3.8202,-3.8202,-3.8202,-3.8202,-3.8202,-3.8202,-3.8202,-3.8202,-3.8202,-3.8127,-3.6503,-3.5628,-3.5574,-3.3995,-3.3124,-3.3124,-3.3124,-3.3124,-3.3124,-3.3124,-3.3124,-3.3081,-3.281,-3.268,-3.2667,-3.2245,-3.1906,-3.1761,-3.1705,-3.1705,-3.1705,-3.1705,-3.1705,-3.1705,-3.1705,-3.1705,-3.1705,-3.1705,-3.1705,-3.1705,-3.1705,-3.1989,-3.2649,-3.2907,-3.328,-3.3985,-3.4306,-3.4719,-3.5629,-3.583,-3.6123,-3.6822,-3.6978,-3.694,-3.6783,-3.5898,-3.5369,-3.566,-3.4744,-3.4015,-3.415,-3.3842,-3.3532,-3.3905,-3.4755,-3.5717,-3.606,-3.621,-3.632,-3.6036,-3.5391,-3.4775,-3.4823,-3.4775,-3.4775,-3.4775,-3.4775,-3.4677,-3.4396,-3.4162,-3.3927,-3.3431,-3.3281,-3.3331,-3.0911,-3.1024,-3.1024,-3.1147,-3.1431,-3.1431,-3.1773,-3.2376,-3.2812,-3.3178,-3.3597,-3.4499,-3.5605,-3.6817,-3.635,-3.6739,-3.7823,-3.8212,-3.8542,-3.8841,-3.923,-3.9301,-3.909,-3.9017,-3.8811,-3.8516,-3.8404,-3.83,-3.8202,-3.8202,-3.8202,-3.8202,-3.8202,-3.8202,-3.8202,-3.8202,-3.7962,-3.7453,-3.7414,-3.7208,-3.666,-3.5975,-3.5346,-3.4814,-3.3738,-3.3124,-3.3124,-3.3124,-3.3124,-3.3124,-3.3124,-3.3124,-3.3124,-3.2853,-3.2667,-3.2667,-3.2245,-3.1893,-3.1717,-3.1705,-3.1705,-3.1705,-3.1705,-3.1705,-3.1705,-3.1705,-3.1705,-3.1705,-3.1705,-3.1705,-3.1705,-3.1705,-3.2045,-3.2778,-3.298,-3.3365,-3.4181,-3.4293,-3.4692,-3.5534,-3.5709,-3.603,-3.6783,-3.6978,-3.6978,-3.6957,-3.6518,-3.6416,-3.651,-3.6059,-3.5882,-3.6006,-3.5965,-3.56,-3.5267,-3.6552,-3.73,-3.7383,-3.7678,-3.7848,-3.6508,-3.6083,-3.5523,-3.492,-3.4823,-3.4775,-3.4775,-3.4775,-3.4726,-3.4433,-3.4052,-3.3729,-3.3381,-3.3281,-3.3281,-3.1444,-3.1444,-3.1444,-3.1457,-3.1457,-3.1457,-3.1609,-3.181,-3.2331,-3.2686,-3.2864,-3.3088,-3.4262,-3.5853,-3.5351,-3.582,-3.7112,-3.7823,-3.8227,-3.8452,-3.9009,-3.9228,-3.9017,-3.8958,-3.8738,-3.8478,-3.8404,-3.8366,-3.8202,-3.7924,-3.7848,-3.7834,-3.7834,-3.7848,-3.7848,-3.7848,-3.7529,-3.6936,-3.6688,-3.6122,-3.54,-3.5278,-3.4965,-3.4384,-3.3581,-3.3124,-3.3124,-3.3124,-3.3124,-3.3124,-3.3124,-3.3124,-3.3124,-3.2909,-3.2754,-3.2593,-3.2245,-3.1893,-3.1705,-3.1705,-3.1705,-3.1705,-3.1705,-3.1705,-3.1705,-3.1705,-3.1705,-3.1705,-3.1913,-3.2033,-3.1705,-3.1913,-3.2413,-3.3237,-3.3522,-3.4027,-3.4596,-3.4678,-3.4979,-3.5575,-3.5709,-3.603,-3.6769,-3.6978,-3.6978,-3.6957,-3.6993,-3.7085,-3.7181,-3.7308,-3.7365,-3.7563,-3.7928,-3.7528,-3.6557,-3.761,-3.8649,-3.8644,-3.872,-3.8437,-3.701,-3.6649,-3.5941,-3.5066,-3.492,-3.4775,-3.4775,-3.4775,-3.4677,-3.4347,-3.4014,-3.363,-3.3331,-3.3281,-3.3281,-3.262,-3.2581,-3.2594,-3.2555,-3.2594,-3.2568,-3.2947,-3.3396,-3.3603,-3.4022,-3.4335,-3.3498,-3.3851,-3.516,-3.462,-3.5135,-3.647,-3.7161,-3.7774,-3.8256,-3.8886,-3.9031,-3.8797,-3.8612,-3.8427,-3.824,-3.824,-3.8202,-3.8089,-3.74,-3.6975,-3.6975,-3.6975,-3.6961,-3.6975,-3.6961,-3.6922,-3.6649,-3.6042,-3.5278,-3.4538,-3.4426,-3.4439,-3.4272,-3.3539,-3.3124,-3.3124,-3.3124,-3.3124,-3.3124,-3.3124,-3.3124,-3.3068,-3.3081,-3.2865,-3.2431,-3.2169,-3.1906,-3.1705,-3.1705,-3.1705,-3.1705,-3.1705,-3.1705,-3.1705,-3.1705,-3.1705,-3.1705,-3.2326,-3.2457,-3.2001,-3.2413,-3.3194,-3.4043,-3.4897,-3.5291,-3.5575,-3.54,-3.5629,-3.5749,-3.583,-3.6163,-3.69,-3.6978,-3.7021,-3.7147,-3.7515,-3.8024,-3.8476,-3.8458,-3.8589,-3.8908,-3.9023,-3.8783,-3.8017,-3.868,-3.9183,-3.9224,-3.9224,-3.8885,-3.7919,-3.6977,-3.6001,-3.515,-3.492,-3.4775,-3.4775,-3.4726,-3.4543,-3.431,-3.4026,-3.3691,-3.3381,-3.3331,-3.3281,-3.2672,-3.2672,-3.2672,-3.2672,-3.2672,-3.2672,-3.2883,-3.3066,-3.3105,-3.3248,-3.3403,-3.2997,-3.3389,-3.4289,-3.4067,-3.4335,-3.5025,-3.6624,-3.7144,-3.6923,-3.8332,-3.8922,-3.8627,-3.8516,-3.8389,-3.824,-3.8202,-3.7924,-3.7376,-3.7039,-3.661,-3.6148,-3.6068,-3.6068,-3.6068,-3.6068,-3.5856,-3.5345,-3.4991,-3.4413,-3.3696,-3.3569,-3.3569,-3.3569,-3.3283,-3.3124,-3.3124,-3.3124,-3.3124,-3.3124,-3.3124,-3.3025,-3.2853,-3.2736,-3.2519,-3.2169,-3.2038,-3.1893,-3.1705,-3.1705,-3.1705,-3.1705,-3.1705,-3.1705,-3.1705,-3.1705,-3.1705,-3.1793,-3.1969,-3.2164,-3.2575,-3.2821,-3.3365,-3.4098,-3.4152,-3.4622,-3.5278,-3.5183,-3.5224,-3.6189,-3.652,-3.6691,-3.6861,-3.6978,-3.7147,-3.7555,-3.8157,-3.8761,-3.9367,-3.9647,-3.9849,-4.0059,-4.0142,-3.9809,-3.8854,-3.9533,-4.0128,-4.0142,-3.9998,-3.9193,-3.8251,-3.7671,-3.6837,-3.5199,-3.4823,-3.4775,-3.4775,-3.4775,-3.4592,-3.4211,-3.3927,-3.3741,-3.3392,-3.3342,-3.3281,-3.3247,-3.3247,-3.3247,-3.3234,-3.3247,-3.3247,-3.3234,-3.3247,-3.3234,-3.3247,-3.3221,-3.3064,-3.3357,-3.3865,-3.3808,-3.3646,-3.3858,-3.5826,-3.6273,-3.5498,-3.7201,-3.7933,-3.7758,-3.7886,-3.7758,-3.7386,-3.7347,-3.7155,-3.6844,-3.6348,-3.5776,-3.5237,-3.5196,-3.5196,-3.5196,-3.521,-3.4924,-3.4468,-3.4147,-3.3654,-3.3167,-3.3124,-3.3124,-3.3124,-3.3124,-3.3124,-3.3124,-3.3124,-3.3124,-3.3081,-3.3025,-3.2853,-3.2636,-3.2388,-3.2213,-3.2038,-3.1937,-3.1849,-3.1705,-3.1705,-3.1705,-3.1705,-3.1705,-3.1705,-3.1705,-3.1705,-3.1825,-3.1989,-3.212,-3.2457,-3.3164,-3.3437,-3.3775,-3.4555,-3.443,-3.4609,-3.5534,-3.54,-3.5803,-3.6652,-3.694,-3.6978,-3.6978,-3.6978,-3.7274,-3.7821,-3.8508,-3.9127,-3.9704,-4.0294,-4.0702,-4.0702,-4.0659,-4.0372,-3.9678,-3.9853,-3.9853,-3.9853,-4.0199,-3.9428,-3.8612,-3.8128,-3.7163,-3.5523,-3.4775,-3.4775,-3.4775,-3.4775,-3.4543,-3.4211,-3.4026,-3.3889,-3.358,-3.3292,-3.3281,-3.4358,-3.4306,-3.4384,-3.428,-3.4254,-3.4241,-3.4332,-3.4267,-3.4293,-3.4214,-3.411,-3.3796,-3.3791,-3.4086,-3.3779,-3.3314,-3.3274,-3.4769,-3.5152,-3.4627,-3.5623,-3.6134,-3.6148,-3.6766,-3.6713,-3.6029,-3.5789,-3.6108,-3.657,-3.5345,-3.4551,-3.4439,-3.4397,-3.4384,-3.4397,-3.4384,-3.4397,-3.4147,-3.3569,-3.3167,-3.3124,-3.3124,-3.3124,-3.3124,-3.3124,-3.3124,-3.3124,-3.3124,-3.3124,-3.3081,-3.2853,-3.2649,-3.2431,-3.2169,-3.1994,-3.1937,-3.1849,-3.1717,-3.1705,-3.1705,-3.1705,-3.1705,-3.1705,-3.1705,-3.1705,-3.1705,-3.2001,-3.2544,-3.2791,-3.3194,-3.3972,-3.4168,-3.4472,-3.5534,-3.5856,-3.6163,-3.5964,-3.6455,-3.694,-3.6978,-3.6978,-3.6978,-3.6993,-3.7077,-3.7372,-3.7962,-3.858,-3.9254,-3.9831,-4.0393,-4.0659,-4.0702,-4.0516,-4.0185,-4.0041,-3.9897,-3.9475,-3.9241,-3.9736,-3.9618,-3.8702,-3.8024,-3.715,-3.5715,-3.4872,-3.4823,-3.4775,-3.4775,-3.4543,-3.4261,-3.4125,-3.3927,-3.358,-3.3281,-3.3281,-3.4397,-3.4397,-3.4397,-3.4397,-3.4397,-3.4397,-3.4397,-3.4397,-3.4397,-3.4397,-3.433,-3.4061,-3.4012,-3.4042,-3.3777,-3.3286,-3.2798,-3.3673,-3.3961,-3.4047,-3.5222,-3.5775,-3.5829,-3.6478,-3.678,-3.6531,-3.6478,-3.5976,-3.5237,-3.462,-3.4147,-3.3611,-3.3539,-3.3496,-3.3526,-3.3496,-3.3484,-3.3484,-3.324,-3.3124,-3.3124,-3.3124,-3.3124,-3.3124,-3.3124,-3.3124,-3.3124,-3.3124,-3.3124,-3.3124,-3.3025,-3.2822,-3.2431,-3.2038,-3.1805,-3.1793,-3.1749,-3.1705,-3.1705,-3.1705,-3.1705,-3.1705,-3.1705,-3.1705,-3.1705,-3.1705,-3.1825,-3.212,-3.212,-3.2661,-3.393,-3.4293,-3.4472,-3.4733,-3.5521,-3.6123,-3.595,-3.648,-3.69,-3.6978,-3.6978,-3.6978,-3.7077,-3.7259,-3.7807,-3.8426,-3.9099,-3.9676,-4.0266,-4.0533,-4.0688,-4.0702,-4.0286,-3.9897,-3.9897,-3.959,-3.9091,-3.8885,-3.9224,-3.9193,-3.8419,-3.775,-3.6871,-3.6036,-3.5247,-3.4872,-3.4823,-3.4726,-3.4543,-3.431,-3.4125,-3.3779,-3.3431,-3.3281,-3.3281,-3.4397,-3.4397,-3.4397,-3.4397,-3.4397,-3.4397,-3.4397,-3.4397,-3.4397,-3.4397,-3.4356,-3.4189,-3.4021,-3.3894,-3.3683,-3.328,-3.2845,-3.3174,-3.3293,-3.3472,-3.4273,-3.4774,-3.4705,-3.5196,-3.5883,-3.6201,-3.5762,-3.5128,-3.4439,-3.4076,-3.3654,-3.3167,-3.3124,-3.3124,-3.3124,-3.3124,-3.3124,-3.3124,-3.3124,-3.3124,-3.3124,-3.3124,-3.3124,-3.3124,-3.3124,-3.3124,-3.3124,-3.3124,-3.3124,-3.3081,-3.2952,-3.2605,-3.2157,-3.1837,-3.1705,-3.1705,-3.1705,-3.1705,-3.1705,-3.1705,-3.1705,-3.1705,-3.1705,-3.1705,-3.1705,-3.1705,-3.1793,-3.212,-3.1913,-3.2401,-3.393,-3.4293,-3.443,-3.4815,-3.5682,-3.6149,-3.6296,-3.6665,-3.694,-3.6978,-3.6978,-3.6978,-3.7105,-3.7526,-3.8131,-3.8818,-3.9436,-4.0013,-4.0491,-4.0688,-4.0702,-4.0473,-3.9911,-3.9722,-3.9766,-3.9312,-3.8689,-3.8585,-3.872,-3.8315,-3.7678,-3.7243,-3.6555,-3.5763,-3.4969,-3.4823,-3.4775,-3.4775,-3.4689,-3.4408,-3.4075,-3.3779,-3.3492,-3.3331,-3.3281,-3.4397,-3.4397,-3.4397,-3.4397,-3.4397,-3.4397,-3.4397,-3.4397,-3.4397,-3.4397,-3.4356,-3.416,-3.3937,-3.3725,-3.3471,-3.3245,-3.3111,-3.3086,-3.3154,-3.3147,-3.3356,-3.3428,-3.3641,-3.3768,-3.4441,-3.5156,-3.4204,-3.3768,-3.4105,-3.3526,-3.3124,-3.3124,-3.3124,-3.3124,-3.3124,-3.3124,-3.3124,-3.3124,-3.3124,-3.3124,-3.3124,-3.3124,-3.3124,-3.3124,-3.3124,-3.3124,-3.3124,-3.3124,-3.3124,-3.3038,-3.2692,-3.23,-3.1893,-3.1749,-3.1705,-3.1705,-3.1705,-3.1705,-3.1705,-3.1705,-3.1705,-3.1705,-3.1705,-3.1705,-3.1705,-3.1705,-3.1957,-3.2488,-3.2077,-3.237,-3.372,-3.4139,-3.4568,-3.5575,-3.6322,-3.6822,-3.694,-3.6993,-3.6978,-3.6978,-3.6978,-3.6978,-3.7035,-3.7569,-3.8243,-3.8832,-3.9507,-4.0154,-4.0505,-4.0702,-4.0702,-4.0329,-3.9809,-3.9867,-3.9954,-3.8868,-3.8251,-3.8192,-3.8134,-3.7632,-3.7276,-3.6917,-3.6508,-3.5667,-3.492,-3.4823,-3.4726,-3.4677,-3.4494,-3.4162,-3.3927,-3.379,-3.3592,-3.3392,-3.3281,-3.4397,-3.4397,-3.4397,-3.4397,-3.4397,-3.4397,-3.4397,-3.4397,-3.4397,-3.4397,-3.4314,-3.3979,-3.3768,-3.367,-3.3313,-3.3154,-3.3124,-3.3124,-3.3124,-3.3124,-3.3124,-3.3526,-3.3949,-3.4034,-3.4217,-3.4579,-3.4189,-3.3852,-3.3454,-3.324,-3.3124,-3.3124,-3.3124,-3.3124,-3.3124,-3.3124,-3.3124,-3.3124,-3.3124,-3.3124,-3.3124,-3.3124,-3.3124,-3.3124,-3.3124,-3.3124,-3.3124,-3.3124,-3.3124,-3.3081,-3.2649,-3.2344,-3.2169,-3.1893,-3.1705,-3.1705,-3.1705,-3.1705,-3.1705,-3.1705,-3.1705,-3.1705,-3.1705,-3.1705,-3.1705,-3.1705,-3.1825,-3.2001,-3.1793,-3.212,-3.3109,-3.3395,-3.4111,-3.5507,-3.6322,-3.6861,-3.6978,-3.6978,-3.6978,-3.6978,-3.6978,-3.6993,-3.7231,-3.7932,-3.8663,-3.9057,-3.9718,-4.0449,-4.0645,-4.0702,-4.0702,-4.0372,-4.0041,-4.0142,-3.9837,-3.8657,-3.7933,-3.7795,-3.7553,-3.7103,-3.6871,-3.6777,-3.6461,-3.6001,-3.5054,-3.4726,-3.458,-3.4482,-3.42,-3.3927,-3.3828,-3.3679,-3.3481,-3.3281,-3.3281,-3.4397,-3.4397,-3.4397,-3.4397,-3.4397,-3.4397,-3.4397,-3.4397,-3.4397,-3.4356,-3.4189,-3.3882,-3.3628,-3.3526,-3.324,-3.3124,-3.3124,-3.3124,-3.3124,-3.3124,-3.3124,-3.3368,-3.3738,-3.3865,-3.3865,-3.3852,-3.3865,-3.3569,-3.321,-3.3124,-3.3124,-3.3124,-3.3124,-3.3124,-3.3124,-3.3124,-3.3124,-3.3124,-3.3124,-3.3124,-3.3124,-3.3124,-3.3124,-3.3124,-3.3124,-3.3124,-3.3124,-3.2995,-3.2909,-3.2779,-3.2519,-3.23,-3.2125,-3.1837,-3.1705,-3.1705,-3.1705,-3.1705,-3.1705,-3.1705,-3.1705,-3.1705,-3.1705,-3.1705,-3.1705,-3.1705,-3.1705,-3.1705,-3.1705,-3.2176,-3.2877,-3.3322,-3.4027,-3.491,-3.5561,-3.6189,-3.6861,-3.6978,-3.6978,-3.6978,-3.6993,-3.7119,-3.733,-3.8271,-3.8902,-3.938,-4.0069,-4.0491,-4.0702,-4.0702,-4.0502,-4.0085,-3.9458,-3.9251,-3.893,-3.7912,-3.7171,-3.7078,-3.6684,-3.6273,-3.6225,-3.6273,-3.5953,-3.5523,-3.4957,-3.458,-3.4433,-3.4286,-3.4113,-3.3878,-3.3779,-3.358,-3.3381,-3.3281,-3.3281,-3.4343,-3.4356,-3.4314,-3.4356,-3.4356,-3.4314,-3.4272,-3.4314,-3.4272,-3.4189,-3.4021,-3.3768,-3.3556,-3.3398,-3.3197,-3.3124,-3.3124,-3.3124,-3.3124,-3.3124,-3.3124,-3.321,-3.3253,-3.3283,-3.3253,-3.324,-3.3124,-3.3167,-3.3124,-3.3124,-3.3124,-3.3124,-3.3124,-3.3124,-3.3124,-3.3124,-3.3124,-3.3124,-3.3124,-3.3124,-3.3124,-3.3124,-3.3124,-3.3124,-3.3124,-3.3081,-3.2995,-3.281,-3.2636,-3.2344,-3.2344,-3.2169,-3.1793,-3.1761,-3.1705,-3.1705,-3.1705,-3.1705,-3.1705,-3.1705,-3.1705,-3.1705,-3.1705,-3.1705,-3.1705,-3.1705,-3.1705,-3.1705,-3.1705,-3.2045,-3.2618,-3.3479,-3.3859,-3.4111,-3.4223,-3.502,-3.6229,-3.6769,-3.6886,-3.6978,-3.6978,-3.7274,-3.7835,-3.8468,-3.9127,-3.9521,-4.0196,-4.0561,-4.0559,-4.0315,-3.9998,-3.9533,-3.8823,-3.7991,-3.7606,-3.7068,-3.6561,-3.6128,-3.5655,-3.5295,-3.5283,-3.5247,-3.5017,-3.4738,-3.458,-3.4433,-3.4249,-3.4101,-3.3927,-3.3779,-3.358,-3.3481,-3.3392,-3.3342,-3.3281,-3.3979,-3.416,-3.3937,-3.3979,-3.4118,-3.3937,-3.3839,-3.3839,-3.3839,-3.3852,-3.3725,-3.3556,-3.3428,-3.3356,-3.321,-3.3124,-3.3124,-3.3124,-3.3124,-3.3124,-3.3124,-3.3124,-3.3124,-3.3124,-3.3124,-3.3124,-3.3124,-3.3124,-3.3124,-3.3124,-3.3124,-3.3124,-3.3124,-3.3124,-3.3124,-3.3124,-3.3124,-3.3124,-3.3124,-3.3124,-3.3124,-3.3124,-3.3081,-3.3081,-3.3081,-3.2995,-3.2797,-3.2723,-3.2506,-3.2213,-3.2081,-3.2025,-3.1893,-3.1761,-3.1705,-3.1705,-3.1705,-3.1705,-3.1705,-3.1705,-3.1705,-3.1705,-3.1705,-3.1705,-3.1705,-3.1705,-3.1705,-3.1705,-3.1705,-3.1825,-3.2077,-3.2164,-3.2661,-3.3109,-3.3322,-3.3691,-3.4733,-3.5575,-3.6203,-3.6691,-3.6915,-3.7217,-3.7835,-3.8482,-3.91,-3.9704,-4.0153,-4.0617,-4.0329,-3.9867,-3.9312,-3.8675,-3.8134,-3.7394,-3.6845,-3.6407,-3.5961,-3.5582,-3.5138,-3.4726,-3.4726,-3.4726,-3.4689,-3.458,-3.4433,-3.4237,-3.4052,-3.3866,-3.3679,-3.353,-3.3381,-3.3392,-3.3342,-3.3281,-3.3281,-3.3797,-3.3894,-3.3755,-3.3768,-3.3865,-3.3768,-3.3713,-3.3713,-3.3713,-3.3641,-3.3556,-3.3428,-3.3356,-3.327,-3.3154,-3.3124,-3.3124,-3.3124,-3.3124,-3.3124,-3.3124,-3.3124,-3.3124,-3.3124,-3.3124,-3.3124,-3.3124,-3.3124,-3.3124,-3.3124,-3.3124,-3.3124,-3.3124,-3.3124,-3.3124,-3.3124,-3.3124,-3.3124,-3.3124,-3.3124,-3.3124,-3.3124,-3.3038,-3.2939,-3.2896,-3.281,-3.2605,-3.2419,-3.2245,-3.2025,-3.1893,-3.1849,-3.1849,-3.1749,-3.1705,-3.1705,-3.1705,-3.1705,-3.1705,-3.1705,-3.1705,-3.1705,-3.1705,-3.1705,-3.1705,-3.1705,-3.1705,-3.1705,-3.1705,-3.1705,-3.1705,-3.1705,-3.2033,-3.2196,-3.2413,-3.2778,-3.3606,-3.4485,-3.5156,-3.5722,-3.603,-3.6766,-3.7495,-3.8241,-3.888,-3.936,-3.9438,-3.9766,-3.9073,-3.8612,-3.8192,-3.7691,-3.7322,-3.6824,-3.626,-3.5761,-3.5378,-3.5126,-3.4957,-3.4677,-3.458,-3.458,-3.4592,-3.4433,-3.4237,-3.4003,-3.3817,-3.363,-3.353,-3.3431,-3.3331,-3.3281,-3.3281,-3.3281,-3.3281,-3.3628,-3.3628,-3.3628,-3.3628,-3.3628,-3.3628,-3.3586,-3.3598,-3.3598,-3.3471,-3.3398,-3.3368,-3.324,-3.3124,-3.3124,-3.3124,-3.3124,-3.3124,-3.3124,-3.3124,-3.3124,-3.3124,-3.3124,-3.3124,-3.3124,-3.3124,-3.3124,-3.3124,-3.3124,-3.3124,-3.3124,-3.3124,-3.3124,-3.3124,-3.3124,-3.3124,-3.3124,-3.3124,-3.3124,-3.3124,-3.3124,-3.3124,-3.2995,-3.2766,-3.268,-3.2562,-3.2344,-3.2169,-3.1994,-3.195,-3.1805,-3.1705,-3.1705,-3.1705,-3.1705,-3.1705,-3.1705,-3.1705,-3.1705,-3.1705,-3.1705,-3.1705,-3.1705,-3.1705,-3.1705,-3.1705,-3.1705,-3.1705,-3.1705,-3.1705,-3.1705,-3.1705,-3.1705,-3.1793,-3.1749,-3.2033,-3.2717,-3.353,-3.4027,-3.4581,-3.5301,-3.6141,-3.697,-3.7736,-3.8388,-3.8898,-3.8942,-3.8751,-3.8056,-3.7533,-3.7196,-3.6777,-3.6449,-3.6131,-3.5607,-3.5463,-3.503,-3.4896,-3.4775,-3.4628,-3.4482,-3.4396,-3.4347,-3.42,-3.4003,-3.3767,-3.363,-3.3481,-3.3381,-3.3281,-3.3281,-3.3281,-3.3281,-3.3281,-3.3281,-3.3313,-3.3428,-3.327,-3.327,-3.3398,-3.3283,-3.324,-3.3197,-3.324,-3.3197,-3.3154,-3.3154,-3.3154,-3.3124,-3.3124,-3.3124,-3.3124,-3.3124,-3.3124,-3.3124,-3.3124,-3.3124,-3.3124,-3.3124,-3.3124,-3.3124,-3.3124,-3.3124,-3.3124,-3.3124,-3.3124,-3.3124,-3.3124,-3.3124,-3.3124,-3.3124,-3.3124,-3.3124,-3.3124,-3.3124,-3.3124,-3.3068,-3.2939,-3.2667,-3.2506,-3.23,-3.2125,-3.2038,-3.195,-3.1761,-3.1717,-3.1705,-3.1705,-3.1705,-3.1705,-3.1705,-3.1705,-3.1705,-3.1705,-3.1705,-3.1705,-3.1705,-3.1705,-3.1705,-3.1705,-3.1705,-3.1705,-3.1705,-3.1705,-3.1705,-3.1705,-3.1705,-3.1705,-3.1705,-3.1765,-3.1854,-3.2135,-3.2676,-3.3402,-3.4067,-3.478,-3.547,-3.633,-3.7073,-3.759,-3.792,-3.7964,-3.7802,-3.7322,-3.6837,-3.6461,-3.6036,-3.5619,-3.5283,-3.4908,-3.4957,-3.486,-3.486,-3.4726,-3.458,-3.4433,-3.4249,-3.4113,-3.3915,-3.3767,-3.363,-3.3481,-3.3331,-3.3331,-3.3281,-3.3281,-3.3281,-3.3281,-3.3281,-3.3281,-3.3154,-3.324,-3.3124,-3.3167,-3.324,-3.3154,-3.3124,-3.3124,-3.3124,-3.3124,-3.3124,-3.3124,-3.3124,-3.3124,-3.3124,-3.3124,-3.3124,-3.3124,-3.3124,-3.3124,-3.3124,-3.3124,-3.3124,-3.3124,-3.3124,-3.3124,-3.3124,-3.3124,-3.3124,-3.3124,-3.3124,-3.3124,-3.3124,-3.3124,-3.3124,-3.3124,-3.3124,-3.3124,-3.3124,-3.3124,-3.3081,-3.2982,-3.2766,-3.2562,-3.23,-3.2081,-3.1893,-3.1849,-3.1805,-3.1717,-3.1705,-3.1705,-3.1705,-3.1705,-3.1705,-3.1705,-3.1705,-3.1705,-3.1705,-3.1705,-3.1705,-3.1705,-3.1705,-3.1705,-3.1705,-3.1705,-3.1705,-3.1705,-3.1705,-3.1705,-3.1705,-3.1729,-3.1705,-3.1765,-3.1946,-3.207,-3.2202,-3.2611,-3.3208,-3.3847,-3.4458,-3.5117,-3.575,-3.6361,-3.6787,-3.6946,-3.7006,-3.6777,-3.6496,-3.6131,-3.5715,-3.5523,-3.515,-3.5054,-3.4775,-3.4775,-3.4726,-3.4726,-3.4628,-3.4482,-3.4298,-3.4064,-3.3828,-3.358,-3.3481,-3.3492,-3.3392,-3.3281,-3.3281,-3.3281,-3.3281,-3.3281,-3.3281,-3.3281,-3.3281,-3.3124,-3.3124,-3.3124,-3.3124,-3.3124,-3.3124,-3.3124,-3.3124,-3.3124,-3.3124,-3.3124,-3.3124,-3.3124,-3.3124,-3.3124,-3.3124,-3.3124,-3.3124,-3.3124,-3.3124,-3.3124,-3.3124,-3.3124,-3.3124,-3.3124,-3.3124,-3.3124,-3.3124,-3.3124,-3.3124,-3.3124,-3.3124,-3.3124,-3.3124,-3.3124,-3.3124,-3.3124,-3.3124,-3.3124,-3.3068,-3.2982,-3.2723,-3.2506,-3.2344,-3.2081,-3.1849,-3.1749,-3.1705,-3.1761,-3.1705,-3.1705,-3.1705,-3.1705,-3.1705,-3.1705,-3.1705,-3.1705,-3.1705,-3.1705,-3.1705,-3.1705,-3.1705,-3.1705,-3.1705,-3.1705,-3.1705,-3.1705,-3.1705,-3.1705,-3.1705,-3.1729,-3.1837,-3.1898,-3.203,-3.2334,-3.2695,-3.2791,-3.3056,-3.3356,-3.39,-3.4253,-3.4677,-3.5194,-3.5519,-3.5925,-3.594,-3.5988,-3.5893,-3.5619,-3.5379,-3.5102,-3.5005,-3.486,-3.486,-3.4775,-3.4775,-3.4738,-3.4604,-3.4494,-3.4384,-3.4101,-3.3878,-3.363,-3.3431,-3.3331,-3.3342,-3.3292,-3.3281,-3.3281,-3.3281,-3.3281,-3.3281,-3.3281,-3.3181,-3.3119,-3.3124,-3.3124,-3.3124,-3.3124,-3.3124,-3.3124,-3.3124,-3.3124,-3.3124,-3.3124,-3.3124,-3.3124,-3.3124,-3.3124,-3.3124,-3.3124,-3.3124,-3.3124,-3.3124,-3.3124,-3.3124,-3.3124,-3.3124,-3.3124,-3.3124,-3.3124,-3.3124,-3.3124,-3.3124,-3.3124,-3.3124,-3.3124,-3.3124,-3.3124,-3.3124,-3.3124,-3.3124,-3.3124,-3.3124,-3.2995,-3.2723,-3.2332,-3.2113,-3.2038,-3.1893,-3.1761,-3.1705,-3.1705,-3.1705,-3.1705,-3.1705,-3.1705,-3.1705,-3.1705,-3.1705,-3.1705,-3.1705,-3.1705,-3.1705,-3.1705,-3.1705,-3.1705,-3.1705,-3.1705,-3.1705,-3.1717,-3.1717,-3.1705,-3.1741,-3.1849,-3.1982,-3.2211,-3.2334,-3.2575,-3.2863,-3.3128,-3.3284,-3.3633,-3.3909,-3.403,-3.4492,-3.4373,-3.4542,-3.4763,-3.5005,-3.4981,-3.4957,-3.492,-3.4872,-3.4823,-3.4775,-3.4775,-3.4677,-3.4677,-3.4628,-3.4677,-3.4592,-3.4469,-3.431,-3.42,-3.3965,-3.3729,-3.358,-3.3381,-3.3331,-3.3281,-3.3281,-3.3281,-3.3281,-3.3281,-3.3281,-3.3281,-3.3281,-3.3131,-3.2757,-3.3124,-3.3124,-3.3124,-3.3124,-3.3124,-3.3124,-3.3124,-3.3124,-3.3124,-3.3124,-3.3124,-3.3124,-3.3124,-3.3124,-3.3124,-3.3124,-3.3124,-3.3124,-3.3124,-3.3124,-3.3124,-3.3124,-3.3124,-3.3124,-3.3124,-3.3124,-3.3124,-3.3124,-3.3124,-3.3124,-3.3124,-3.3124,-3.3124,-3.3124,-3.3124,-3.3124,-3.3124,-3.3081,-3.2939,-3.2779,-3.2519,-3.2213,-3.2006,-3.2006,-3.1805,-3.1717,-3.1705,-3.1705,-3.1705,-3.1705,-3.1705,-3.1705,-3.1705,-3.1705,-3.1705,-3.1705,-3.1705,-3.1705,-3.1705,-3.1705,-3.1705,-3.1705,-3.1705,-3.1705,-3.1705,-3.1741,-3.1898,-3.2175,-3.2142,-3.225,-3.2478,-3.2791,-3.2887,-3.3092,-3.3416,-3.3597,-3.3825,-3.4222,-3.4511,-3.4595,-3.4631,-3.4462,-3.439,-3.4607,-3.4896,-3.4896,-3.486,-3.4872,-3.4823,-3.4823,-3.4775,-3.4775,-3.4677,-3.4531,-3.4494,-3.4445,-3.4359,-3.4223,-3.4026,-3.3927,-3.3779,-3.358,-3.3431,-3.3381,-3.3331,-3.3281,-3.3281,-3.3281,-3.3281,-3.3281,-3.3281,-3.3019,-3.2745,-3.2218,-3.179,-3.3124,-3.3124,-3.3124,-3.3124,-3.3124,-3.3124,-3.3124,-3.3124,-3.3124,-3.3124,-3.3124,-3.3124,-3.3124,-3.3124,-3.3124,-3.3124,-3.3124,-3.3124,-3.3124,-3.3124,-3.3124,-3.3124,-3.3124,-3.3124,-3.3124,-3.3124,-3.3124,-3.3124,-3.3124,-3.3124,-3.3124,-3.3124,-3.3124,-3.3124,-3.3124,-3.3081,-3.3081,-3.2939,-3.2636,-3.2419,-3.2257,-3.2081,-3.195,-3.1893,-3.1805,-3.1705,-3.1705,-3.1705,-3.1705,-3.1705,-3.1705,-3.1705,-3.1705,-3.1705,-3.1705,-3.1705,-3.1705,-3.1705,-3.1705,-3.1705,-3.1705,-3.1705,-3.1717,-3.1773,-3.1946,-3.1926,-3.2123,-3.2641,-3.2671,-3.2899,-3.3188,-3.3344,-3.3464,-3.3633,-3.3921,-3.4054,-3.4222,-3.4486,-3.4655,-3.4667,-3.4691,-3.4715,-3.4679,-3.4715,-3.4811,-3.4823,-3.4775,-3.4775,-3.4775,-3.4726,-3.4677,-3.4628,-3.4494,-3.4347,-3.4298,-3.4211,-3.4125,-3.3988,-3.379,-3.3679,-3.358,-3.3481,-3.3331,-3.3281,-3.3281,-3.3281,-3.3281,-3.3281,-3.3281,-3.3181,-3.3019,-3.2432,-3.1953,-3.137,-3.068,-3.3124,-3.3124,-3.3124,-3.3124,-3.3124,-3.3124,-3.3124,-3.3124,-3.3124,-3.3124,-3.3124,-3.3124,-3.3124,-3.3124,-3.3124,-3.3124,-3.3124,-3.3124,-3.3124,-3.3124,-3.3124,-3.3124,-3.3124,-3.3124,-3.3124,-3.3124,-3.3124,-3.3124,-3.3081,-3.3038,-3.3081,-3.3124,-3.3038,-3.3081,-3.3038,-3.2995,-3.2865,-3.268,-3.2332,-3.2113,-3.2038,-3.1849,-3.1761,-3.1761,-3.1705,-3.1705,-3.1705,-3.1705,-3.1705,-3.1705,-3.1705,-3.1705,-3.1705,-3.1705,-3.1717,-3.1837,-3.1849,-3.1886,-3.1946,-3.1898,-3.1777,-3.1741,-3.1825,-3.2071,-3.237,-3.2433,-3.2723,-3.3153,-3.322,-3.3296,-3.3501,-3.3669,-3.391,-3.4054,-3.4306,-3.4414,-3.4522,-3.4595,-3.4739,-3.4763,-3.4775,-3.4775,-3.4775,-3.4775,-3.4775,-3.4775,-3.4775,-3.4775,-3.4677,-3.4628,-3.4482,-3.4384,-3.4261,-3.4113,-3.4113,-3.4026,-3.3878,-3.3779,-3.3641,-3.3481,-3.3381,-3.3331,-3.3281,-3.3281,-3.3281,-3.3281,-3.3231,-3.3008,-3.2857,-3.2908,-3.2594,-3.1586,-3.0587,-2.9797,-2.9167,-3.3124,-3.3124,-3.3124,-3.3124,-3.3124,-3.3124,-3.3124,-3.3124,-3.3124,-3.3124,-3.3124,-3.3124,-3.3124,-3.3124,-3.3124,-3.3124,-3.3124,-3.3124,-3.3124,-3.3124,-3.3124,-3.3124,-3.3124,-3.3124,-3.3124,-3.3124,-3.3124,-3.3124,-3.3124,-3.2952,-3.2853,-3.2853,-3.281,-3.2779,-3.2736,-3.2692,-3.2519,-3.2344,-3.2113,-3.1937,-3.1805,-3.1761,-3.1705,-3.1705,-3.1705,-3.1705,-3.1705,-3.1705,-3.1705,-3.1705,-3.1705,-3.1729,-3.1765,-3.1765,-3.1922,-3.2118,-3.2166,-3.2298,-3.2454,-3.2382,-3.2322,-3.2635,-3.2729,-3.2759,-3.2925,-3.2965,-3.3232,-3.351,-3.3739,-3.3813,-3.4246,-3.4354,-3.4498,-3.4534,-3.4595,-3.4727,-3.4775,-3.4775,-3.4775,-3.4775,-3.4775,-3.4775,-3.4775,-3.4775,-3.4775,-3.4775,-3.4775,-3.4726,-3.458,-3.4445,-3.4298,-3.415,-3.3965,-3.3878,-3.3878,-3.3729,-3.358,-3.353,-3.3492,-3.3381,-3.3331,-3.3281,-3.3281,-3.3281,-3.3231,-3.3131,-3.2908,-3.2533,-3.237,-3.2319,-3.1483,-3.0328,-2.9282,-2.8286,-2.7868,-3.3124,-3.3124,-3.3124,-3.3124,-3.3124,-3.3124,-3.3124,-3.3124,-3.3124,-3.3124,-3.3124,-3.3124,-3.3124,-3.3124,-3.3124,-3.3124,-3.3124,-3.3124,-3.3124,-3.3124,-3.3124,-3.3124,-3.3124,-3.3124,-3.3124,-3.3068,-3.2995,-3.2995,-3.2952,-3.2723,-3.2593,-3.2506,-3.2494,-3.2431,-3.2431,-3.23,-3.2169,-3.2038,-3.1893,-3.1849,-3.1705,-3.1705,-3.1705,-3.1705,-3.1705,-3.1705,-3.1705,-3.1705,-3.1705,-3.1705,-3.1729,-3.1813,-3.1898,-3.2042,-3.2226,-3.2527,-3.2767,-3.2935,-3.3056,-3.3044,-3.2911,-3.3092,-3.3176,-3.3291,-3.3455,-3.3508,-3.3716,-3.4125,-3.4246,-3.4378,-3.4775,-3.4715,-3.4691,-3.4667,-3.4679,-3.4775,-3.4775,-3.4775,-3.4775,-3.4775,-3.4775,-3.4677,-3.4726,-3.4726,-3.4677,-3.4628,-3.4494,-3.4494,-3.4482,-3.4298,-3.4064,-3.3915,-3.3717,-3.363,-3.358,-3.353,-3.3431,-3.3431,-3.3392,-3.3342,-3.3281,-3.3231,-3.3231,-3.3231,-3.3131,-3.2919,-3.2218,-3.137,-3.137,-3.1586,-3.0432,-2.9124,-2.8252,-2.7359,-2.7152,-3.3081,-3.3124,-3.3124,-3.3124,-3.3124,-3.3124,-3.3124,-3.3124,-3.3124,-3.3124,-3.3124,-3.3124,-3.3124,-3.3124,-3.3124,-3.3124,-3.3124,-3.3124,-3.3124,-3.3124,-3.3124,-3.3124,-3.3081,-3.3081,-3.3038,-3.3038,-3.2853,-3.2723,-3.2723,-3.2519,-3.23,-3.2113,-3.2125,-3.2169,-3.2344,-3.2125,-3.2038,-3.1981,-3.1793,-3.1749,-3.1705,-3.1705,-3.1705,-3.1705,-3.1705,-3.1705,-3.1705,-3.1849,-3.1886,-3.1874,-3.1982,-3.2175,-3.243,-3.2466,-3.2743,-3.32,-3.326,-3.3308,-3.3332,-3.3308,-3.3416,-3.3513,-3.3657,-3.369,-3.3926,-3.405,-3.4174,-3.4523,-3.4667,-3.4679,-3.4775,-3.4775,-3.4775,-3.4775,-3.4775,-3.4775,-3.4775,-3.4775,-3.4775,-3.4677,-3.458,-3.4482,-3.458,-3.4628,-3.458,-3.4494,-3.431,-3.4211,-3.4249,-3.4101,-3.3866,-3.3679,-3.3519,-3.3481,-3.3431,-3.3381,-3.3331,-3.3281,-3.3231,-3.3181,-3.3019,-3.2857,-3.2908,-3.3019,-3.2443,-3.1699,-3.0805,-2.9901,-2.9964,-2.9859,-2.9071,-2.7975,-2.7152,-2.6691,-2.6636,-3.2481,-3.3068,-3.3124,-3.3124,-3.3124,-3.3124,-3.3124,-3.3124,-3.3124,-3.3124,-3.3124,-3.3124,-3.3124,-3.3124,-3.3124,-3.3124,-3.3124,-3.3124,-3.3124,-3.3124,-3.3124,-3.3124,-3.3081,-3.2939,-3.2853,-3.2766,-3.2636,-3.2519,-3.2487,-3.2269,-3.2125,-3.1994,-3.1893,-3.1849,-3.1893,-3.1837,-3.1805,-3.1793,-3.1705,-3.1705,-3.1705,-3.1705,-3.1717,-3.1729,-3.1753,-3.1777,-3.1849,-3.2102,-3.2214,-3.2307,-3.2406,-3.2755,-3.2984,-3.302,-3.326,-3.3657,-3.3801,-3.3982,-3.4186,-3.433,-3.427,-3.4234,-3.4222,-3.427,-3.4498,-3.4523,-3.4679,-3.4763,-3.4763,-3.4775,-3.4775,-3.4775,-3.4775,-3.4775,-3.4775,-3.4775,-3.4775,-3.4775,-3.4787,-3.458,-3.4433,-3.4298,-3.4249,-3.4249,-3.4249,-3.4211,-3.4075,-3.3977,-3.3965,-3.3866,-3.3717,-3.3519,-3.3369,-3.3331,-3.3281,-3.3281,-3.3131,-3.3019,-3.2958,-3.2908,-3.2695,-3.2331,-3.1863,-3.1545,-3.1021,-3.038,-2.965,-2.8923,-2.8349,-2.7931,-2.7618,-2.7413,-2.6899,-2.6636,-2.6636,-3.1669,-3.2568,-3.2581,-3.281,-3.3081,-3.3124,-3.3124,-3.3124,-3.3124,-3.3124,-3.3124,-3.3124,-3.3124,-3.3124,-3.3124,-3.3124,-3.3124,-3.3124,-3.3124,-3.3124,-3.3124,-3.3124,-3.3038,-3.2896,-3.2853,-3.268,-3.2506,-3.2388,-3.2257,-3.2025,-3.1893,-3.1849,-3.1749,-3.1749,-3.1749,-3.1705,-3.1705,-3.1705,-3.1705,-3.1705,-3.1705,-3.1741,-3.1837,-3.1925,-3.201,-3.2102,-3.2319,-3.2527,-3.2791,-3.2899,-3.3092,-3.3404,-3.3477,-3.3597,-3.3813,-3.4102,-3.4306,-3.445,-3.4631,-3.4751,-3.4643,-3.4667,-3.4775,-3.4775,-3.4775,-3.4715,-3.4715,-3.4763,-3.4775,-3.4775,-3.4775,-3.4775,-3.4775,-3.4775,-3.4775,-3.4775,-3.4628,-3.4628,-3.4543,-3.4384,-3.415,-3.4064,-3.3915,-3.3866,-3.3817,-3.3828,-3.3779,-3.3729,-3.3679,-3.363,-3.3519,-3.3369,-3.3269,-3.3231,-3.3231,-3.3281,-3.3069,-3.2745,-3.2695,-3.2633,-3.1852,-3.1381,-3.0701,-3.0078,-2.9702,-2.923,-2.8668,-2.8048,-2.7574,-2.7206,-2.6944,-2.6736,-2.6591,-2.6591,-2.6591,-3.0711,-3.1492,-3.1581,-3.2164,-3.2939,-3.3025,-3.3124,-3.3124,-3.3124,-3.3124,-3.3124,-3.3124,-3.3124,-3.3124,-3.3124,-3.3124,-3.3124,-3.3124,-3.3124,-3.3081,-3.3038,-3.3081,-3.3025,-3.2939,-3.268,-3.2593,-3.2419,-3.2113,-3.1981,-3.1849,-3.1749,-3.1749,-3.1705,-3.1789,-3.1825,-3.1874,-3.1874,-3.1898,-3.1898,-3.1982,-3.2078,-3.1994,-3.2202,-3.2394,-3.2527,-3.2707,-3.2947,-3.3212,-3.3296,-3.3356,-3.3416,-3.3693,-3.3897,-3.4006,-3.4342,-3.4583,-3.4715,-3.4739,-3.4751,-3.4775,-3.4775,-3.4775,-3.4775,-3.4775,-3.4775,-3.4775,-3.4775,-3.4775,-3.4775,-3.4775,-3.4775,-3.4775,-3.4775,-3.4775,-3.4726,-3.4628,-3.4433,-3.4347,-3.4298,-3.4113,-3.3866,-3.3679,-3.358,-3.3492,-3.358,-3.353,-3.353,-3.358,-3.353,-3.3431,-3.3381,-3.3319,-3.322,-3.3181,-3.3181,-3.3069,-3.2695,-3.2218,-3.2432,-3.2319,-3.1432,-3.0338,-2.9713,-2.9081,-2.8605,-2.8135,-2.7682,-2.7269,-2.6899,-2.6591,-2.6591,-2.6591,-2.6591,-2.6591,-2.6591,-2.9715,-3.0666,-3.1315,-3.1769,-3.212,-3.2797,-3.3124,-3.3124,-3.3124,-3.3124,-3.3124,-3.3124,-3.3124,-3.3124,-3.3124,-3.3124,-3.3124,-3.3124,-3.3124,-3.3081,-3.2952,-3.2853,-3.2723,-3.255,-3.2332,-3.2201,-3.2025,-3.1937,-3.1805,-3.1705,-3.1705,-3.1705,-3.1777,-3.1901,-3.2118,-3.2262,-3.2274,-3.2274,-3.2286,-3.2418,-3.2668,-3.2683,-3.2887,-3.2996,-3.3056,-3.3236,-3.3392,-3.3705,-3.3789,-3.3837,-3.4186,-3.4499,-3.4498,-3.4546,-3.4691,-3.4715,-3.4763,-3.4763,-3.4775,-3.4775,-3.4775,-3.4775,-3.4775,-3.4775,-3.4775,-3.4775,-3.4775,-3.4775,-3.4775,-3.4775,-3.4775,-3.4775,-3.4677,-3.4628,-3.458,-3.4396,-3.4249,-3.415,-3.4064,-3.3817,-3.358,-3.3481,-3.3342,-3.3342,-3.3431,-3.3331,-3.3331,-3.3381,-3.3381,-3.3331,-3.3331,-3.3231,-3.3069,-3.2969,-3.2807,-3.2695,-3.2167,-3.179,-3.1852,-3.1381,-2.9807,-2.887,-2.8509,-2.8145,-2.7672,-2.726,-2.6845,-2.6591,-2.6591,-2.6591,-2.6591,-2.6591,-2.6591,-2.6591,-2.6591,-2.883,-2.9669,-3.0621,-3.1448,-3.2264,-3.284,-3.3124,-3.3124,-3.3124,-3.3124,-3.3124,-3.3124,-3.3124,-3.3124,-3.3124,-3.3124,-3.3124,-3.3124,-3.3068,-3.2865,-3.2779,-3.268,-3.2463,-3.23,-3.2169,-3.1994,-3.1893,-3.1849,-3.1761,-3.1717,-3.1705,-3.1741,-3.1817,-3.2178,-3.2442,-3.2683,-3.2959,-3.2971,-3.2996,-3.3056,-3.32,-3.3356,-3.3392,-3.3561,-3.3585,-3.3669,-3.3861,-3.4222,-3.4246,-3.4294,-3.4691,-3.4763,-3.4775,-3.4763,-3.4751,-3.4775,-3.4775,-3.4775,-3.4775,-3.4775,-3.4775,-3.4775,-3.4775,-3.4775,-3.4775,-3.4775,-3.4775,-3.4775,-3.4775,-3.4775,-3.4775,-3.4726,-3.458,-3.4433,-3.4298,-3.4162,-3.4064,-3.3977,-3.3779,-3.358,-3.3431,-3.3331,-3.3292,-3.3281,-3.3281,-3.3281,-3.3281,-3.3331,-3.3331,-3.3331,-3.3281,-3.3281,-3.3008,-3.2745,-3.2533,-3.2167,-3.1432,-3.0949,-3.0856,-3.0016,-2.8339,-2.7868,-2.7985,-2.7466,-2.6791,-2.6591,-2.6591,-2.6591,-2.6591,-2.6591,-2.6591,-2.6591,-2.6591,-2.6591,-2.6591,-2.8163,-2.8678,-2.9761,-3.1347,-3.2995,-3.3081,-3.3124,-3.3124,-3.3124,-3.3124,-3.3124,-3.3124,-3.3124,-3.3081,-3.3038,-3.3038,-3.2995,-3.2952,-3.281,-3.268,-3.2593,-3.2463,-3.2388,-3.23,-3.2038,-3.1994,-3.1937,-3.1793,-3.1773,-3.1825,-3.1934,-3.1825,-3.2298,-3.2683,-3.2899,-3.3176,-3.3513,-3.3861,-3.3705,-3.3597,-3.3549,-3.3549,-3.3621,-3.397,-3.4102,-3.421,-3.457,-3.4751,-3.4775,-3.4775,-3.4775,-3.4775,-3.4775,-3.4775,-3.4775,-3.4775,-3.4775,-3.4775,-3.4775,-3.4775,-3.4775,-3.4775,-3.4775,-3.4775,-3.4775,-3.4775,-3.4775,-3.4775,-3.4726,-3.4677,-3.4628,-3.4494,-3.4347,-3.42,-3.4064,-3.3915,-3.3729,-3.3679,-3.358,-3.3431,-3.3381,-3.3281,-3.3281,-3.3281,-3.3281,-3.3281,-3.3281,-3.3281,-3.3281,-3.3281,-3.3231,-3.3131,-3.2331,-3.1964,-3.2117,-3.1637,-3.0639,-3.0172,-2.9911,-2.9029,-2.7511,-2.7413,-2.7663,-2.7152,-2.6591,-2.6591,-2.6591,-2.6591,-2.6591,-2.6591,-2.6591,-2.6591,-2.6591,-2.6591,-2.6591,-2.78,-2.782,-2.9486,-3.1315,-3.2982,-3.3124,-3.3124,-3.3124,-3.3124,-3.3081,-3.3124,-3.3081,-3.3081,-3.3038,-3.2853,-3.281,-3.2766,-3.2705,-3.2562,-3.2419,-3.2332,-3.2245,-3.2069,-3.1981,-3.1849,-3.1805,-3.1749,-3.1785,-3.1862,-3.2046,-3.231,-3.237,-3.2839,-3.32,-3.3513,-3.3789,-3.4042,-3.445,-3.4414,-3.427,-3.4294,-3.4402,-3.451,-3.4558,-3.4595,-3.457,-3.4775,-3.4775,-3.4775,-3.4775,-3.4775,-3.4775,-3.4775,-3.4775,-3.4775,-3.4775,-3.4775,-3.4775,-3.4775,-3.4775,-3.4775,-3.4775,-3.4775,-3.4775,-3.4775,-3.4775,-3.4775,-3.4726,-3.4628,-3.458,-3.4433,-3.4249,-3.4113,-3.3965,-3.3817,-3.363,-3.3431,-3.3431,-3.3392,-3.3342,-3.3281,-3.3281,-3.3281,-3.3281,-3.3281,-3.3281,-3.3281,-3.3281,-3.3231,-3.3231,-3.3019,-3.2645,-3.1238,-3.0867,-3.1227,-3.0845,-2.9797,-2.9114,-2.8807,-2.7824,-2.6736,-2.6944,-2.7152,-2.6899,-2.6591,-2.6591,-2.6591,-2.6591,-2.6591,-2.6591,-2.6591,-2.6591,-2.6591,-2.6591,-2.6591,-2.7852,-2.7568,-2.9395,-3.1347,-3.2896,-3.3124,-3.3025,-3.2939,-3.3025,-3.2982,-3.2822,-3.2853,-3.2939,-3.2909,-3.2692,-3.2562,-3.255,-3.2487,-3.2344,-3.2213,-3.2069,-3.1981,-3.1849,-3.1749,-3.1749,-3.1717,-3.1729,-3.1813,-3.2058,-3.2274,-3.2539,-3.2875,-3.3356,-3.3765,-3.4042,-3.4198,-3.445,-3.4751,-3.4775,-3.4775,-3.4775,-3.4775,-3.4775,-3.4775,-3.4775,-3.4775,-3.4775,-3.4775,-3.4775,-3.4775,-3.4775,-3.4775,-3.4775,-3.4775,-3.4775,-3.4775,-3.4775,-3.4775,-3.4775,-3.4775,-3.4775,-3.4775,-3.4775,-3.4775,-3.458,-3.458,-3.458,-3.4531,-3.4531,-3.4433,-3.4249,-3.4064,-3.3915,-3.3779,-3.363,-3.3431,-3.3381,-3.3331,-3.3342,-3.3342,-3.3281,-3.3281,-3.3281,-3.3281,-3.3281,-3.3281,-3.3281,-3.3131,-3.3131,-3.2594,-3.2544,-3.2167,-3.0701,-3.0078,-3.0453,-2.9859,-2.8744,-2.8169,-2.7814,-2.7251,-2.6691,-2.6636,-2.6636,-2.6591,-2.6591,-2.6591,-2.6591,-2.6591,-2.6591,-2.6591,-2.6591,-2.6591,-2.6591,-2.6591,-2.6591,-2.8265,-2.7957,-2.9441,-3.1303,-3.2939,-3.3038,-3.2896,-3.2766,-3.2909,-3.2779,-3.2475,-3.255,-3.2636,-3.2605,-3.2475,-3.2388,-3.23,-3.2213,-3.2113,-3.2025,-3.1937,-3.1849,-3.1761,-3.1705,-3.1789,-3.1874,-3.1934,-3.2226,-3.2599,-3.2827,-3.3128,-3.3452,-3.3789,-3.4102,-3.4234,-3.4462,-3.4775,-3.4775,-3.4775,-3.4775,-3.4775,-3.4775,-3.4775,-3.4775,-3.4775,-3.4775,-3.4775,-3.4775,-3.4775,-3.4775,-3.4775,-3.4775,-3.4775,-3.4775,-3.4775,-3.4775,-3.4775,-3.4775,-3.4775,-3.4775,-3.4775,-3.4726,-3.4787,-3.464,-3.4445,-3.4347,-3.4347,-3.4298,-3.4286,-3.42,-3.4014,-3.3828,-3.3729,-3.363,-3.3431,-3.3331,-3.3281,-3.3281,-3.3281,-3.3281,-3.3281,-3.3281,-3.3231,-3.3231,-3.3181,-3.3181,-3.3069,-3.2969,-3.2656,-3.175,-3.1216,-3.0959,-3.012,-2.9755,-2.9713,-2.888,-2.7761,-2.7609,-2.7251,-2.6899,-2.6591,-2.6591,-2.6591,-2.6591,-2.6591,-2.6591,-2.6591,-2.6591,-2.6591,-2.6591,-2.6591,-2.6591,-2.6591,-2.6591,-2.6591,-2.9021,-2.9669,-2.9852,-3.1125,-3.2853,-3.268,-3.2605,-3.2667,-3.2562,-3.2487,-3.2344,-3.2213,-3.2213,-3.2444,-3.2213,-3.2081,-3.2081,-3.1981,-3.1837,-3.1761,-3.1805,-3.1761,-3.1753,-3.1837,-3.1973,-3.2142,-3.2346,-3.2671,-3.308,-3.3477,-3.3718,-3.3886,-3.4354,-3.4583,-3.4607,-3.4775,-3.4775,-3.4775,-3.4775,-3.4775,-3.4775,-3.4775,-3.4775,-3.4775,-3.4775,-3.4775,-3.4775,-3.4775,-3.4775,-3.4775,-3.4775,-3.4775,-3.4775,-3.4775,-3.4775,-3.4775,-3.4775,-3.4726,-3.4726,-3.4677,-3.464,-3.4482,-3.4494,-3.4396,-3.4249,-3.4162,-3.4064,-3.3878,-3.3866,-3.3866,-3.3679,-3.353,-3.3431,-3.3431,-3.3331,-3.3281,-3.3281,-3.3281,-3.3281,-3.3281,-3.3281,-3.3181,-3.3069,-3.2908,-3.2594,-3.2432,-3.1953,-3.1801,-3.1187,-3.0546,-2.9901,-2.9587,-2.9272,-2.886,-2.8499,-2.7843,-2.7053,-2.6899,-2.6845,-2.6691,-2.6591,-2.6591,-2.6591,-2.6591,-2.6591,-2.6591,-2.6591,-2.6591,-2.6591,-2.6591,-2.6591,-2.6591,-2.6591,-2.6591,-2.6591]}]]